[[{"header":{"parameterUnit":"m.s-1","parameterCategory":1,"la1":30.6,"la2":28.766,"lo1":-90.7593,"lo2":-88.6598,"dy":0.0162,"dx":0.0183,"nx":116,"ny":114,"refTime":"2023-06-12T06:00:00:Z","depth":0,"parameterNumber":2,"parameterNumberName":"U-component_of_WINDS"},"data":[0.0,0.0,0.0,0.0,0.0,0.0,0.0,0.0,0.0,0.0,0.0,0.0,0.0,0.0,0.0,0.0,0.0,0.0,0.0,0.0,0.0,0.0,0.0,0.0,0.0,0.0,0.0,0.0,0.0,0.0,0.0,0.0,0.0,0.0,0.0,0.0,0.0,0.0,0.0,0.0,0.0,0.0,0.0,0.0,0.0,0.0,0.0,0.0,0.0,0.0,0.0,0.0,0.0,0.0,0.0,0.0,0.0,0.0,0.0,0.0,0.0,0.0,0.0,0.0,0.0,0.0,0.0,0.0,0.0,0.0,0.0,0.0,0.0,0.0,0.0,0.0,0.0,0.0,0.0,0.0,0.0,0.0,0.0,0.0,0.0,0.0,0.0,0.0,0.0,0.0,0.0,0.0,0.0,0.0,0.0,0.0,0.0,0.0,0.0,0.0,0.0,0.0,0.0,0.0,0.0,0.0,0.0,0.0,0.0,0.0,0.0,0.0,0.0,0.0,0.0,0.0,0.0,0.0,0.0,0.0,0.0,0.0,0.0,0.0,0.0,0.0,0.0,0.0,0.0,0.0,0.0,0.0,0.0,0.0,0.0,0.0,0.0,0.0,0.0,0.0,0.0,0.0,0.0,0.0,0.0,0.0,0.0,0.0,0.0,0.0,0.0,0.0,0.0,0.0,0.0,0.0,0.0,0.0,0.0,0.0,0.0,0.0,0.0,0.0,0.0,0.0,0.0,0.0,0.0,0.0,0.0,0.0,0.0,0.0,0.0,0.0,0.0,0.0,0.0,0.0,0.0,0.0,0.0,0.0,0.0,0.0,0.0,0.0,0.0,0.0,0.0,0.0,0.0,0.0,0.0,0.0,0.0,0.0,0.0,0.0,0.0,0.0,0.0,0.0,0.0,0.0,0.0,0.0,0.0,0.0,0.0,0.0,0.0,0.0,0.0,0.0,0.0,0.0,0.0,0.0,0.0,0.0,0.0,0.0,0.0,0.0,0.0,0.0,0.0,0.0,0.0,0.0,0.0,0.0,0.0,0.0,0.0,0.0,0.0,0.0,0.0,0.0,0.0,0.0,0.0,0.0,0.0,0.0,0.0,0.0,0.0,0.0,0.0,0.0,0.0,0.0,0.0,0.0,0.0,0.0,0.0,0.0,0.0,0.0,0.0,0.0,0.0,0.0,0.0,0.0,0.0,0.0,0.0,0.0,0.0,0.0,0.0,0.0,0.0,0.0,0.0,0.0,0.0,0.0,0.0,0.0,0.0,0.0,0.0,0.0,0.0,0.0,0.0,0.0,0.0,0.0,0.0,0.0,0.0,0.0,0.0,0.0,0.0,0.0,0.0,0.0,0.0,0.0,0.0,0.0,0.0,0.0,0.0,0.0,0.0,0.0,0.0,0.0,0.0,0.0,0.0,0.0,0.0,0.0,0.0,0.0,0.0,0.0,0.0,0.0,0.0,0.0,0.0,0.0,0.0,0.0,0.0,0.0,0.0,0.0,0.0,0.0,0.0,0.0,0.0,0.0,0.0,0.0,0.0,0.0,0.0,0.0,0.0,0.0,0.0,0.0,0.0,0.0,0.0,0.0,0.0,0.0,0.0,0.0,0.0,0.0,0.0,0.0,0.0,0.0,0.0,0.0,0.0,0.0,0.0,0.0,0.0,0.0,0.0,0.0,0.0,0.0,0.0,0.0,0.0,0.0,0.0,0.0,0.0,0.0,0.0,0.0,0.0,0.0,0.0,0.0,0.0,0.0,0.0,0.0,0.0,0.0,0.0,0.0,0.0,0.0,0.0,0.0,0.0,0.0,0.0,0.0,0.0,0.0,0.0,0.0,0.0,0.0,0.0,0.0,0.0,0.0,0.0,0.0,0.0,0.0,0.0,0.0,0.0,0.0,0.0,0.0,0.0,0.0,0.0,0.0,0.0,0.0,0.0,0.0,0.0,0.0,0.0,0.0,0.0,0.0,0.0,0.0,0.0,0.0,0.0,0.0,0.0,0.0,0.0,0.0,0.0,0.0,0.0,0.0,0.0,0.0,0.0,0.0,0.0,0.0,0.0,0.0,0.0,0.0,0.0,0.0,0.0,0.0,0.0,0.0,0.0,0.0,0.0,0.0,0.0,0.0,0.0,0.0,0.0,0.0,0.0,0.0,0.0,0.0,0.0,0.0,0.0,0.0,0.0,0.0,0.0,0.0,0.0,0.0,0.0,0.0,0.0,0.0,0.0,0.0,0.0,0.0,0.0,0.0,0.0,0.0,0.0,0.0,0.0,0.0,0.0,0.0,0.0,0.0,0.0,0.0,0.0,0.0,0.0,0.0,0.0,0.0,0.0,0.0,0.0,0.0,0.0,0.0,0.0,0.0,0.0,0.0,0.0,0.0,0.0,0.0,0.0,0.0,0.0,0.0,0.0,0.0,0.0,0.0,0.0,0.0,0.0,0.0,0.0,0.0,0.0,0.0,0.0,0.0,0.0,0.0,0.0,0.0,0.0,0.0,0.0,0.0,0.0,0.0,0.0,0.0,0.0,0.0,0.0,0.0,0.0,0.0,0.0,0.0,0.0,0.0,0.0,0.0,0.0,0.0,0.0,0.0,0.0,0.0,0.0,0.0,0.0,0.0,0.0,0.0,0.0,0.0,0.0,0.0,0.0,0.0,0.0,0.0,0.0,0.0,0.0,0.0,0.0,0.0,0.0,0.0,0.0,0.0,0.0,0.0,0.0,0.0,0.0,0.0,0.0,0.0,0.0,0.0,0.0,0.0,0.0,0.0,0.0,0.0,0.0,0.0,0.0,0.0,0.0,0.0,0.0,0.0,0.0,0.0,0.0,0.0,0.0,0.0,0.0,0.0,0.0,0.0,0.0,0.0,0.0,0.0,0.0,0.0,0.0,0.0,0.0,0.0,0.0,0.0,0.0,0.0,0.0,0.0,0.0,0.0,0.0,0.0,0.0,0.0,0.0,0.0,0.0,0.0,0.0,0.0,0.0,0.0,0.0,0.0,0.0,0.0,0.0,0.0,0.0,0.0,0.0,0.0,0.0,0.0,0.0,0.0,0.0,0.0,0.0,0.0,0.0,0.0,0.0,0.0,0.0,0.0,0.0,0.0,0.0,0.0,0.0,0.0,0.0,0.0,0.0,0.0,0.0,0.0,0.0,0.0,0.0,0.0,0.0,0.0,0.0,0.0,0.0,0.0,0.0,0.0,0.0,0.0,0.0,0.0,0.0,0.0,0.0,0.0,0.0,0.0,0.0,0.0,0.0,0.0,0.0,0.0,0.0,0.0,0.0,0.0,0.0,0.0,0.0,0.0,0.0,0.0,0.0,0.0,0.0,0.0,0.0,0.0,0.0,0.0,0.0,0.0,0.0,0.0,0.0,0.0,0.0,0.0,0.0,0.0,0.0,0.0,0.0,0.0,0.0,0.0,0.0,0.0,0.0,0.0,0.0,0.0,0.0,0.0,0.0,0.0,0.0,0.0,0.0,0.0,0.0,0.0,0.0,0.0,0.0,0.0,0.0,0.0,0.0,0.0,0.0,0.0,0.0,0.0,0.0,0.0,0.0,0.0,0.0,0.0,0.0,0.0,0.0,0.0,0.0,0.0,0.0,0.0,0.0,0.0,0.0,0.0,0.0,0.0,0.0,0.0,0.0,0.0,0.0,0.0,0.0,0.0,0.0,0.0,0.0,0.0,0.0,0.0,0.0,0.0,0.0,0.0,0.0,0.0,0.0,0.0,0.0,0.0,0.0,0.0,0.0,0.0,0.0,0.0,0.0,0.0,0.0,0.0,0.0,0.0,0.0,0.0,0.0,0.0,0.0,0.0,0.0,0.0,0.0,0.0,0.0,0.0,0.0,0.0,0.0,0.0,0.0,0.0,0.0,0.0,0.0,0.0,0.0,0.0,0.0,0.0,0.0,0.0,0.0,0.0,0.0,0.0,0.0,0.0,0.0,0.0,0.0,0.0,0.0,0.0,0.0,0.0,0.0,0.0,0.0,0.0,0.0,0.0,0.0,0.0,0.0,0.0,0.0,0.0,0.0,0.0,0.0,0.0,0.0,0.0,0.0,0.0,0.0,0.0,0.0,0.0,0.0,0.0,0.0,0.0,0.0,0.0,0.0,0.0,0.0,0.0,0.0,0.0,0.0,0.0,0.0,0.0,0.0,0.0,0.0,0.0,0.0,0.0,0.0,0.0,0.0,0.0,0.0,0.0,0.0,0.0,0.0,0.0,0.0,0.0,0.0,0.0,0.0,0.0,0.0,0.0,0.0,0.0,0.0,0.0,0.0,0.0,0.0,0.0,0.0,0.0,0.0,0.0,0.0,0.0,0.0,0.0,0.0,0.0,0.0,0.0,0.0,0.0,0.0,0.0,0.0,0.0,0.0,0.0,0.0,0.0,0.0,0.0,0.0,0.0,0.0,0.0,0.0,0.0,0.0,0.0,0.0,0.0,0.0,0.0,0.0,0.0,0.0,0.0,0.0,0.0,0.0,0.0,0.0,0.0,0.0,0.0,0.0,0.0,0.0,0.0,0.0,0.0,0.0,0.0,0.0,0.0,0.0,0.0,0.0,0.0,0.0,0.0,0.0,0.0,0.0,0.0,0.0,0.0,0.0,0.0,0.0,0.0,0.0,0.0,0.0,0.0,0.0,0.0,0.0,0.0,0.0,0.0,0.0,0.0,0.0,0.0,0.0,0.0,0.0,0.0,0.0,0.0,0.0,0.0,0.0,0.0,0.0,0.0,0.0,0.0,0.0,0.0,0.0,0.0,0.0,0.0,0.0,0.0,0.0,0.0,0.0,0.0,0.0,0.0,0.0,0.0,0.0,0.0,0.0,0.0,0.0,0.0,0.0,0.0,0.0,0.0,0.0,0.0,0.0,0.0,0.0,0.0,0.0,0.0,0.0,0.0,0.0,0.0,0.0,0.0,0.0,0.0,0.0,0.0,0.0,0.0,0.0,0.0,0.0,0.0,0.0,0.0,0.0,0.0,0.0,0.0,0.0,0.0,0.0,0.0,0.0,0.0,0.0,0.0,0.0,0.0,0.0,0.0,0.0,0.0,0.0,0.0,0.0,0.0,0.0,0.0,0.0,0.0,0.0,0.0,0.0,0.0,0.0,0.0,0.0,0.0,0.0,0.0,0.0,0.0,0.0,0.0,0.0,0.0,0.0,0.0,0.0,0.0,0.0,0.0,0.0,0.0,0.0,0.0,0.0,0.0,0.0,0.0,0.0,0.0,0.0,0.0,0.0,0.0,0.0,0.0,0.0,0.0,0.0,0.0,0.0,0.0,0.0,0.0,0.0,0.0,0.0,0.0,0.0,0.0,0.0,0.0,0.0,0.0,0.0,0.0,0.0,0.0,0.0,0.0,0.0,0.0,0.0,0.0,0.0,0.0,0.0,0.0,0.0,0.0,0.0,0.0,0.0,0.0,0.0,0.0,0.0,0.0,0.0,0.0,0.0,0.0,0.0,0.0,0.0,0.0,0.0,0.0,0.0,0.0,0.0,0.0,0.0,0.0,0.0,0.0,0.0,0.0,0.0,0.0,0.0,0.0,0.0,0.0,0.0,0.0,0.0,0.0,0.0,0.0,0.0,0.0,0.0,0.0,0.0,0.0,0.0,0.0,0.0,0.0,0.0,0.0,0.0,0.0,0.0,0.0,0.0,0.0,0.0,0.0,0.0,0.0,0.0,0.0,0.0,0.0,0.0,0.0,0.0,0.0,0.0,0.0,0.0,0.0,0.0,0.0,0.0,0.0,0.0,0.0,0.0,0.0,0.0,0.0,0.0,0.0,0.0,0.0,0.0,0.0,0.0,0.0,0.0,0.0,0.0,0.0,0.0,0.0,0.0,0.0,0.0,0.0,0.0,0.0,0.0,0.0,0.0,0.0,0.0,0.0,0.0,0.0,0.0,0.0,0.0,0.0,0.0,0.0,0.0,0.0,0.0,0.0,0.0,0.0,0.0,0.0,0.0,0.0,0.0,0.0,0.0,0.0,0.0,0.0,0.0,0.0,0.0,0.0,0.0,0.0,0.0,0.0,0.0,0.0,0.0,0.0,0.0,0.0,0.0,0.0,0.0,0.0,0.0,0.0,-6.0073,0.0,0.0,0.0,0.0,0.0,0.0,0.0,0.0,0.0,0.0,0.0,0.0,0.0,0.0,0.0,0.0,0.0,0.0,0.0,0.0,0.0,0.0,0.0,0.0,0.0,0.0,0.0,0.0,0.0,0.0,0.0,0.0,0.0,0.0,0.0,0.0,0.0,0.0,0.0,0.0,0.0,0.0,0.0,0.0,0.0,0.0,0.0,0.0,0.0,0.0,0.0,0.0,0.0,0.0,0.0,0.0,0.0,0.0,0.0,0.0,0.0,0.0,0.0,0.0,0.0,0.0,0.0,0.0,0.0,0.0,0.0,0.0,0.0,0.0,0.0,0.0,0.0,0.0,0.0,0.0,0.0,0.0,0.0,0.0,0.0,0.0,0.0,0.0,0.0,0.0,0.0,0.0,0.0,0.0,0.0,0.0,0.0,0.0,0.0,0.0,0.0,0.0,0.0,0.0,0.0,0.0,0.0,0.0,0.0,0.0,0.0,0.0,0.0,0.0,0.0,0.0,-6.1507,0.0,0.0,0.0,0.0,0.0,0.0,0.0,0.0,0.0,0.0,0.0,0.0,0.0,0.0,0.0,0.0,0.0,0.0,0.0,0.0,0.0,0.0,0.0,0.0,0.0,0.0,0.0,0.0,0.0,0.0,0.0,0.0,0.0,0.0,0.0,0.0,0.0,0.0,0.0,0.0,0.0,0.0,0.0,0.0,0.0,0.0,0.0,0.0,0.0,0.0,0.0,0.0,0.0,0.0,0.0,0.0,0.0,0.0,0.0,0.0,0.0,0.0,0.0,0.0,0.0,0.0,0.0,0.0,0.0,0.0,0.0,0.0,0.0,0.0,0.0,0.0,0.0,0.0,0.0,0.0,0.0,0.0,0.0,0.0,0.0,0.0,0.0,0.0,0.0,0.0,0.0,0.0,0.0,0.0,0.0,0.0,0.0,0.0,0.0,0.0,0.0,0.0,0.0,0.0,0.0,0.0,0.0,0.0,-7.1733,-7.289,-7.3926,-7.3255,-7.2904,-7.2606,-6.9119,-6.6343,-6.4101,0.0,0.0,0.0,0.0,0.0,0.0,0.0,0.0,0.0,0.0,0.0,0.0,0.0,0.0,0.0,0.0,0.0,0.0,0.0,0.0,0.0,0.0,0.0,0.0,0.0,0.0,0.0,0.0,0.0,0.0,0.0,0.0,0.0,0.0,0.0,0.0,0.0,0.0,0.0,-5.0297,-5.2058,-5.3234,-5.368,-4.9991,0.0,0.0,0.0,0.0,0.0,0.0,0.0,0.0,0.0,0.0,0.0,0.0,0.0,0.0,0.0,0.0,0.0,0.0,0.0,0.0,0.0,0.0,0.0,0.0,0.0,0.0,0.0,0.0,0.0,0.0,0.0,0.0,0.0,0.0,0.0,0.0,0.0,0.0,0.0,0.0,0.0,0.0,0.0,-5.6929,-5.8672,0.0,0.0,0.0,0.0,0.0,0.0,0.0,0.0,0.0,0.0,0.0,0.0,0.0,-6.9964,-7.095,-7.385,-7.5002,-7.4417,-7.7356,-7.8811,-7.884,-7.873,-7.8694,-7.8589,-7.7378,0.0,-6.6747,-6.5779,0.0,0.0,0.0,0.0,0.0,0.0,0.0,0.0,0.0,0.0,0.0,0.0,0.0,0.0,0.0,0.0,0.0,0.0,0.0,0.0,0.0,0.0,0.0,0.0,0.0,0.0,0.0,0.0,0.0,0.0,0.0,0.0,0.0,0.0,0.0,0.0,-4.8554,-5.1791,-5.4831,-5.5525,-5.6563,-5.7816,-5.5468,-5.314,-5.0968,-4.9971,0.0,0.0,0.0,0.0,0.0,0.0,0.0,0.0,0.0,0.0,0.0,0.0,0.0,0.0,0.0,0.0,0.0,0.0,0.0,0.0,0.0,0.0,0.0,0.0,0.0,0.0,0.0,0.0,0.0,0.0,0.0,0.0,0.0,0.0,0.0,0.0,0.0,0.0,0.0,-5.6428,-6.0394,-5.9012,-6.1525,-6.1899,0.0,0.0,0.0,0.0,0.0,0.0,0.0,0.0,0.0,-7.3529,-7.4476,-7.5513,-7.6727,-7.8847,-7.9885,-7.9909,-8.1786,-8.312,-8.3838,-8.3361,-8.3177,-8.3104,-8.1856,-7.8893,-7.4665,-7.0529,-6.6895,-6.3819,0.0,0.0,0.0,0.0,-6.0093,-5.9953,0.0,0.0,0.0,0.0,0.0,0.0,0.0,0.0,0.0,0.0,0.0,0.0,0.0,0.0,0.0,-4.7773,0.0,0.0,0.0,0.0,0.0,0.0,0.0,0.0,0.0,0.0,0.0,0.0,-5.2184,-5.5085,-5.7751,-5.8439,-5.9248,-6.0153,-5.9926,-5.7418,-5.3282,-5.2838,-5.0378,0.0,0.0,0.0,0.0,0.0,0.0,0.0,0.0,0.0,0.0,0.0,0.0,0.0,0.0,0.0,0.0,0.0,0.0,0.0,0.0,0.0,0.0,0.0,0.0,0.0,0.0,0.0,0.0,0.0,0.0,0.0,0.0,0.0,0.0,0.0,0.0,0.0,0.0,-6.0399,-6.3815,-6.0279,-6.4894,-6.6128,0.0,0.0,0.0,0.0,0.0,0.0,-7.2477,-7.3695,-7.5994,-7.9742,-8.032,-8.1311,-8.2825,-8.382,-8.4502,-8.4776,-8.5585,-8.6326,-8.6995,-8.6591,-8.6297,-8.6004,-8.4425,-8.292,-8.1126,-7.4818,-7.0492,-6.7651,-6.5605,-6.3519,-6.1808,-6.3081,-6.2959,-6.2385,0.0,0.0,0.0,0.0,0.0,0.0,0.0,0.0,0.0,0.0,0.0,0.0,0.0,0.0,-4.7864,-5.1435,-5.119,-5.0729,0.0,0.0,0.0,0.0,0.0,0.0,0.0,0.0,0.0,-4.9966,-5.2971,-5.5232,-5.6853,-6.047,-6.1502,-6.0367,-6.1794,-6.123,-5.9026,-5.5232,-5.2951,-5.1578,0.0,0.0,0.0,0.0,0.0,0.0,0.0,0.0,0.0,0.0,0.0,0.0,0.0,0.0,0.0,0.0,0.0,0.0,0.0,0.0,0.0,0.0,0.0,0.0,0.0,0.0,0.0,0.0,0.0,0.0,0.0,0.0,0.0,0.0,0.0,0.0,0.0,0.0,0.0,-6.4399,-7.0952,0.0,0.0,0.0,0.0,-6.9911,-7.2987,-7.5928,-7.8328,-8.063,-8.3246,-8.6233,-8.6772,-8.773,-8.9219,-8.9119,-8.8683,-8.7949,-8.8793,-8.8426,-8.7031,-8.7766,-8.7655,-8.6848,-8.5233,-8.4058,-8.292,-7.7897,-7.3823,-7.0478,-6.8041,-6.6214,-6.4795,-6.4213,-6.4434,-6.4931,0.0,0.0,0.0,0.0,0.0,0.0,0.0,0.0,0.0,0.0,0.0,0.0,0.0,0.0,0.0,0.0,-5.4316,-5.3901,-5.1506,0.0,0.0,0.0,0.0,0.0,0.0,0.0,-4.9299,-5.2976,-5.5076,-5.701,-5.8811,-6.0737,-6.1363,-6.0927,-6.1507,-6.1348,-6.0528,-5.8524,-5.5327,-5.1432,-5.0489,-4.7941,0.0,0.0,0.0,0.0,0.0,0.0,0.0,0.0,0.0,0.0,0.0,0.0,0.0,0.0,0.0,0.0,0.0,0.0,0.0,0.0,0.0,0.0,0.0,0.0,0.0,0.0,0.0,0.0,0.0,0.0,0.0,0.0,0.0,0.0,0.0,0.0,0.0,-6.9896,-7.587,0.0,-7.2262,-7.4472,-7.6356,-7.648,-7.9676,-8.2858,-8.5685,-8.6665,-8.8242,-9.0647,-9.0272,-9.0153,-9.0471,-9.026,-8.9528,-8.8206,-8.85,-8.8059,-8.7031,-8.7325,-8.7288,-8.6921,-8.5306,-8.4462,-8.3875,-8.0057,-7.671,-7.3836,-7.2449,-7.0191,-6.7848,-6.8359,-6.7947,-6.7165,0.0,0.0,0.0,0.0,0.0,0.0,0.0,0.0,0.0,0.0,0.0,0.0,0.0,0.0,0.0,0.0,0.0,-5.5314,-5.1718,0.0,0.0,0.0,0.0,0.0,0.0,-4.9576,-5.1717,-5.5044,-5.6304,-5.771,-5.9262,-6.0285,-6.0614,-6.046,-6.106,-6.096,-6.037,-6.0333,-5.7555,-5.3154,-5.2819,-5.1032,-4.8125,0.0,0.0,0.0,0.0,0.0,0.0,0.0,0.0,0.0,0.0,0.0,0.0,0.0,0.0,0.0,0.0,0.0,0.0,0.0,0.0,0.0,0.0,0.0,0.0,0.0,0.0,0.0,0.0,0.0,0.0,0.0,0.0,0.0,0.0,0.0,-7.4947,-7.4,-8.0288,-8.2874,-7.8076,-8.087,-8.3171,-8.3611,-8.6573,-8.919,-9.1174,-9.1616,-9.2322,-9.3526,-9.2909,-9.2262,-9.1653,-9.1509,-9.0482,-8.861,-8.8867,-8.8316,-8.7031,-8.7288,-8.6958,-8.6151,-8.5049,-8.4132,-8.3214,-8.1085,-7.861,-7.6115,-7.5019,-7.2704,-7.0126,-7.0898,-7.0257,-6.8964,0.0,0.0,0.0,0.0,0.0,0.0,0.0,0.0,0.0,0.0,0.0,0.0,0.0,0.0,0.0,0.0,0.0,-5.4483,-5.1182,-4.8253,0.0,0.0,0.0,0.0,-5.0488,-5.129,-5.3041,-5.5865,-5.6376,-5.7043,-5.7863,-5.9117,-5.9462,-5.9039,-6.0543,-6.0327,-5.8884,-6.0518,-5.9786,-5.7286,-5.4687,-5.3907,-5.3602,0.0,0.0,0.0,0.0,0.0,0.0,0.0,0.0,0.0,0.0,0.0,0.0,0.0,0.0,0.0,0.0,0.0,0.0,0.0,0.0,0.0,0.0,0.0,0.0,0.0,0.0,0.0,0.0,0.0,0.0,0.0,0.0,0.0,-6.7597,-7.3885,-7.7923,-7.6786,-8.4336,-8.7802,-8.3144,-8.7801,-9.1154,-9.1124,-9.3395,-9.4713,-9.4552,-9.5264,-9.5477,-9.4884,-9.4775,-9.4189,-9.3125,-9.3088,-9.184,-8.9382,-9.0188,-8.9307,-8.7031,-8.7802,-8.6848,-8.4609,-8.4609,-8.3251,-8.1048,-8.0975,-7.9543,-7.7127,-7.5579,-7.3538,-7.1531,-7.1494,-7.1078,-7.0268,0.0,0.0,0.0,0.0,0.0,0.0,0.0,0.0,0.0,0.0,0.0,0.0,0.0,0.0,0.0,0.0,0.0,0.0,-5.0374,0.0,0.0,0.0,0.0,0.0,-5.2033,-5.2393,-5.3379,-5.5094,-5.5157,-5.5641,-5.6564,-5.7471,-5.8169,-5.8588,-5.916,-5.9834,-6.0534,-6.0914,-6.1581,-6.2133,-5.8526,-5.6257,-5.4633,0.0,0.0,0.0,0.0,0.0,0.0,0.0,0.0,0.0,0.0,0.0,0.0,0.0,0.0,0.0,0.0,0.0,0.0,0.0,0.0,0.0,0.0,0.0,0.0,0.0,0.0,0.0,0.0,0.0,0.0,0.0,0.0,-7.1487,-7.3301,-7.7784,-8.2347,-8.6348,-8.9876,-9.1779,-9.1156,-9.3125,-9.4366,-9.4198,-9.5488,-9.675,-9.7738,-9.6708,-9.6275,-9.6619,-9.4741,-9.3528,-9.3088,-9.2464,-9.1253,-8.9382,-8.9638,-8.8793,-8.7031,-8.7252,-8.6334,-8.4609,-8.4609,-8.3544,-8.1782,-8.0608,-7.9029,-7.72,-7.6166,-7.4531,-7.2667,-7.2085,-7.1236,-7.0163,0.0,0.0,0.0,0.0,0.0,0.0,0.0,0.0,0.0,0.0,0.0,0.0,0.0,0.0,0.0,0.0,0.0,0.0,0.0,0.0,0.0,0.0,0.0,-5.0598,-5.3147,-5.3643,-5.4489,-5.5759,-5.5222,-5.553,-5.6734,-5.6909,-5.7743,-5.9091,-5.9133,-5.9838,-6.1137,-6.1692,-6.2849,-6.4132,-6.2177,-6.0428,-5.8529,-5.4407,-5.2726,-5.2243,-4.97,-4.9679,-5.0511,-4.8498,0.0,0.0,0.0,0.0,0.0,0.0,0.0,0.0,0.0,0.0,0.0,0.0,0.0,0.0,0.0,0.0,0.0,0.0,0.0,0.0,0.0,0.0,0.0,0.0,-7.1772,-7.6523,-7.9948,-8.2675,-8.6196,-9.1147,-9.3054,-9.4507,-9.576,-9.6318,-9.6842,-9.7409,-9.7995,-9.8667,-9.9457,-9.846,-9.7799,-9.7654,-9.6179,-9.4963,-9.4116,-9.3272,-9.2024,-9.0408,-8.9748,-8.8757,-8.7472,-8.6811,-8.5637,0.0,-8.4095,-8.281,-8.0608,-7.969,-7.8112,0.0,0.0,0.0,0.0,0.0,-7.0742,-6.9672,0.0,0.0,0.0,0.0,0.0,0.0,0.0,0.0,0.0,0.0,0.0,0.0,0.0,0.0,0.0,0.0,0.0,0.0,0.0,0.0,0.0,-4.5872,-4.9093,-5.176,-5.3734,-5.4545,-5.5572,-5.6821,-5.5812,-5.6082,-5.7507,-5.6905,-5.7803,-5.9897,-5.9832,-6.0226,-6.1063,-6.2553,-6.3652,-6.4376,-6.4965,-6.4816,-6.3576,-5.7629,-5.6452,-5.7543,-5.3968,-5.2679,-5.244,-5.0965,0.0,0.0,0.0,0.0,0.0,0.0,0.0,0.0,0.0,0.0,0.0,0.0,0.0,0.0,0.0,0.0,0.0,0.0,0.0,0.0,0.0,0.0,0.0,0.0,-7.6344,-8.1025,-8.6449,-8.7958,-8.9707,-9.2914,-9.4697,-9.6294,-9.7892,-9.8115,-9.8783,-10.0307,-10.0418,-10.0421,-10.0314,0.0,0.0,0.0,0.0,-9.7244,-9.5547,-9.4593,-9.3382,-9.1767,-9.0188,-8.8942,-8.8027,-8.6483,-8.4869,-8.3298,-8.3364,-8.1636,-7.8736,-7.8626,-7.7084,-7.4771,-7.4661,-7.3566,-7.1927,-7.0809,-6.999,-6.9205,0.0,0.0,0.0,0.0,0.0,0.0,0.0,0.0,0.0,0.0,0.0,0.0,0.0,0.0,0.0,0.0,0.0,0.0,0.0,0.0,-4.4333,-4.6733,-4.8207,-5.0237,-5.2869,-5.3299,-5.4077,-5.5263,-5.4811,-5.5216,-5.6503,-5.6357,-5.7184,-5.8776,-5.9822,-6.0485,-6.095,-6.2411,-6.3886,-6.5113,-6.3835,-6.4042,-6.4787,-6.2181,-6.0652,-5.9601,-5.757,-5.7643,-5.8414,-5.6272,-5.6138,-5.6461,-5.426,0.0,0.0,0.0,0.0,0.0,0.0,0.0,0.0,0.0,0.0,0.0,0.0,0.0,0.0,0.0,0.0,0.0,0.0,0.0,0.0,-7.5517,-8.0654,-8.5483,-8.9273,-9.1618,-9.3438,-9.4771,-9.6406,-9.778,-9.8783,-9.9452,-10.0195,-10.1198,-10.131,-10.1496,-10.2091,-10.1278,0.0,-9.9463,-9.7833,-9.6503,-9.5511,-9.4079,-9.2831,-9.1767,0.0,0.0,-8.7449,-8.631,-8.4627,-8.2606,-8.3197,-8.1929,-7.9507,-7.8883,-7.6754,-7.3854,-7.323,-7.276,-7.2226,-7.0839,-7.0438,-7.03,0.0,0.0,0.0,0.0,0.0,0.0,0.0,0.0,0.0,0.0,0.0,0.0,0.0,0.0,0.0,0.0,0.0,0.0,0.0,-4.4198,-4.5571,-4.7595,-4.9144,-5.0813,-5.2665,-5.3276,-5.3978,-5.4803,-5.5124,-5.5702,-5.6472,-5.6845,-5.7931,-5.9579,-6.0786,-6.1849,-6.2817,-6.3736,-6.489,-6.5919,-6.5033,-6.5411,-6.6292,-6.4237,-6.2745,-6.1581,-6.07,-6.0748,-6.0867,-5.8901,-5.922,-6.0131,-5.8025,-5.666,-5.5342,0.0,0.0,0.0,0.0,0.0,0.0,0.0,0.0,0.0,0.0,0.0,0.0,0.0,0.0,-6.5608,0.0,0.0,-7.5888,-7.9539,-8.3552,-8.7341,-9.0647,-9.2876,-9.4808,-9.6443,-9.7743,-9.8969,-10.0195,-10.0715,-10.1198,-10.2015,-10.2498,-10.2574,-10.2389,-10.2201,-10.1308,-9.9456,-9.8454,-9.7309,-9.6098,-9.452,-9.3492,-9.3015,-9.0264,-8.8581,-8.7846,-8.541,-8.3846,-8.3081,-8.225,-8.0975,-7.934,-7.6905,-7.4538,-7.2253,-7.1853,-7.1707,-7.1547,-7.037,-6.9849,-6.9565,0.0,0.0,0.0,0.0,0.0,0.0,0.0,0.0,0.0,0.0,0.0,0.0,0.0,0.0,0.0,0.0,0.0,0.0,0.0,-4.4816,-4.6946,-4.8691,-5.0381,-5.189,-5.3117,-5.3806,-5.4553,-5.5412,-5.6049,-5.6641,-5.7119,-5.7693,-5.8898,-6.0621,-6.1761,-6.303,-6.4321,-6.4967,-6.5623,-6.6208,-6.6208,-6.671,-6.7186,-6.5327,-6.4163,-6.3432,-6.321,-6.2475,-6.1463,-6.0126,-6.0877,-6.216,-6.0688,-6.0217,-5.9665,-5.6818,-5.5955,0.0,0.0,0.0,0.0,0.0,0.0,0.0,0.0,0.0,-6.4493,-6.858,-6.9434,-7.0735,-7.5007,-7.7125,-7.9502,-8.3292,-8.6078,-8.879,-9.1762,-9.3619,-9.5588,-9.8077,-9.8932,-9.9861,-10.1124,-10.1495,-10.2015,-10.2721,-10.339,-10.3317,-10.22,-10.2788,-10.2006,-9.948,-9.9181,-9.8337,-9.6722,-9.5107,-9.4226,-9.4006,-9.0258,-8.8424,-8.82,-8.4624,-8.3199,-8.337,-8.0974,-7.9321,-7.8027,-7.4579,-7.2245,-7.0875,-7.0676,-7.0609,-7.0541,-6.9778,-6.9198,-6.8604,0.0,0.0,0.0,0.0,0.0,0.0,0.0,0.0,0.0,0.0,0.0,0.0,0.0,0.0,0.0,0.0,0.0,0.0,0.0,-4.5827,-4.7554,-5.0225,-5.0756,-5.2145,-5.4683,-5.4449,-5.5385,-5.764,-5.7188,-5.7541,-5.8578,-5.8323,-5.9023,-6.0475,-6.1673,-6.2432,-6.2918,-6.4416,-6.5094,-6.5166,-6.5166,-6.5665,-6.6374,-6.6533,-6.5943,-6.496,-6.4352,-6.2598,-6.0601,-6.0628,-6.0802,-6.1026,-6.1069,-6.2011,-6.2516,-5.926,0.0,-5.8846,-5.6506,-5.6692,-5.8549,-6.2896,-6.3119,-6.4345,0.0,0.0,-7.2135,-7.6233,-7.705,-7.7645,-7.9651,-8.1397,-8.3366,-8.5966,-8.9087,-9.1799,-9.3657,-9.5328,-9.726,-9.9749,-10.0121,-10.0195,-10.0418,-10.1718,-10.261,-10.2721,-10.2796,-10.2686,-10.2389,-10.2274,-10.1676,-10.0524,-9.9554,-9.8337,-9.6722,-9.5107,-9.3932,-9.3198,-9.0003,-8.8193,-8.7537,-8.497,-8.3105,-8.1871,-7.9349,-7.702,-7.49,-7.3262,-7.1903,-7.0809,-6.992,-6.9598,-6.9671,-6.9563,-6.9345,-6.8945,0.0,0.0,0.0,0.0,0.0,0.0,0.0,0.0,0.0,0.0,0.0,0.0,0.0,0.0,0.0,0.0,0.0,0.0,-4.3255,-4.5904,-4.8544,-5.1061,-5.1263,-5.2665,-5.5587,-5.5129,-5.5683,-5.7363,-5.7529,-5.8077,-5.888,-5.9249,-6.0163,-6.1423,-6.2809,-6.3712,-6.4331,-6.4823,-6.5268,-6.5663,-6.5196,-6.5484,-6.6258,-6.6823,-6.5514,-6.346,-6.3441,-6.2217,0.0,0.0,-5.939,-6.0333,-5.9823,-6.0285,-6.0783,-5.9706,-5.9664,0.0,-6.0444,0.0,0.0,0.0,-6.7911,-7.0623,-7.4821,-7.575,-7.678,-8.0394,-8.1137,-8.162,-8.3254,-8.4518,-8.575,0.0,-8.9803,-9.2216,-9.365,-9.5044,-9.6409,-9.7826,-9.8082,-9.9081,-10.1495,-10.2313,-10.2721,-10.2721,-10.3094,-10.3019,-10.2275,-10.2489,-10.1704,-9.9777,-9.9331,-9.8117,-9.6025,-9.485,-9.3489,-9.1757,-8.9177,-8.7353,-8.6198,-8.3929,-8.178,-7.9834,-7.7854,-7.5667,-7.3396,-7.1934,-7.0804,-6.9991,-6.956,-6.9266,-6.8978,-6.8558,-6.8197,-6.7753,0.0,0.0,0.0,0.0,0.0,0.0,0.0,0.0,0.0,0.0,0.0,0.0,0.0,0.0,0.0,0.0,0.0,0.0,0.0,-4.5556,-4.8745,-5.146,-5.2001,0.0,-5.67,-5.6431,-5.693,-5.8303,-5.8593,-5.9061,-5.9771,-6.0668,-6.1689,-6.2785,-6.4164,-6.5174,-6.588,-6.5672,-6.5903,-6.6368,-6.5796,-6.5859,-6.6294,-6.6214,-6.4347,-6.1785,-6.2093,-6.0819,0.0,0.0,-5.7043,-5.8239,-5.7983,-5.8425,-5.9109,-5.9706,-5.9903,-6.0385,-6.2673,0.0,0.0,-6.8431,-7.1961,-7.5416,-7.7385,-7.8759,-8.0505,-8.3529,-8.3975,-8.4279,-8.5844,-8.6592,-8.7407,-8.8609,-9.0782,-9.2785,-9.4247,-9.5195,-9.5889,-9.6345,-9.6337,-9.7446,-10.0418,-10.131,-10.1905,-10.2314,-10.2686,-10.2609,-10.1714,-10.2112,-10.1289,-9.9181,-9.8888,-9.7635,-9.5242,-9.4219,-9.256,-9.0262,-8.7996,-8.6424,-8.5351,-8.289,-8.047,-7.8188,-7.6643,-7.4642,-7.2395,-7.1061,-7.0078,-6.9412,-6.9412,-6.9118,-6.86,-6.7626,-6.7191,-6.6807,0.0,0.0,0.0,0.0,0.0,0.0,0.0,0.0,0.0,0.0,0.0,0.0,0.0,0.0,0.0,0.0,0.0,0.0,0.0,-4.4878,-4.7632,-5.1326,-5.3008,-5.5264,-5.8365,-5.8529,-5.9709,-6.1946,-6.1079,-6.1048,-6.1848,-6.2752,-6.3624,-6.4358,-6.5408,-6.6251,-6.6918,-6.6953,-6.6953,-6.6953,-6.6953,-6.6776,-6.6393,-6.4516,-6.2586,-6.0913,-6.075,0.0,0.0,0.0,-5.3605,-5.4001,-5.5656,-5.7316,0.0,-5.9664,-5.9903,-6.0274,0.0,0.0,-6.6202,-7.1812,-7.4487,-7.7013,-8.1843,-8.2994,-8.3708,-8.601,-8.5868,-8.5799,-8.7193,-8.746,-8.8339,-9.0946,-9.2758,-9.4456,-9.626,-9.6554,-9.6591,-9.6591,-9.5923,-9.5477,0.0,-9.7817,-9.979,-10.1093,-10.1315,-10.1091,-10.071,-10.0671,-10.0225,-9.9145,-9.8337,-9.6816,-9.454,-9.2976,-9.1023,-8.8747,-8.6507,-8.5464,-8.5273,-8.2325,-7.9662,-7.738,-7.58,-7.3834,-7.1693,-7.085,-7.0078,-6.9412,-6.9412,-6.9118,-6.8531,-6.7071,-6.674,-6.6669,0.0,0.0,0.0,0.0,0.0,0.0,0.0,0.0,0.0,0.0,0.0,0.0,0.0,0.0,0.0,0.0,0.0,0.0,0.0,-4.4041,-4.6946,-4.9519,-5.2164,-5.4798,-5.7443,-5.8681,-5.9896,-6.1185,-6.1396,-6.2092,-6.3236,-6.3799,-6.4672,-6.5821,-6.6389,-6.6777,-6.7023,-6.7023,-6.7023,-6.6989,-6.681,-6.6341,-6.5756,-6.5238,-6.2322,-5.8405,0.0,0.0,0.0,0.0,0.0,0.0,-5.2431,-5.3271,-5.424,-5.6097,-5.9367,-6.2747,-6.4419,0.0,-7.0958,-7.6159,-7.9094,-8.1545,-8.4852,-8.5912,-8.6301,-8.6566,-8.5143,-8.3991,-8.4252,-8.4023,-8.4665,-8.7439,-8.9821,-9.2069,-9.4108,-9.5577,-9.6048,-9.4938,-9.5186,0.0,0.0,0.0,0.0,-9.798,-9.8391,-9.8725,-9.8978,-9.9414,-9.8733,-9.6903,-9.6571,-9.5122,-9.2249,-9.1707,-9.0042,-8.7215,-8.4513,-8.3215,-8.3144,-8.0563,-7.8644,-7.7275,-7.4677,-7.2851,-7.1622,-7.0288,-6.9621,-6.9412,-6.9412,-6.8803,-6.7835,-6.6862,-6.5769,-6.4565,0.0,0.0,0.0,0.0,0.0,0.0,0.0,0.0,0.0,0.0,0.0,0.0,0.0,0.0,0.0,0.0,0.0,0.0,0.0,0.0,-4.5173,-4.7608,-4.9965,-5.2438,-5.4953,-5.599,-5.7168,-5.8418,-5.9288,-6.0496,-6.2013,-6.3168,-6.4389,-6.5677,-6.6319,-6.6918,-6.7409,-6.7129,-6.6707,-6.6145,-6.5817,-6.4802,-6.3453,-6.2802,-6.0072,0.0,0.0,0.0,0.0,0.0,0.0,0.0,-5.1173,-5.2454,-5.4017,-5.6134,-5.9998,-6.4233,-6.7057,-7.0586,-7.4673,-7.9576,-8.2445,-8.4508,-8.6397,-8.6902,-8.6557,-8.5184,-8.3273,-8.1641,-8.108,-8.0662,-8.1399,-8.433,-8.6734,-8.9381,-9.2635,-9.4025,-9.4639,-9.4456,-9.4518,0.0,0.0,0.0,0.0,-9.6134,-9.6363,-9.6655,-9.7207,-9.7376,-9.6651,-9.4904,-9.4622,-9.326,-9.0739,-9.0165,-8.8321,-8.5277,-8.3112,-8.1945,-8.1593,-7.9522,-7.7837,-7.6432,-7.3905,-7.2219,-7.1166,-6.9902,-6.9412,-6.934,-6.906,-6.8418,-6.7417,-6.6166,-6.4797,-6.3427,0.0,0.0,0.0,0.0,0.0,0.0,0.0,0.0,0.0,0.0,0.0,0.0,0.0,0.0,0.0,0.0,0.0,0.0,0.0,0.0,0.0,-4.569,-4.6763,-4.8529,-5.1205,-5.1144,-5.21,-5.4235,-5.5247,-5.6677,-5.8562,-6.0975,-6.2783,-6.4007,-6.5128,-6.6391,-6.776,-6.6988,-6.5829,-6.4494,-6.4021,-6.2306,-5.9844,-5.7801,0.0,0.0,0.0,0.0,0.0,0.0,0.0,0.0,0.0,-5.4956,-5.8029,-5.9738,-6.2041,-6.5088,-6.9893,-7.367,-7.731,-8.2148,-8.4373,-8.5641,-8.6549,-8.6015,-8.4603,-8.2178,-8.0406,-7.8849,0.0,0.0,-7.8552,-8.1728,-8.3898,-8.6902,-9.1949,-9.2262,-9.2769,0.0,0.0,0.0,0.0,0.0,0.0,-9.5441,0.0,-9.4792,-9.525,-9.4707,-9.3982,-9.3107,-9.246,-9.1427,-8.9858,-8.8294,-8.6099,-8.3244,-8.2436,-8.1629,-8.0821,-7.9206,-7.7205,-7.4958,-7.3413,-7.1903,-7.0429,-6.9691,-6.9412,-6.9235,-6.8498,-6.7891,-6.7208,-6.5015,-6.3894,-6.3255,0.0,0.0,0.0,0.0,0.0,0.0,0.0,0.0,0.0,0.0,0.0,0.0,0.0,0.0,0.0,0.0,0.0,0.0,0.0,0.0,0.0,0.0,0.0,0.0,0.0,0.0,0.0,0.0,0.0,-5.5547,-5.6919,-5.8077,-5.9382,-6.0804,-6.1312,-6.1923,-6.247,-6.2258,-6.2068,-6.1827,0.0,-6.0639,-5.9439,0.0,0.0,0.0,0.0,0.0,0.0,0.0,0.0,0.0,0.0,-5.8545,-6.0815,-6.3676,-6.7131,-7.0809,-7.4524,-7.8351,-8.1911,-8.4378,-8.5283,-8.5487,-8.519,-8.4391,-8.2867,-7.99,-7.6697,-7.379,0.0,0.0,0.0,-7.8316,-8.278,0.0,-9.1766,-9.3894,0.0,-9.5161,0.0,-9.5,-9.2794,-9.1364,0.0,0.0,-9.1382,-9.1587,-9.2197,-9.2652,-9.1991,-9.008,-8.9828,-8.8792,-8.6687,-8.5691,-8.4862,-8.4086,-8.2155,-8.0821,-8.0014,-7.7837,-7.5941,-7.4185,-7.2641,-7.1412,-7.0429,-6.9691,-6.9024,-6.8498,-6.8287,-6.7226,-6.5746,-6.4633,-6.3201,-6.1737,0.0,0.0,0.0,0.0,0.0,0.0,0.0,0.0,0.0,0.0,0.0,0.0,0.0,0.0,0.0,0.0,0.0,0.0,0.0,0.0,0.0,0.0,0.0,0.0,0.0,0.0,0.0,0.0,0.0,0.0,0.0,-5.3974,-5.5428,-5.7112,-5.7425,-5.8083,-5.8926,0.0,0.0,0.0,0.0,0.0,0.0,0.0,0.0,0.0,0.0,0.0,0.0,0.0,0.0,-5.7478,-6.0381,-6.2401,-6.4388,-6.7652,0.0,-7.438,-7.7861,-8.1282,-8.4198,-8.5696,-8.6028,-8.5446,-8.3438,-8.1946,-7.9782,-7.537,-7.2157,0.0,-6.7096,0.0,0.0,0.0,0.0,0.0,-8.9584,-9.2423,-9.4264,0.0,-9.5391,0.0,-9.3425,-9.1625,-9.0415,0.0,-8.9793,-8.9869,-9.054,-9.0717,-9.005,-8.8409,-8.81,-8.7034,-8.5034,-8.4613,-8.4051,-8.3384,-8.1699,-8.033,-7.9206,-7.7205,-7.5274,-7.3413,0.0,-7.1061,-6.9972,-6.9551,-6.8919,-6.8145,-6.7757,-6.6454,-6.4667,-6.3483,-6.2125,-6.0703,0.0,0.0,0.0,0.0,0.0,0.0,0.0,0.0,0.0,0.0,0.0,0.0,0.0,0.0,0.0,0.0,0.0,0.0,0.0,0.0,0.0,0.0,0.0,0.0,0.0,0.0,0.0,0.0,0.0,0.0,0.0,0.0,0.0,0.0,0.0,0.0,0.0,0.0,0.0,0.0,0.0,0.0,0.0,0.0,0.0,0.0,0.0,0.0,0.0,0.0,-5.8326,-5.996,-6.4201,-6.6648,-6.8575,-7.1884,-7.4533,-7.7083,-8.0545,-8.3302,-8.5515,-8.6441,-8.6574,-8.5362,-8.1545,-7.9202,-7.6125,-7.0156,0.0,-6.5652,-6.3208,-6.4699,-6.739,-7.0568,0.0,-8.1271,-8.7036,-8.9872,-9.2257,-9.4716,-9.4259,-9.3697,-9.3515,-9.1453,-9.0017,-8.9716,-8.8936,-8.8782,-8.9563,-8.9083,-8.834,-8.7417,-8.6617,-8.5596,-8.4262,-8.4156,-8.3419,-8.2085,-8.1067,-7.9838,-7.8363,-7.6819,-7.4853,-7.2606,0.0,0.0,-6.9412,-6.9412,-6.8849,-6.797,-6.7159,-6.572,-6.3867,-6.2231,-6.1051,-6.0082,0.0,0.0,0.0,0.0,0.0,0.0,0.0,0.0,0.0,0.0,-3.9912,-3.8734,0.0,0.0,0.0,0.0,0.0,0.0,0.0,0.0,0.0,0.0,0.0,0.0,0.0,0.0,0.0,0.0,0.0,0.0,0.0,0.0,0.0,0.0,0.0,0.0,0.0,0.0,0.0,0.0,0.0,0.0,0.0,0.0,0.0,0.0,0.0,0.0,0.0,0.0,-6.2033,-6.4918,-6.92,-7.1623,-7.3593,-7.7383,-7.9709,-8.1488,-8.3301,-8.6052,-8.8104,-8.7054,-8.6275,-8.4563,-8.0052,-7.6775,0.0,0.0,-6.4741,-6.2589,-6.059,-6.2852,-6.6566,-7.1268,0.0,0.0,0.0,0.0,-9.2016,0.0,0.0,0.0,0.0,0.0,0.0,0.0,0.0,0.0,-8.8189,-8.8121,-8.7406,-8.5918,-8.4517,-8.37,-8.3419,-8.2787,-8.2331,-8.205,-7.9978,-7.8504,-7.7556,-7.6011,-7.4045,-7.1903,0.0,0.0,-6.9412,-6.9412,-6.8533,-6.7199,-6.7023,-6.5442,-6.3101,-6.2162,-6.1155,-6.0082,0.0,0.0,0.0,0.0,0.0,0.0,0.0,-4.0806,-4.2283,-4.5015,-4.3911,-4.2687,-4.2229,-4.1071,0.0,0.0,0.0,0.0,0.0,0.0,0.0,0.0,0.0,0.0,0.0,0.0,0.0,0.0,0.0,0.0,0.0,0.0,0.0,0.0,0.0,0.0,0.0,0.0,0.0,0.0,0.0,0.0,0.0,0.0,0.0,0.0,0.0,0.0,0.0,0.0,-6.1777,-6.6899,-7.1244,-7.4294,-7.6805,-7.9849,-8.2177,-8.4107,-8.5906,-8.7793,-8.9019,-8.8171,-8.6444,-8.3521,-7.8031,0.0,0.0,0.0,-6.1553,-5.9969,-5.8255,0.0,0.0,0.0,0.0,0.0,0.0,0.0,0.0,0.0,0.0,0.0,0.0,0.0,0.0,0.0,0.0,0.0,-8.6614,-8.6263,-8.5736,-8.4964,-8.3805,-8.3033,-8.2612,-8.2261,-8.1699,-8.0856,-7.9311,-7.7977,-7.6784,-7.5625,-7.3869,-7.1728,-7.1728,0.0,-6.934,-6.8954,-6.8076,-6.6917,-6.6353,-6.4602,-6.237,-6.1814,-6.0704,-5.953,0.0,0.0,0.0,0.0,0.0,0.0,0.0,-4.216,-4.3781,-4.7725,-4.8044,-4.7223,-4.5273,-4.3427,-4.1736,0.0,0.0,0.0,0.0,0.0,0.0,0.0,0.0,0.0,0.0,0.0,0.0,0.0,0.0,0.0,0.0,0.0,0.0,0.0,0.0,0.0,0.0,0.0,0.0,0.0,0.0,0.0,0.0,0.0,0.0,0.0,0.0,0.0,0.0,0.0,-6.0494,-6.6399,-7.0521,-7.4588,-7.8271,-8.0388,-8.2864,-8.5402,-8.7322,-8.8791,-8.9589,-8.8908,-8.6533,-8.2629,-7.6251,-7.1536,0.0,0.0,-5.8838,-5.779,-5.6632,0.0,0.0,0.0,0.0,0.0,0.0,0.0,0.0,0.0,0.0,0.0,0.0,0.0,0.0,0.0,0.0,0.0,-8.5491,-8.4823,-8.4402,-8.4402,-8.363,-8.2857,-8.2085,-8.1909,-8.1067,-7.9522,-7.8574,-7.7275,-7.5765,-7.4958,-7.3448,-7.1447,-7.1447,0.0,0.0,-6.8708,-6.7901,-6.6917,-6.5999,-6.4252,-6.2126,-6.1605,-6.0531,-5.9323,0.0,0.0,0.0,0.0,0.0,0.0,0.0,-4.3877,-4.6354,-5.0339,-5.1075,-5.0823,-4.9649,-4.6608,-4.3845,0.0,0.0,0.0,0.0,0.0,0.0,0.0,0.0,0.0,0.0,0.0,0.0,0.0,0.0,0.0,0.0,0.0,0.0,0.0,0.0,0.0,0.0,0.0,0.0,0.0,0.0,0.0,0.0,0.0,0.0,0.0,0.0,0.0,0.0,0.0,0.0,-6.2669,-6.5652,-7.1433,-7.739,-7.874,0.0,0.0,-8.646,-8.8943,-9.063,-8.8522,-8.6055,-8.2311,-7.5417,0.0,0.0,-5.9689,-5.7425,-5.6443,-5.6392,-5.7258,-5.9666,0.0,0.0,-7.1136,0.0,0.0,0.0,0.0,0.0,0.0,0.0,0.0,0.0,0.0,0.0,0.0,0.0,-8.4823,-8.4402,-8.4402,-8.363,-8.2857,-8.2085,-8.1383,-8.0259,-7.8679,-7.7205,-7.5695,-7.4185,-7.3378,-7.2114,-7.0604,0.0,0.0,0.0,-6.9305,-6.8392,-6.6988,-6.6882,-6.5338,-6.3065,-6.2161,-6.1224,-6.022,0.0,0.0,0.0,0.0,0.0,0.0,-4.2166,-4.2873,-4.5016,-5.0492,-5.096,-5.1094,-5.2102,-4.9906,-4.6812,-4.2925,0.0,0.0,0.0,0.0,0.0,0.0,0.0,0.0,0.0,0.0,0.0,-4.3862,-4.4388,0.0,0.0,0.0,0.0,0.0,0.0,0.0,0.0,0.0,0.0,0.0,0.0,0.0,0.0,0.0,0.0,0.0,0.0,0.0,0.0,0.0,0.0,0.0,-6.034,-6.4597,0.0,0.0,-8.007,-8.3763,-8.666,-8.8871,-9.0072,-8.8671,-8.5019,-8.0194,-7.4159,0.0,0.0,-5.8482,-5.6365,-5.5355,-5.5417,-5.5846,-5.7328,0.0,0.0,0.0,0.0,0.0,0.0,0.0,0.0,0.0,0.0,0.0,0.0,0.0,0.0,0.0,0.0,-8.384,-8.37,-8.37,-8.2928,-8.2155,-8.1383,-8.0154,-7.896,-7.7872,-7.5871,-7.4607,-7.3975,-7.2711,-7.1552,-7.0499,0.0,0.0,0.0,-6.8357,-6.7585,-6.6882,-6.5829,-6.4288,-6.2541,-6.1953,-6.0878,-5.9701,0.0,0.0,0.0,0.0,0.0,-3.9347,-4.2166,-4.2585,-4.4561,-5.0131,-5.0654,-5.1257,-5.3248,-5.154,-4.8823,-4.5425,-4.3238,0.0,0.0,0.0,0.0,0.0,0.0,0.0,0.0,0.0,-4.4267,-4.5096,-4.6222,-4.6739,0.0,0.0,0.0,0.0,0.0,0.0,0.0,0.0,0.0,0.0,0.0,0.0,0.0,0.0,0.0,0.0,0.0,0.0,0.0,0.0,0.0,0.0,0.0,0.0,0.0,0.0,-7.7094,-8.1471,-8.5329,-8.7841,-8.9081,-8.8069,-8.3903,-7.8641,0.0,0.0,-6.1605,-5.7763,-5.5756,-5.4717,-5.478,-5.4961,-5.5776,0.0,0.0,-6.0506,0.0,0.0,0.0,0.0,0.0,0.0,0.0,0.0,0.0,0.0,0.0,0.0,0.0,-8.2647,-8.2647,-8.2857,-8.2366,-8.1488,-8.0224,-7.9136,-7.7837,-7.6397,-7.4782,-7.362,-7.2844,-7.1795,-7.0845,-6.996,0.0,0.0,0.0,-6.8109,-6.7373,-6.6847,-6.5583,-6.4044,-6.2436,-6.1849,-6.0739,-5.9597,0.0,0.0,0.0,0.0,0.0,0.0,-4.2166,-4.3848,-4.605,-4.9645,-5.0862,-5.1843,-5.2975,-5.0851,-4.9458,-4.9811,-4.6294,0.0,0.0,0.0,0.0,0.0,0.0,0.0,0.0,0.0,-4.59,-4.6978,-4.8635,-4.9792,-5.0434,-5.0325,-4.9946,0.0,0.0,0.0,0.0,0.0,0.0,0.0,0.0,0.0,0.0,0.0,0.0,0.0,0.0,0.0,0.0,0.0,0.0,0.0,0.0,0.0,0.0,0.0,-7.2481,-7.7984,-8.1793,-8.553,-8.7931,-8.6316,-8.2859,-7.8316,0.0,0.0,-6.1392,-5.7598,-5.5563,-5.4557,-5.4749,-5.478,-5.5359,-5.701,0.0,0.0,0.0,0.0,0.0,0.0,0.0,0.0,0.0,0.0,0.0,0.0,0.0,0.0,0.0,-8.1348,-8.1277,-8.2085,-8.2085,-8.0961,-7.8644,-7.8609,-7.7064,-7.4045,-7.401,-7.2665,-7.0231,-7.0421,-6.9852,0.0,0.0,0.0,0.0,-6.9115,-6.8245,-6.6987,-6.6843,-6.5337,-6.3135,-6.2023,-6.112,-6.0324,0.0,0.0,0.0,0.0,0.0,0.0,0.0,-4.0869,-4.2618,-4.6633,-4.7725,-4.9248,-5.223,-5.1226,-5.0521,-5.1102,-4.7488,0.0,0.0,0.0,0.0,0.0,0.0,0.0,0.0,0.0,-4.7053,-4.8732,-5.0959,-5.2068,-5.2215,-5.2626,-5.1912,-5.0283,0.0,0.0,0.0,0.0,0.0,0.0,0.0,0.0,0.0,0.0,0.0,0.0,0.0,0.0,0.0,0.0,0.0,0.0,0.0,0.0,0.0,-6.0658,0.0,0.0,-7.4857,-7.7476,-7.9074,-7.7511,-7.5257,-7.2209,-6.7649,0.0,-6.0737,-5.746,-5.5563,-5.4667,-5.5248,-5.5063,-5.599,-5.9629,-5.9902,0.0,0.0,0.0,0.0,0.0,0.0,0.0,0.0,0.0,0.0,0.0,0.0,0.0,0.0,-8.0575,-8.0505,-8.1277,-8.0786,-7.9908,-7.8609,-7.6871,-7.5248,-7.3777,-7.201,-7.0775,-7.0004,-6.9485,0.0,0.0,0.0,0.0,0.0,-6.7738,-6.7041,-6.6556,-6.5437,-6.3938,-6.2265,-6.178,-6.0808,-5.9597,0.0,0.0,0.0,0.0,0.0,0.0,0.0,-3.9845,-4.1276,-4.4756,-4.5698,-4.7534,-5.146,-5.0958,-5.0835,-5.2227,-4.9653,0.0,0.0,0.0,0.0,0.0,0.0,0.0,0.0,-4.6389,-4.8174,-5.0549,-5.2895,-5.4315,-5.4809,-5.565,-5.474,-5.2448,-5.1595,0.0,0.0,0.0,0.0,0.0,0.0,0.0,-5.4494,0.0,0.0,0.0,0.0,0.0,0.0,0.0,0.0,0.0,0.0,0.0,0.0,0.0,-6.1085,0.0,0.0,-7.2082,-7.3649,-7.2756,-7.0965,0.0,0.0,0.0,-5.9702,-5.6909,-5.5357,-5.4736,-5.5428,-5.5107,-5.5724,-5.8837,0.0,0.0,0.0,0.0,0.0,0.0,0.0,0.0,0.0,0.0,0.0,0.0,0.0,0.0,0.0,0.0,-7.9059,-7.9465,-7.8729,-7.7859,-7.6731,-7.4816,-7.3297,-7.2245,-7.0663,-6.971,-6.932,-6.8875,0.0,0.0,0.0,0.0,0.0,-6.6748,-6.6229,-6.592,-6.4595,-6.3135,-6.1745,-6.1259,-6.0082,-5.8734,0.0,0.0,0.0,0.0,0.0,0.0,0.0,-4.0394,-4.1606,-4.3799,-4.468,-4.6629,-5.0543,-5.0107,-5.0575,-5.3084,0.0,0.0,0.0,0.0,0.0,0.0,0.0,0.0,-4.6665,-4.7458,-4.9361,-5.2395,-5.4598,-5.6438,-5.7898,-5.9047,-5.8129,-5.5443,-5.4481,-5.2969,0.0,0.0,0.0,0.0,0.0,0.0,0.0,0.0,0.0,0.0,0.0,0.0,0.0,0.0,0.0,0.0,0.0,0.0,0.0,0.0,0.0,0.0,0.0,-6.8552,0.0,0.0,0.0,0.0,0.0,-6.0978,0.0,-5.6081,-5.5012,-5.4736,-5.5563,-5.5046,-5.4839,-5.5839,0.0,0.0,0.0,0.0,0.0,0.0,0.0,0.0,0.0,0.0,0.0,0.0,0.0,0.0,0.0,0.0,-7.7116,-7.6838,-7.6034,-7.4986,-7.3692,-7.2619,-7.135,-6.9888,-6.9814,-6.9246,-6.8397,-6.852,0.0,0.0,0.0,0.0,0.0,-6.6041,-6.5702,-6.5082,-6.4104,-6.2818,-6.1398,-6.0531,-5.9254,-5.7978,0.0,0.0,0.0,0.0,0.0,0.0,0.0,0.0,0.0,0.0,-4.4378,-4.6384,-4.8561,-4.9457,-5.0577,0.0,0.0,0.0,0.0,0.0,0.0,0.0,0.0,0.0,-4.7458,-4.8769,-5.0739,-5.3362,-5.6219,-5.8352,-5.9685,-6.0861,-5.9588,-5.6285,-5.5719,-5.4129,0.0,0.0,0.0,0.0,0.0,0.0,0.0,0.0,0.0,0.0,-5.3698,-5.3729,0.0,0.0,0.0,0.0,0.0,0.0,0.0,0.0,-5.6012,-5.7357,-5.8874,0.0,-6.1668,-6.053,-6.0703,-6.0668,0.0,0.0,-5.7702,-5.5977,0.0,-5.4908,-5.6288,-5.5426,0.0,0.0,0.0,0.0,0.0,0.0,0.0,0.0,0.0,0.0,0.0,0.0,0.0,0.0,0.0,0.0,0.0,0.0,-7.5055,-7.4223,-7.2731,-7.2383,-7.338,-7.1891,-7.0625,-6.9654,-6.8907,-6.8374,-6.8162,-6.7614,0.0,0.0,0.0,0.0,-6.5849,-6.4675,-6.4125,-6.3885,-6.2466,-6.1325,-6.0497,-6.0289,-5.9599,-5.8668,0.0,0.0,0.0,0.0,0.0,0.0,0.0,0.0,0.0,0.0,0.0,0.0,0.0,0.0,0.0,0.0,0.0,0.0,0.0,0.0,0.0,0.0,0.0,0.0,-4.8734,-4.962,-5.1708,-5.5044,-5.7005,-5.9158,-6.1492,-6.1884,-6.0621,-5.7856,-5.574,-5.4036,0.0,0.0,0.0,0.0,-5.4218,0.0,0.0,0.0,0.0,0.0,-5.2873,-5.308,0.0,-5.4253,-5.4736,-5.5012,0.0,0.0,0.0,0.0,-5.5357,-5.5839,-5.615,-5.7874,-5.9357,-5.8564,-5.8668,-5.8702,-5.7564,0.0,0.0,0.0,0.0,0.0,0.0,0.0,0.0,0.0,0.0,0.0,0.0,0.0,0.0,0.0,0.0,0.0,0.0,0.0,0.0,0.0,0.0,0.0,0.0,0.0,-7.3311,-7.269,-7.1076,-7.066,-7.1613,-7.0228,-6.9352,-6.8902,-6.8024,-6.7601,-6.7566,-6.6807,0.0,0.0,0.0,0.0,-6.4292,-6.3537,-6.2984,-6.2571,-6.1466,-6.0532,-5.9771,-5.9425,-5.8494,-5.7391,0.0,0.0,0.0,0.0,0.0,0.0,0.0,0.0,0.0,0.0,0.0,0.0,0.0,0.0,0.0,0.0,0.0,0.0,0.0,0.0,0.0,0.0,0.0,-4.8838,-5.0149,-5.0293,-5.2341,-5.6415,-5.7517,-5.9678,-6.2882,-6.2915,-6.174,-5.952,-5.5761,-5.3908,0.0,0.0,0.0,0.0,-5.4253,0.0,0.0,0.0,0.0,0.0,0.0,0.0,0.0,-5.4015,-5.4704,-5.5288,-5.5426,0.0,0.0,0.0,0.0,0.0,-5.5701,-5.8116,-6.0185,-5.9495,-5.8909,-5.8288,-5.7564,0.0,0.0,0.0,0.0,0.0,0.0,0.0,0.0,0.0,0.0,0.0,0.0,0.0,0.0,0.0,0.0,0.0,0.0,0.0,0.0,0.0,0.0,0.0,0.0,0.0,0.0,-7.1509,-7.0228,-6.9431,-6.9189,-6.8438,-6.8049,-6.7911,-6.729,-6.6945,-6.6807,-6.6048,-6.5255,0.0,0.0,0.0,-6.2325,-6.233,-6.1882,-6.119,-6.0563,-5.9799,-5.8936,-5.8245,-5.7073,-5.5803,0.0,0.0,0.0,0.0,0.0,0.0,0.0,0.0,0.0,0.0,0.0,0.0,0.0,0.0,0.0,0.0,0.0,0.0,0.0,0.0,0.0,0.0,-5.1045,-5.07,-5.0942,-5.1054,-5.2619,-5.5672,-5.8536,-6.0889,-6.2722,-6.5127,-6.4043,-6.0048,-5.808,-5.615,-5.4356,-5.4356,-5.4356,-5.4356,-5.446,0.0,0.0,0.0,0.0,0.0,0.0,0.0,0.0,-5.286,-5.3473,-5.3839,-5.4494,0.0,0.0,0.0,0.0,0.0,-5.7012,-5.9288,-6.022,-5.6357,-5.577,-5.5943,0.0,0.0,0.0,0.0,0.0,0.0,0.0,0.0,0.0,0.0,0.0,0.0,0.0,0.0,0.0,0.0,0.0,0.0,0.0,0.0,0.0,0.0,0.0,0.0,0.0,0.0,0.0,-6.9751,-6.9474,-6.8749,-6.7437,-6.7881,-6.7773,-6.7152,-6.7049,-6.6669,-6.6014,-6.5255,-6.4462,0.0,0.0,-6.2324,-6.1427,-6.0947,-6.0289,-5.9596,-5.8965,-5.8266,-5.7573,-5.7272,-5.6999,-5.669,0.0,0.0,0.0,0.0,0.0,0.0,0.0,0.0,0.0,0.0,0.0,0.0,0.0,0.0,0.0,0.0,0.0,0.0,0.0,0.0,0.0,-5.2188,-5.2287,-5.2149,-5.1671,-5.2765,-5.4683,-5.7523,-6.0504,-6.2673,-6.4078,-6.3659,-6.2092,-5.9495,-5.7116,-5.5495,-5.4494,-5.4494,-5.4494,-5.4494,0.0,0.0,0.0,0.0,0.0,0.0,0.0,0.0,0.0,0.0,-5.3135,-5.4015,-5.4296,0.0,0.0,0.0,0.0,0.0,-5.4667,-5.6495,-5.7736,-5.5632,-5.7219,-5.8909,0.0,0.0,0.0,0.0,0.0,0.0,0.0,0.0,0.0,0.0,0.0,0.0,0.0,0.0,0.0,0.0,0.0,0.0,0.0,0.0,0.0,0.0,0.0,0.0,0.0,0.0,0.0,0.0,-6.8176,-6.7586,-6.7014,-6.6945,-6.6738,-6.6393,-6.5945,-6.5566,-6.5186,-6.4048,-6.3324,-6.2944,0.0,-6.1427,-6.0703,-6.0601,-5.987,-5.8826,-5.8738,-5.7964,-5.6722,-5.6053,-5.5819,-5.5718,0.0,0.0,0.0,0.0,0.0,0.0,0.0,0.0,0.0,0.0,0.0,0.0,0.0,0.0,0.0,0.0,0.0,0.0,0.0,0.0,-5.2188,-5.2188,-5.2977,-5.3287,-5.298,-5.446,-5.6741,-5.9838,-6.2475,-6.4635,-6.6229,-6.2993,-6.0843,-5.9495,-5.6598,-5.5012,-5.4494,-5.4494,-5.4494,-5.4494,0.0,0.0,0.0,0.0,0.0,0.0,0.0,0.0,0.0,0.0,0.0,0.0,0.0,0.0,0.0,-5.3914,-5.336,-5.3115,-5.3015,-5.4425,-5.5839,-5.5667,0.0,0.0,0.0,0.0,0.0,0.0,0.0,0.0,0.0,0.0,0.0,0.0,0.0,0.0,0.0,0.0,0.0,0.0,0.0,0.0,0.0,0.0,0.0,0.0,0.0,0.0,0.0,0.0,0.0,0.0,-6.7133,-6.6583,-6.6186,-6.5635,-6.5359,-6.5324,-6.4738,-6.4255,-6.3876,-6.2774,-6.2153,-6.191,-6.136,-6.0635,-5.9771,-6.0112,-5.9306,-5.7945,-5.8297,-5.7456,-5.5946,-5.5143,-5.4811,-5.4717,0.0,0.0,0.0,0.0,0.0,0.0,0.0,0.0,0.0,0.0,0.0,0.0,0.0,0.0,0.0,0.0,0.0,0.0,0.0,0.0,-5.2188,-5.2188,-5.2977,-5.4011,-5.5357,-5.5686,-5.7656,-6.1432,-6.3934,-6.6575,-6.9233,-6.5921,-6.322,-6.1047,-5.8702,-5.6495,-5.4494,-5.4494,-5.4494,-5.4494,-5.4494,0.0,0.0,0.0,0.0,0.0,0.0,0.0,0.0,0.0,0.0,0.0,0.0,0.0,-5.4532,-5.4237,-5.3235,-5.2739,-5.4805,-5.6046,-5.6529,-5.5805,-5.5874,0.0,-6.0358,-5.9426,0.0,-6.2393,0.0,0.0,0.0,0.0,0.0,0.0,0.0,0.0,0.0,0.0,0.0,0.0,0.0,0.0,0.0,0.0,0.0,0.0,0.0,0.0,0.0,0.0,0.0,0.0,0.0,-6.5979,-6.3876,-6.3772,-6.3772,-6.3772,-6.3703,-6.291,-6.153,-6.1639,-6.1224,-6.0393,-6.0635,-5.9835,-5.8349,-5.8709,-5.7929,-5.6563,-5.6711,-5.6099,-5.5092,-5.5026,-5.4776,-5.4529,0.0,0.0,0.0,0.0,0.0,0.0,0.0,0.0,0.0,0.0,0.0,0.0,0.0,0.0,0.0,0.0,0.0,0.0,0.0,0.0,-5.1459,-5.2873,-5.3253,-5.4322,-5.6322,-5.7452,-6.0081,-6.4263,-6.6135,-6.7138,-6.72,-6.3602,-6.0703,-5.8426,-5.6598,-5.5322,-5.4494,-5.4494,-5.477,-5.515,-5.4701,-5.3598,0.0,0.0,0.0,0.0,0.0,0.0,0.0,0.0,-5.1097,-5.2008,0.0,-5.3107,-5.429,-5.3169,-5.2234,-5.1671,-5.2597,-5.3952,-5.5094,-5.4785,-5.5814,0.0,0.0,-6.0562,-6.1212,-6.3621,-6.4427,0.0,0.0,0.0,0.0,0.0,0.0,0.0,0.0,0.0,0.0,0.0,0.0,0.0,0.0,0.0,0.0,0.0,0.0,0.0,0.0,0.0,0.0,0.0,0.0,-6.4693,-6.4102,-6.3208,-6.2318,-6.1496,-6.1944,-6.1875,-6.1289,-6.0911,-6.0255,-5.9426,-5.9249,-5.8519,-5.748,-5.7802,-5.7332,-5.6383,-5.6044,-5.5664,-5.5299,-5.5083,-5.493,-5.4776,0.0,0.0,0.0,0.0,0.0,0.0,0.0,0.0,0.0,0.0,0.0,0.0,0.0,0.0,0.0,0.0,0.0,0.0,0.0,-4.9286,-5.07,-5.2252,-5.3011,-5.446,-5.6736,-5.8388,-6.1292,-6.5497,-6.7256,-6.7221,-6.5428,-6.2117,-5.9599,-5.7805,-5.6012,-5.5357,-5.5563,-5.5046,-5.515,-5.5563,-5.4805,-5.3704,0.0,0.0,0.0,0.0,0.0,0.0,0.0,0.0,0.0,0.0,0.0,0.0,0.0,0.0,-5.1722,-5.136,-5.103,-5.2176,-5.3555,-5.3731,0.0,0.0,-6.0421,-6.1682,-6.314,-6.6439,-6.6541,0.0,0.0,0.0,0.0,0.0,0.0,0.0,0.0,0.0,0.0,0.0,0.0,0.0,0.0,0.0,0.0,0.0,0.0,0.0,0.0,0.0,0.0,0.0,0.0,0.0,-6.3299,-6.186,-6.0594,-5.9461,-5.9737,-5.9875,-5.9875,-5.9426,-5.8874,-5.8389,-5.8102,-5.754,-5.6808,-5.685,-5.6414,-5.5709,-5.5553,-5.5478,-5.5354,-5.5113,-5.4961,-5.4869,0.0,0.0,0.0,0.0,0.0,0.0,0.0,0.0,0.0,0.0,0.0,0.0,0.0,0.0,0.0,0.0,0.0,0.0,-4.6631,-4.8734,-4.9976,-5.0011,-5.2183,-5.4425,-5.6736,-5.8254,-6.0875,-6.4669,-6.6945,-6.6876,-6.46,-6.2324,-6.0875,-6.0047,-5.7805,-5.7219,-5.7771,-5.6253,-5.5598,-5.5531,-5.4805,-5.3952,-5.3004,0.0,0.0,0.0,0.0,0.0,0.0,0.0,-5.0509,0.0,0.0,0.0,0.0,0.0,-5.1974,-5.1955,-5.0861,-5.1268,-5.2149,0.0,0.0,0.0,-6.1801,0.0,-6.4557,-7.1591,0.0,0.0,0.0,0.0,0.0,0.0,0.0,0.0,0.0,0.0,0.0,0.0,0.0,0.0,0.0,0.0,0.0,0.0,0.0,0.0,0.0,0.0,0.0,0.0,0.0,0.0,-6.1,-5.9526,-5.8497,-5.7874,-5.7116,-5.6771,-5.6805,-5.6934,-5.6997,-5.6997,-5.7384,-5.7122,-5.6348,-5.5699,-5.5016,-5.4384,-5.5191,-5.5383,-5.5199,-5.5018,-5.49,-5.478,0.0,0.0,0.0,0.0,0.0,0.0,0.0,0.0,0.0,0.0,0.0,0.0,0.0,0.0,0.0,0.0,0.0,0.0,0.0,-4.7527,-4.8321,-4.9942,-5.1149,-5.2632,-5.4356,-5.6943,-5.984,-6.3151,-6.4876,-6.3703,-5.9909,-5.9771,-5.815,-5.5495,-5.6943,-5.6805,-5.5529,-5.5598,-5.5535,-5.5403,-5.4613,-5.3791,-5.3072,0.0,0.0,0.0,0.0,0.0,0.0,0.0,0.0,0.0,0.0,0.0,0.0,-5.0522,-5.0305,-5.0459,-5.0556,-5.1114,0.0,0.0,0.0,0.0,0.0,0.0,0.0,0.0,0.0,0.0,0.0,0.0,0.0,0.0,0.0,0.0,0.0,0.0,0.0,0.0,0.0,0.0,0.0,0.0,0.0,0.0,0.0,0.0,0.0,0.0,0.0,0.0,0.0,0.0,-5.9816,-5.8422,-5.7227,-5.6125,-5.5499,-5.5736,-5.6805,-5.6871,-5.6625,-5.62,-5.59,-5.5392,-5.4745,-5.4116,-5.3717,-5.3541,-5.3787,-5.4144,-5.4542,-5.44,-5.469,-5.4948,0.0,0.0,0.0,0.0,0.0,0.0,0.0,0.0,0.0,0.0,-4.9465,0.0,0.0,0.0,0.0,0.0,0.0,0.0,0.0,0.0,-4.7355,-4.901,-5.039,-5.2114,-5.4253,-5.6667,-5.853,-5.9771,-6.1875,-6.1047,-5.7495,-5.884,-5.8116,-5.5736,-5.8495,-5.8633,-5.6771,-5.6532,-5.6053,-5.5436,-5.4581,-5.3933,-5.3457,0.0,0.0,0.0,0.0,0.0,0.0,0.0,0.0,0.0,0.0,0.0,0.0,-4.9543,-4.9295,-4.9453,-5.0543,0.0,0.0,0.0,0.0,0.0,0.0,0.0,0.0,0.0,0.0,0.0,0.0,0.0,0.0,0.0,0.0,0.0,0.0,0.0,0.0,0.0,0.0,0.0,0.0,0.0,0.0,0.0,0.0,0.0,0.0,0.0,0.0,0.0,0.0,0.0,-5.8483,-5.685,-5.5652,-5.5023,-5.4052,-5.408,-5.4977,-5.5041,-5.4925,-5.463,-5.4386,-5.3906,-5.3258,-5.3232,-5.298,-5.2734,-5.3078,-5.3471,-5.3829,-5.3684,-5.3906,-5.4191,0.0,0.0,0.0,0.0,0.0,0.0,0.0,0.0,0.0,0.0,-4.901,-4.9252,0.0,0.0,0.0,0.0,0.0,0.0,0.0,0.0,-4.6975,-4.7775,-5.0149,-5.2705,-5.5531,-5.6978,-5.6978,-5.5497,-5.853,-5.8806,-5.6633,-5.8978,-5.9633,-5.8909,-6.1254,-6.1358,-5.9633,-5.8084,-5.657,-5.5189,-5.4475,-5.404,-5.391,-5.4008,0.0,0.0,0.0,0.0,0.0,0.0,0.0,0.0,0.0,0.0,-4.7359,-4.8613,-4.8664,-4.866,-5.05,0.0,0.0,0.0,0.0,0.0,0.0,0.0,0.0,0.0,0.0,0.0,0.0,0.0,0.0,0.0,0.0,0.0,0.0,0.0,0.0,0.0,0.0,0.0,0.0,0.0,0.0,0.0,0.0,0.0,0.0,0.0,0.0,0.0,0.0,0.0,-5.6986,-5.487,-5.3937,0.0,-5.2739,-5.2084,-5.2114,-5.2399,-5.2547,-5.2654,-5.2971,-5.2628,-5.1961,-5.2664,-5.2558,-5.1997,-5.2699,-5.3043,-5.3085,-5.2879,-5.2857,-5.2898,0.0,0.0,0.0,0.0,0.0,0.0,0.0,0.0,0.0,0.0,0.0,0.0,0.0,0.0,0.0,0.0,0.0,0.0,0.0,0.0,-4.7217,-4.8499,-5.1908,0.0,-5.5566,-5.5943,-5.5667,-5.4736,-5.7185,-5.7219,-5.5081,-5.7943,-5.8564,-5.7357,-5.9668,-5.9116,-5.6399,-5.5535,-5.4166,-5.2572,-5.2985,-5.309,-5.3026,-5.2963,-5.2386,0.0,0.0,0.0,0.0,0.0,0.0,0.0,-4.932,-4.8856,-4.7792,-4.7022,-4.7027,-4.7593,0.0,-5.0369,0.0,0.0,0.0,0.0,0.0,0.0,0.0,0.0,0.0,0.0,0.0,0.0,0.0,0.0,0.0,0.0,0.0,0.0,0.0,0.0,0.0,0.0,0.0,0.0,0.0,0.0,0.0,0.0,0.0,0.0,0.0,0.0,0.0,-5.4296,-5.4465,-5.2961,-5.199,0.0,-5.1434,-5.1356,-5.1356,-5.2156,-5.2294,-5.1996,-5.2194,-5.1821,-5.1154,-5.1294,-5.1294,-5.1154,-5.1329,-5.1751,-5.225,-5.2187,-5.2572,-5.3,0.0,0.0,0.0,0.0,0.0,0.0,0.0,0.0,0.0,0.0,0.0,0.0,0.0,0.0,0.0,0.0,0.0,0.0,0.0,0.0,0.0,0.0,0.0,0.0,0.0,0.0,0.0,-5.4494,-5.5701,-5.5667,-5.4563,-5.6874,-5.7736,-5.7426,-5.9323,-5.8668,-5.6019,-5.5197,-5.3864,-5.2398,-5.2714,-5.2819,-5.2819,-5.2853,-5.1867,-5.0407,-4.9782,0.0,0.0,0.0,0.0,0.0,0.0,0.0,-4.6932,-4.6544,-4.6651,-4.7247,0.0,0.0,0.0,0.0,0.0,0.0,0.0,0.0,0.0,0.0,0.0,0.0,0.0,0.0,0.0,0.0,0.0,0.0,0.0,0.0,0.0,0.0,0.0,0.0,0.0,0.0,0.0,0.0,0.0,0.0,0.0,0.0,0.0,0.0,-5.2739,-5.2872,-5.2726,-5.1697,-5.1131,-5.0961,-5.0676,-5.0621,-5.0766,-5.1616,-5.1958,-5.1857,-5.1618,-5.1259,-5.0873,-5.0873,-5.0873,-5.0873,-5.0873,-5.1119,-5.147,-5.147,-5.1688,-5.1885,0.0,0.0,0.0,0.0,0.0,0.0,0.0,0.0,0.0,0.0,0.0,0.0,0.0,0.0,0.0,0.0,0.0,0.0,0.0,0.0,0.0,0.0,0.0,0.0,0.0,0.0,0.0,0.0,0.0,0.0,-5.4736,-5.615,-5.7116,-5.7771,-5.8909,-5.8219,-5.6085,-5.479,-5.3423,-5.2145,-5.2127,-5.2099,-5.2067,-5.2224,-5.0936,-4.8923,-4.8387,-4.7622,-4.6946,-4.7806,0.0,0.0,0.0,0.0,-4.5805,-4.6307,-4.6443,-4.6794,0.0,0.0,0.0,0.0,0.0,0.0,0.0,0.0,0.0,0.0,0.0,0.0,0.0,0.0,0.0,0.0,0.0,0.0,0.0,0.0,0.0,0.0,0.0,0.0,0.0,0.0,0.0,0.0,0.0,0.0,0.0,0.0,-5.2401,-5.1251,-5.1657,-5.1785,-5.1458,-5.0772,-5.0549,-5.0848,-5.0424,-5.0385,-5.0641,-5.1296,-5.1682,-5.1786,-5.1154,-5.0873,-5.0873,-5.0873,-5.0803,-5.0697,-5.067,-5.0697,-5.0697,-5.0643,-5.0597,-5.0585,0.0,0.0,0.0,0.0,0.0,0.0,0.0,0.0,0.0,0.0,0.0,0.0,0.0,0.0,0.0,0.0,0.0,0.0,0.0,0.0,0.0,0.0,-5.3115,0.0,0.0,0.0,0.0,0.0,0.0,0.0,0.0,0.0,-5.684,-5.6943,-5.6426,-5.5226,-5.3447,-5.1321,-4.9576,-4.8301,-4.8807,-4.8992,-4.8992,-4.9022,-4.8694,-4.8171,-4.7631,-4.7232,-4.7092,-4.7869,-4.7543,0.0,0.0,0.0,-4.563,-4.5196,-4.497,-4.5139,0.0,0.0,0.0,0.0,0.0,0.0,0.0,0.0,0.0,0.0,0.0,0.0,0.0,0.0,0.0,0.0,0.0,0.0,0.0,0.0,0.0,0.0,0.0,0.0,0.0,0.0,0.0,0.0,0.0,0.0,0.0,-5.0777,-5.0744,-5.1217,-5.0676,-5.0432,-5.0552,-4.9957,-4.9731,-4.9909,-5.0823,-5.1367,-5.1442,-5.1828,-5.1682,-5.1049,-5.0943,-5.0873,-5.0873,-5.0873,-5.0514,-4.9855,-4.9748,-4.9775,-4.9828,-4.9587,-4.9978,-5.0557,0.0,0.0,0.0,0.0,0.0,0.0,0.0,0.0,0.0,0.0,0.0,0.0,0.0,0.0,0.0,0.0,0.0,0.0,0.0,0.0,0.0,-5.039,-5.1459,-5.2046,-5.2114,0.0,0.0,0.0,0.0,0.0,0.0,-5.5228,-5.6502,0.0,-5.6946,-5.557,-5.4171,-5.1493,-4.9742,-4.8684,-4.847,-4.8651,-4.8924,-4.8099,-4.7641,-4.7325,-4.6283,-4.579,-4.5784,-4.653,-4.6506,-4.6177,-4.6264,0.0,0.0,0.0,-4.4914,0.0,0.0,0.0,0.0,0.0,0.0,0.0,0.0,0.0,0.0,0.0,0.0,0.0,0.0,0.0,0.0,0.0,0.0,0.0,0.0,0.0,0.0,0.0,0.0,0.0,0.0,0.0,0.0,0.0,0.0,0.0,-5.0574,-5.0676,-5.0676,-5.0574,-5.027,-4.982,-4.9278,-4.9031,-4.8826,-4.87,-4.9664,-5.0244,-5.0439,-5.0976,-5.1332,-5.1505,-5.1084,-5.0627,-5.0241,-5.0697,-5.0171,-4.9082,-4.9451,-4.9346,-4.9056,-4.9299,-4.9602,-4.9923,0.0,0.0,0.0,0.0,0.0,0.0,0.0,0.0,0.0,0.0,0.0,0.0,0.0,0.0,0.0,0.0,0.0,0.0,0.0,0.0,0.0,-4.8734,-4.9597,-5.008,-5.0252,0.0,0.0,0.0,0.0,0.0,-5.477,-5.4372,-5.654,0.0,-5.7946,-5.5986,-5.455,-5.1768,-5.0227,-4.9482,-4.8094,-4.7836,-4.8216,-4.729,-4.6698,-4.6248,-4.5365,-4.4862,-4.4744,-4.5432,-4.5596,-4.549,-4.5635,-4.5568,0.0,0.0,0.0,0.0,0.0,0.0,0.0,0.0,0.0,0.0,0.0,0.0,0.0,0.0,0.0,0.0,0.0,0.0,0.0,0.0,0.0,0.0,0.0,0.0,0.0,0.0,0.0,0.0,0.0,0.0,0.0,0.0,0.0,0.0,-4.991,-5.0247,-5.0281,-4.991,-4.9571,-4.9046,-4.8319,-4.8236,-4.8089,-4.7892,-4.8709,-4.9221,-4.9536,-5.0325,-5.1045,-5.1681,-5.1119,-5.0557,-5.003,-5.0627,-5.0039,-4.8794,-4.9389,-4.9249,-4.8767,-4.8939,-4.9137,-4.9326,0.0,0.0,0.0,0.0,0.0,0.0,0.0,0.0,0.0,0.0,0.0,0.0,-4.781,-4.77,-4.6769,-4.4621,-4.438,0.0,0.0,0.0,0.0,-4.5638,-4.843,0.0,-4.7913,0.0,0.0,0.0,0.0,0.0,-5.5497,-5.4613,-5.7398,-6.2959,-5.8496,-5.5304,-5.3075,-5.0738,-4.9624,-4.9167,-4.6327,-4.5145,-4.5109,-4.5728,-4.5439,-4.4818,-4.5432,-4.5275,-4.4884,-4.549,-4.5315,-4.4952,-4.5523,-4.5196,-4.4649,0.0,0.0,0.0,0.0,0.0,0.0,0.0,0.0,0.0,0.0,0.0,0.0,0.0,0.0,0.0,0.0,0.0,0.0,0.0,0.0,0.0,0.0,0.0,0.0,0.0,0.0,0.0,0.0,0.0,0.0,0.0,0.0,0.0,-4.9326,-4.8725,-4.8659,-4.9293,-4.8119,-4.7662,-4.8112,-4.7752,-4.7685,-4.7892,-4.8653,-4.9172,-4.9536,-5.0468,-5.0908,-5.0943,-5.0908,-5.0873,-5.0838,-5.0873,-5.0336,-4.9431,-4.9366,-4.9358,-4.9307,-4.8204,-4.8411,-4.9152,0.0,0.0,0.0,0.0,0.0,0.0,0.0,0.0,0.0,0.0,0.0,0.0,0.0,-4.681,-4.588,-4.5079,-4.4113,0.0,0.0,0.0,0.0,-4.6148,-4.77,-4.8045,-4.7044,-4.7431,0.0,0.0,0.0,-4.7396,-5.1257,-5.2245,-5.4237,-5.6914,-5.6541,-5.6233,-5.5682,-5.0891,-4.9145,0.0,-4.5623,-4.5001,-4.6068,-4.4766,-4.4744,-4.5263,0.0,0.0,0.0,-4.4919,-4.4846,-4.4705,-4.4919,-4.4451,-4.3612,-4.2476,-4.2512,0.0,0.0,0.0,0.0,0.0,0.0,0.0,0.0,0.0,0.0,0.0,0.0,0.0,0.0,0.0,0.0,0.0,0.0,0.0,0.0,0.0,0.0,0.0,0.0,0.0,0.0,0.0,0.0,0.0,0.0,0.0,-4.7441,-4.7605,-4.7638,-4.7571,-4.7074,-4.6755,-4.6472,-4.6268,-4.6305,-4.6569,-4.7317,-4.8163,-4.8934,-4.9232,-4.9925,-5.0873,-5.0346,-5.0127,-5.0171,-5.0546,-4.994,-4.8775,-4.9129,-4.8998,-4.8615,-4.855,-4.8481,-4.8397,0.0,0.0,0.0,0.0,0.0,0.0,0.0,0.0,0.0,-4.4699,0.0,0.0,0.0,0.0,-4.5569,-4.5079,-4.3931,-4.3621,-4.4596,-4.4423,-4.476,-4.5768,-4.6803,-4.6975,-4.619,0.0,0.0,0.0,0.0,0.0,0.0,-5.015,-5.1726,-5.3394,-5.356,-5.4797,0.0,0.0,0.0,-5.075,0.0,0.0,-4.7563,0.0,0.0,0.0,0.0,0.0,0.0,0.0,0.0,-4.423,-4.3938,-4.347,-4.2713,-4.1124,-4.1516,0.0,-4.1144,0.0,0.0,0.0,0.0,0.0,0.0,0.0,0.0,0.0,0.0,0.0,0.0,0.0,0.0,0.0,0.0,0.0,0.0,0.0,0.0,0.0,0.0,0.0,0.0,0.0,0.0,0.0,0.0,0.0,-4.5602,-4.6057,-4.6224,-4.5924,-4.6144,-4.6036,-4.5546,-4.5451,-4.5528,-4.5812,-4.6604,-4.7482,-4.8336,-4.8451,-4.8986,-4.9898,-5.0048,-5.0084,-5.0136,-5.0457,-4.9963,-4.9044,-4.9458,-4.9271,-4.8826,-4.8903,-4.8488,-4.7927,0.0,0.0,0.0,0.0,0.0,0.0,0.0,0.0,-4.4561,-4.5294,0.0,0.0,0.0,0.0,0.0,-4.4552,-4.3724,-4.331,-4.331,-4.3966,-4.4345,-4.4345,0.0,0.0,0.0,0.0,0.0,0.0,0.0,0.0,0.0,0.0,-5.011,-5.3015,-4.9795,-5.0864,-5.5031,0.0,-5.3905,-5.3466,0.0,-4.7478,-4.9222,0.0,0.0,0.0,-4.998,-4.892,0.0,-4.5185,0.0,0.0,0.0,-4.232,-4.2044,-4.0739,-4.1342,-4.1993,0.0,0.0,0.0,0.0,0.0,0.0,0.0,0.0,0.0,0.0,0.0,0.0,0.0,0.0,0.0,0.0,0.0,0.0,0.0,0.0,0.0,0.0,0.0,0.0,0.0,0.0,0.0,0.0,0.0,-4.446,-4.3988,-4.409,-4.4334,-4.4596,-4.5219,-4.5512,-4.5371,-4.5397,-4.5528,-4.5778,-4.6569,-4.7203,-4.7719,-4.8195,-4.8188,-4.7901,-4.9916,-5.0823,-5.0838,-5.0667,-5.0537,-5.0369,-5.0228,-5.0206,-5.0074,-4.9171,-4.8439,-4.7815,0.0,0.0,0.0,0.0,0.0,0.0,-4.4768,-4.4872,-4.5156,0.0,0.0,0.0,-4.6665,-4.6596,-4.6665,-4.6769,-4.6079,-4.5665,-4.5665,-4.532,-4.5113,-4.5113,-4.6079,-4.6224,0.0,0.0,0.0,0.0,0.0,0.0,0.0,0.0,0.0,0.0,-4.8786,-4.9473,-4.9688,-4.818,0.0,-5.1363,-4.709,-4.7005,0.0,0.0,0.0,0.0,0.0,-4.8286,-4.7522,0.0,-4.6443,-4.6307,0.0,-4.2726,-4.1996,-4.0347,-4.038,-4.0629,-3.9317,0.0,0.0,0.0,0.0,0.0,0.0,0.0,0.0,0.0,0.0,0.0,0.0,0.0,0.0,0.0,0.0,0.0,0.0,0.0,0.0,0.0,0.0,0.0,0.0,0.0,0.0,0.0,-4.2714,-4.2611,-4.2642,-4.3355,-4.3977,-4.4443,-4.4774,-4.4912,-4.4872,-4.5203,-4.5226,-4.4877,-4.5161,-4.5451,-4.5684,-4.5725,-4.6393,-4.7512,-4.7493,-4.8441,-5.0066,-5.0457,-5.0537,-5.0369,-5.0228,-5.0149,-5.0034,-4.9769,-4.9211,-4.8515,0.0,0.0,0.0,0.0,0.0,-4.7217,-4.632,-4.6837,-4.7293,0.0,0.0,0.0,-4.7148,-4.7631,-4.7941,-4.7707,-4.7293,-4.6941,-4.6631,-4.5845,-4.5397,-4.5397,-4.5845,-4.588,-4.5397,0.0,0.0,0.0,0.0,0.0,0.0,0.0,0.0,0.0,0.0,0.0,0.0,0.0,0.0,0.0,-4.7168,0.0,0.0,-4.8312,-4.8436,0.0,0.0,0.0,-4.9145,-4.745,-4.6506,0.0,0.0,0.0,0.0,0.0,0.0,-4.0657,-3.9298,-3.9523,0.0,0.0,0.0,0.0,0.0,-4.3285,0.0,0.0,0.0,0.0,0.0,0.0,0.0,0.0,0.0,0.0,0.0,0.0,0.0,0.0,0.0,0.0,0.0,0.0,0.0,0.0,-4.1303,-4.1279,-4.1375,-4.2302,-4.2929,-4.3241,-4.3884,-4.4347,-4.4536,-4.5119,-4.5269,-4.5,-4.4653,-4.4501,-4.4523,-4.5056,-4.5561,-4.5965,-4.6495,-4.7302,-4.8338,-4.9328,-4.9823,-4.9917,-4.9721,-4.9579,-4.9562,-4.9873,-4.9465,-4.881,0.0,0.0,-4.8534,-4.8017,-4.8396,-4.881,-4.8913,-4.9562,-5.0045,0.0,-4.9499,-4.8879,-4.8528,-4.9459,-4.9597,-4.8293,-4.7948,-4.75,-4.6769,-4.5811,-4.5294,-4.5397,-4.5328,-4.5328,-4.5397,-4.6086,0.0,0.0,0.0,0.0,0.0,0.0,0.0,0.0,0.0,0.0,0.0,0.0,0.0,-4.8017,-4.7603,-4.8787,0.0,0.0,-5.094,-5.2406,-5.1981,-5.1685,-5.0995,-4.8277,-4.5744,0.0,0.0,0.0,0.0,0.0,-4.0809,-4.1337,-3.9794,-3.9818,-4.0558,0.0,0.0,0.0,-4.1766,-4.2144,-4.2153,0.0,0.0,0.0,0.0,0.0,0.0,0.0,0.0,0.0,0.0,0.0,0.0,0.0,0.0,0.0,0.0,0.0,-4.0792,-4.0416,-4.0355,-4.0352,-4.0289,-4.1174,-4.169,-4.1716,-4.2929,-4.3818,-4.4311,-4.4941,-4.5372,-4.5537,-4.463,-4.4048,-4.3785,-4.5086,-4.5029,-4.4047,-4.6319,-4.6926,-4.6425,-4.7681,-4.8592,-4.9117,-4.884,-4.8734,-4.8879,-4.9597,-4.9465,-4.8913,0.0,0.0,-4.8258,-4.9355,-4.912,-4.9016,-4.9666,-4.9907,-5.0218,-5.0804,-5.0769,-5.1321,-5.3011,-5.1804,-5.1011,-5.1291,-4.9637,-4.8258,-4.7534,-4.563,-4.4768,-4.5363,-4.4837,-4.4803,-4.5397,-4.5535,-4.4906,0.0,0.0,0.0,0.0,0.0,0.0,0.0,0.0,0.0,0.0,0.0,0.0,-4.3457,-4.5156,0.0,-5.0056,-4.9327,-4.9555,-5.0369,-5.0875,-5.0925,-5.0676,-4.9974,-4.7835,-4.5331,0.0,0.0,0.0,-4.2064,0.0,0.0,0.0,0.0,0.0,0.0,0.0,0.0,-4.0951,-4.16,-4.2153,0.0,0.0,0.0,0.0,0.0,0.0,0.0,0.0,0.0,0.0,0.0,0.0,0.0,0.0,0.0,0.0,0.0,-3.9776,-3.9708,-3.9449,-3.9628,-4.0341,-4.0994,-4.1733,-4.2471,-4.3006,-4.3614,-4.4311,-4.4449,-4.4518,-4.4544,-4.4325,-4.3687,-4.2706,-4.2566,-4.3022,-4.4003,-4.5727,-4.6724,-4.7136,-4.6584,-4.7117,-4.8344,-4.8255,-4.8481,-4.881,-4.8982,-4.9327,-4.9769,-4.8086,-4.8224,-4.8706,-5.0287,-5.0218,-5.0355,-5.1528,-5.2011,-5.239,-5.277,-5.2804,-5.2942,-5.3322,-5.2701,-5.2114,-5.1701,-5.0287,-4.8941,-4.7775,-4.6286,-4.5251,-4.4872,-4.4492,-4.4483,-4.4837,-4.4492,-4.394,0.0,0.0,0.0,0.0,0.0,0.0,0.0,0.0,0.0,0.0,0.0,-4.2378,-4.2216,-4.4941,0.0,-4.8321,-4.8258,-4.8919,-4.9791,-4.9412,-4.9399,-4.9496,-4.8912,-4.7937,0.0,0.0,-4.4553,-4.4181,0.0,-4.1639,-4.1365,0.0,0.0,0.0,-4.0081,0.0,0.0,0.0,-4.056,-4.0562,0.0,0.0,0.0,0.0,0.0,0.0,0.0,0.0,0.0,0.0,0.0,0.0,0.0,0.0,0.0,0.0,0.0,-3.9601,-3.9031,-3.902,-3.922,-3.9723,-4.0385,-4.0976,-4.1486,-4.224,-4.2792,-4.3172,-4.3775,-4.4111,-4.4111,-4.3752,-4.2968,-4.1916,-4.2498,-4.315,-4.3957,-4.5152,-4.6101,-4.674,-4.6155,-4.6342,-4.6995,-4.7245,-4.7499,-4.7775,-4.8534,-4.9051,-4.9459,-4.7493,-4.8086,-4.9016,-5.0395,-5.0878,-5.1597,-5.2977,-5.3804,-5.4287,-5.4287,-5.4425,-5.4046,-5.2804,-5.2977,-5.2839,-5.2046,-5.0355,-4.9079,-4.8396,-4.6837,-4.5458,-4.4345,-4.4173,-4.4104,-4.4104,-4.3517,-4.3103,-4.2965,0.0,0.0,0.0,0.0,0.0,0.0,0.0,0.0,0.0,0.0,0.0,-4.224,0.0,-4.6113,-4.6458,-4.7189,-4.8355,-4.939,-4.8148,-4.803,-4.8301,-4.7334,-4.735,-4.7253,-4.4677,-4.4491,0.0,0.0,0.0,0.0,0.0,0.0,0.0,0.0,0.0,-4.0518,0.0,0.0,0.0,0.0,0.0,0.0,0.0,0.0,0.0,0.0,0.0,0.0,0.0,0.0,0.0,0.0,0.0,0.0,0.0,0.0,-3.936,-3.8354,-3.862,-3.8901,-3.9043,-3.9803,-4.0266,-4.0421,-4.1312,-4.1861,-4.1999,-4.3005,-4.3667,-4.39,-4.3162,-4.2423,-4.1719,-4.2905,-4.3559,-4.3746,-4.4635,-4.5372,-4.6003,-4.597,-4.5914,-4.5822,-4.6246,-4.6493,-4.6769,-4.7913,-4.8568,-4.8879,-4.6734,-4.732,-4.8086,-4.8913,-5.0188,-5.139,-5.2188,-5.3011,-5.3529,-5.3529,-5.4115,-5.4425,-5.4253,-5.3115,-5.308,-5.4943,-5.0149,0.0,-5.0562,0.0,-4.3793,-4.4276,-4.3655,-4.331,-4.331,-4.3241,-4.2861,-4.2137,0.0,0.0,0.0,0.0,0.0,0.0,-4.0181,0.0,0.0,0.0,-4.1343,0.0,-4.3172,-4.4354,0.0,-4.6424,-4.7251,-4.7941,-4.7741,-4.7741,-4.7754,0.0,-4.6812,-4.6237,0.0,-4.4621,-4.3713,0.0,0.0,0.0,0.0,0.0,0.0,0.0,-4.1849,0.0,0.0,0.0,0.0,0.0,0.0,0.0,0.0,0.0,0.0,0.0,0.0,0.0,0.0,0.0,0.0,0.0,0.0,0.0,0.0,0.0,0.0,-3.7677,-3.7956,-3.8363,-3.8738,-3.9744,-4.0464,-4.0799,-4.0974,-4.1343,-4.1974,-4.2137,-4.2787,-4.3895,-4.3024,-4.2669,-4.2696,-4.2102,-4.2265,-4.2986,-4.4225,-4.4927,-4.5267,-4.566,-4.5838,-4.5787,-4.5736,-4.6055,-4.6631,-4.6803,-4.7672,-4.881,-4.6527,-4.6872,-4.7458,-4.8603,0.0,0.0,0.0,-5.2977,0.0,0.0,0.0,0.0,0.0,0.0,0.0,0.0,0.0,-4.9597,0.0,0.0,-4.6217,-4.5665,-4.4906,-4.4285,-4.3862,-4.2965,-4.2344,-4.1999,-4.1585,0.0,0.0,0.0,0.0,0.0,-4.0178,0.0,-4.045,0.0,0.0,0.0,0.0,0.0,0.0,-4.432,-4.5079,-4.5734,-4.5734,-4.6286,-4.6914,0.0,-4.5727,0.0,0.0,0.0,0.0,0.0,0.0,0.0,0.0,0.0,0.0,0.0,0.0,0.0,-4.0132,0.0,-3.8728,0.0,0.0,0.0,0.0,0.0,0.0,0.0,0.0,0.0,0.0,0.0,0.0,0.0,0.0,0.0,0.0,0.0,0.0,0.0,0.0,-3.8137,-3.8941,-3.9636,-4.0303,-4.0871,-4.0894,-4.1067,-4.1378,-4.1378,-4.1609,-4.2154,-4.1903,-4.1812,-4.1893,-4.1717,-4.1775,-4.217,-4.315,-4.3769,-4.4073,-4.4833,-4.5152,-4.5161,-4.5407,-4.5657,-4.5949,-4.6424,-4.701,-4.7638,-4.6155,-4.6113,-4.632,-4.7389,0.0,0.0,0.0,0.0,0.0,0.0,0.0,0.0,-5.5598,-5.4667,0.0,0.0,-5.308,-5.1287,0.0,0.0,-4.7638,0.0,0.0,0.0,0.0,-4.2689,-4.2137,-4.1723,0.0,0.0,0.0,0.0,0.0,0.0,0.0,-4.0182,-3.9842,0.0,0.0,-4.0876,-4.1356,-4.1616,-4.1826,-4.2827,-4.3517,-4.4,-4.4,-4.4725,-4.5466,-4.4199,-4.4411,0.0,-4.3741,0.0,0.0,0.0,0.0,0.0,-4.079,0.0,0.0,0.0,0.0,0.0,0.0,0.0,0.0,0.0,0.0,0.0,0.0,0.0,0.0,0.0,0.0,0.0,0.0,0.0,0.0,0.0,0.0,0.0,0.0,0.0,0.0,0.0,-3.7401,0.0,-3.8963,-3.9505,-4.0114,-4.0871,-4.0894,-4.0894,-4.0894,-4.0894,-4.0894,-4.0884,-4.1094,-4.1232,-4.1255,-4.1493,-4.1608,-4.1635,-4.2449,-4.287,-4.3127,-4.4216,-4.4665,-4.4684,-4.4984,-4.5225,-4.5466,-4.6052,-4.6397,-4.6769,-4.5432,-4.4872,-4.438,0.0,0.0,0.0,0.0,0.0,0.0,0.0,0.0,0.0,0.0,0.0,0.0,0.0,0.0,-5.2494,-5.3253,0.0,-4.6424,0.0,0.0,-4.4803,0.0,0.0,-4.2413,-4.0929,0.0,0.0,0.0,0.0,0.0,0.0,0.0,-4.0426,-4.1086,-4.0358,-4.0612,-4.1501,-4.0817,-4.0714,-4.1101,0.0,-4.3207,-4.3241,-4.3241,0.0,0.0,-4.303,-4.2877,0.0,0.0,0.0,0.0,0.0,0.0,0.0,0.0,0.0,0.0,-4.1347,0.0,0.0,0.0,0.0,-3.9414,0.0,0.0,0.0,0.0,0.0,-3.8347,-3.8412,0.0,0.0,0.0,0.0,0.0,0.0,0.0,0.0,0.0,0.0,0.0,0.0,-3.7515,0.0,-3.8597,-3.9324,-4.0054,-4.086,-4.0894,-4.0894,-4.0894,-4.0894,-4.0907,-4.0908,-4.1105,-4.1255,-4.1403,-4.1538,-4.1604,-4.1617,-4.2447,-4.2729,-4.2719,-4.4112,-4.4615,-4.4514,-4.4397,-4.4768,-4.5397,-4.5432,-4.5914,-4.6631,-4.4768,-4.4483,-4.4449,0.0,0.0,0.0,0.0,-5.2114,0.0,0.0,0.0,0.0,0.0,-5.8461,-5.8185,0.0,0.0,-5.4391,-5.4149,-5.1977,0.0,0.0,0.0,-4.8286,0.0,0.0,0.0,0.0,0.0,0.0,0.0,0.0,0.0,0.0,0.0,-3.9967,0.0,0.0,0.0,0.0,0.0,-4.1133,-4.1757,0.0,0.0,-4.2413,-4.2413,-4.2758,0.0,-4.2511,-4.224,-4.2115,-4.2064,-4.1375,-4.0654,-4.0892,-4.0739,0.0,0.0,0.0,-4.1302,-4.0054,0.0,0.0,0.0,0.0,0.0,0.0,0.0,0.0,0.0,0.0,-3.8408,-3.8408,-3.8205,-3.7812,0.0,0.0,0.0,0.0,0.0,0.0,0.0,0.0,0.0,-3.7408,-3.7267,-3.7685,0.0,-3.9408,-4.0043,-4.086,-4.0894,-4.0894,-4.0894,-4.0894,-4.0894,-4.0907,-4.1117,-4.1232,-4.1277,-4.1515,-4.1604,-4.1604,-4.1796,-4.1868,-4.1857,-4.2693,-4.3301,-4.3737,-4.4155,-4.4734,-4.5328,-4.4837,-4.5147,-4.5811,-4.4872,-4.4483,0.0,0.0,0.0,0.0,0.0,0.0,0.0,0.0,-5.7391,0.0,-6.0289,0.0,-5.9323,0.0,-5.7667,-5.615,-5.4598,-5.3598,0.0,-5.0361,-5.0838,0.0,0.0,0.0,0.0,0.0,0.0,-4.1601,0.0,0.0,0.0,0.0,0.0,0.0,-3.8838,0.0,-4.0113,0.0,0.0,-4.1205,0.0,0.0,-4.224,-4.1964,0.0,-4.193,-4.2309,-4.1792,-4.1522,-4.14,-4.14,-4.0945,-4.0362,-4.0362,-4.0263,-4.0138,-3.9978,-4.0349,0.0,-3.9435,-3.9505,0.0,-3.8892,0.0,0.0,0.0,0.0,0.0,0.0,0.0,-3.8408,-3.8408,-3.7894,-3.7221,0.0,-3.5363,0.0,0.0,0.0,0.0,0.0,0.0,-3.6095,-3.6763,-3.6642,-3.7102,0.0,0.0,-3.9664,-4.0446,-4.0756,-4.0894,-4.0894,-4.0894,-4.0918,-4.0976,-4.1117,-4.1232,-4.1277,-4.1515,-4.1604,-4.1604,-4.1471,-4.138,-4.137,-4.1962,-4.2431,-4.2891,-4.3301,-4.394,-4.463,-4.4665,-4.4837,-4.501,-4.5707,0.0,0.0,0.0,-4.6837,0.0,0.0,0.0,-5.5531,0.0,-5.7633,-5.9047,-5.9185,-5.9806,-5.9944,-5.915,-5.9012,-5.7736,-5.4805,-5.4563,0.0,0.0,-5.043,-4.9465,-4.5742,0.0,0.0,0.0,0.0,0.0,0.0,0.0,0.0,0.0,-4.0139,0.0,-3.7385,-3.9792,-4.012,-3.9205,-4.0429,-4.0929,-4.0963,-4.0929,0.0,-4.1895,-4.1136,-4.086,-4.0894,-4.086,-4.0765,-4.0714,-4.0714,-4.0607,-4.051,-4.051,-4.0412,-4.0213,-3.974,-3.9876,-4.0011,-3.9513,0.0,0.0,0.0,0.0,-3.9673,0.0,0.0,0.0,0.0,0.0,0.0,-3.8315,-3.7476,-3.6345,-3.5089,0.0,0.0,0.0,0.0,0.0,0.0,-3.5819,-3.577,-3.5861,-3.5721,-3.6181,0.0,0.0,0.0,-3.9664,-4.048,-4.0894,-4.0894,-4.0894,-4.0942,-4.1093,-4.114,-4.1255,-4.1403,-4.1538,-4.1604,-4.1582,-4.1448,-4.1335,-4.1256,-4.1879,-4.2096,-4.1999,-4.1999,-4.2516,-4.3414,-4.4837,-4.4941,-4.4345,-4.5622,-4.6182,-4.6837,0.0,-4.7493,-4.8534,0.0,0.0,0.0,0.0,-5.8323,-5.9668,-6.1392,-6.1254,-6.0703,-5.9944,-5.884,0.0,0.0,0.0,0.0,-5.2287,-5.2597,-5.1804,-4.97,-4.8879,0.0,-4.5423,0.0,0.0,-4.0994,0.0,0.0,0.0,0.0,0.0,-3.9371,-4.0222,-4.0529,-4.0429,-4.0778,-4.124,0.0,0.0,-4.1378,-4.1826,-4.0491,-4.0388,-4.0825,-4.0204,-4.0364,-4.0847,-4.0847,-4.0752,-4.0631,-4.0631,-4.0461,-4.0263,-4.0163,-4.0113,-3.9952,-3.9375,-3.9461,-3.9599,0.0,0.0,0.0,0.0,0.0,0.0,0.0,0.0,0.0,-3.7387,-3.6208,-3.5231,0.0,0.0,0.0,-3.5397,0.0,0.0,0.0,-3.6413,-3.6324,-3.6729,-3.6142,-3.6254,0.0,0.0,0.0,-3.9664,-4.048,-4.0894,-4.0894,-4.0894,-4.0918,-4.0942,-4.1117,-4.1232,-4.1255,-4.1493,-4.1538,-4.1448,-4.13,-4.1221,-4.114,-4.1196,-4.154,-4.1999,-4.1999,-4.2827,-4.4069,-4.4423,-4.4837,-4.4949,-4.6201,0.0,0.0,-4.901,0.0,0.0,-5.0873,0.0,0.0,-5.6633,-5.8116,0.0,-6.0392,-6.0703,-6.0392,-5.9288,-5.8392,0.0,-5.6357,0.0,0.0,-5.3425,-5.277,-5.1666,-5.0119,-4.8913,0.0,-4.5596,0.0,0.0,-4.0866,0.0,0.0,0.0,0.0,-3.9331,0.0,-3.9637,-4.0347,-4.0894,-4.0894,0.0,0.0,-4.1067,-4.117,-4.1378,-4.0146,-3.9974,-4.0377,-4.025,-4.0284,-4.0446,-4.0791,-4.0847,-4.081,-4.081,-4.0583,-4.0337,-4.0163,-4.0079,-3.9952,-3.9435,-3.9382,-3.9435,-3.9222,-3.9309,-3.9313,0.0,0.0,0.0,0.0,0.0,0.0,0.0,0.0,0.0,0.0,0.0,0.0,0.0,-3.5739,0.0,0.0,-3.6367,-3.6073,-3.6415,-3.6297,0.0,0.0,0.0,0.0,-3.9215,-4.0308,-4.0894,-4.0894,-4.0894,-4.0918,-4.1,-4.1105,-4.1163,-4.1209,-4.1346,-4.1368,-4.13,-4.1221,-4.1129,-4.107,-4.0976,-4.1136,-4.1516,-4.1516,-4.2482,-4.3793,-4.3414,-4.3904,-4.4593,-4.7375,0.0,0.0,0.0,0.0,0.0,0.0,-5.3425,0.0,-5.5529,0.0,-5.8806,-5.7874,-5.9047,-5.9323,-5.7874,0.0,-5.6909,-5.5531,-5.4667,-5.3908,-5.3287,-5.177,-5.0257,-4.881,-4.7879,-4.6389,0.0,0.0,-4.2186,-4.0476,0.0,0.0,0.0,0.0,0.0,0.0,-3.8856,-4.0027,0.0,-4.086,-4.0894,-4.0894,-4.0894,-4.0894,-4.0825,-4.0112,-3.9871,-3.9939,-4.0446,-4.0273,-3.9939,-4.0584,-4.0825,-4.0894,-4.0894,-4.0728,-4.0436,-4.0003,-3.9978,-3.9986,-3.954,-3.9382,-3.9355,-3.9651,-3.9276,-3.8898,-3.8816,-3.8821,-3.8711,0.0,0.0,0.0,0.0,0.0,0.0,0.0,0.0,0.0,0.0,0.0,0.0,0.0,0.0,0.0,-3.5869,-3.6469,0.0,0.0,0.0,0.0,0.0,-4.0101,0.0,-4.1032,0.0,-4.1011,-4.1209,-4.1128,-4.1129,-4.1186,-4.1209,-4.1209,-4.1163,-4.114,-4.1093,-4.107,-4.0976,-4.0894,-4.0894,-4.0894,-4.1826,-4.3103,-4.2344,-4.2738,-4.3652,0.0,0.0,0.0,0.0,0.0,-5.3046,-5.3804,-5.5322,-5.6219,-5.5667,-5.815,-5.9219,-5.7219,-5.7771,-5.7943,-5.7081,-5.5839,0.0,0.0,0.0,0.0,-5.2394,-5.1011,-4.9769,-4.881,-4.6845,-4.532,0.0,-4.2896,-4.1611,-4.0476,0.0,0.0,0.0,0.0,0.0,-3.8379,-3.9973,0.0,-3.9974,-4.0653,-4.0894,-4.0894,-4.0894,-4.0894,-4.0894,-4.0756,-4.0687,-4.0515,-3.9376,-3.9756,-4.0618,-4.0077,-4.0377,-4.0894,-4.0894,-4.0776,-4.0583,-4.0288,-4.0062,-3.9884,-3.9703,-3.9729,-3.9755,-3.9703,-3.9625,-3.9441,-3.9034,-3.8794,-3.8604,-3.8436,0.0,0.0,0.0,0.0,0.0,0.0,0.0,0.0,0.0,0.0,0.0,0.0,0.0,0.0,0.0,0.0,0.0,0.0,0.0,0.0,0.0,0.0,0.0,0.0,0.0,0.0,-4.185,-4.1383,-4.1175,-4.114,-4.129,-4.1267,-4.1117,-4.1093,-4.1047,-4.0918,-4.0894,-4.0894,-4.0894,-4.0894,-4.1826,-4.3138,-4.2565,-4.2482,-4.2624,0.0,0.0,0.0,0.0,0.0,0.0,0.0,-5.6391,0.0,-5.577,-5.6564,-5.684,-5.5736,-5.6288,-5.6426,-5.5667,-5.4598,-5.377,-5.3356,-5.2222,-5.1602,-5.1602,-5.0154,0.0,-4.7672,-4.5803,-4.4458,-4.3724,-4.2171,-4.0961,-4.0085,0.0,0.0,0.0,0.0,-3.8456,0.0,0.0,0.0,-3.9698,-3.9721,-4.0204,-4.086,-4.0446,-4.0549,-4.0894,-4.0894,-4.0894,-4.0722,-3.956,-3.9388,-3.9721,-3.9698,-4.025,-4.0894,-4.0894,-4.0834,-4.0631,-4.0362,-4.0263,-4.0138,-3.9781,-3.9755,-3.9781,-3.9703,-3.9599,-3.9388,-3.9094,-3.8903,-3.8711,-3.8464,-3.7858,0.0,0.0,0.0,0.0,0.0,0.0,0.0,0.0,0.0,0.0,0.0,0.0,0.0,0.0,0.0,0.0,0.0,0.0,0.0,0.0,0.0,0.0,0.0,0.0,0.0,-4.1447,-4.1185,-4.1035,-4.1,-4.1082,-4.1082,-4.1,-4.1,-4.0976,-4.0894,-4.0894,-4.0894,-4.0894,-4.0894,-4.1585,-4.2516,-4.185,-4.195,-4.2462,0.0,-5.0361,0.0,0.0,-5.3563,0.0,-5.5219,-5.6529,-5.6978,-5.577,-5.5253,-5.4874,-5.4563,-5.5046,-5.5081,-5.4356,-5.346,-5.2597,-5.1774,-5.1218,-5.0735,-5.039,-4.9189,-4.7775,-4.6148,-4.4794,-4.3552,0.0,-4.1412,-4.0342,0.0,0.0,0.0,0.0,0.0,0.0,0.0,0.0,-3.9146,-3.9664,-3.925,-3.9825,-4.0825,-4.0181,-4.0342,-4.0894,-4.0894,-4.0791,-4.0549,-3.9905,-3.9422,-3.9146,-3.956,-4.025,-4.0894,-4.0894,-4.0858,-4.0655,-4.0337,-4.0362,-4.0362,-3.991,-3.9807,-3.9833,-3.9807,-3.9599,-3.9335,-3.9067,-3.8985,-3.8876,-3.8544,-3.829,0.0,0.0,0.0,0.0,0.0,0.0,0.0,0.0,0.0,0.0,0.0,0.0,0.0,0.0,0.0,-3.7236,-3.6594,-3.8387,0.0,0.0,0.0,-4.0998,-4.1136,0.0,-4.0998,0.0,-4.1022,-4.0918,-4.0894,-4.0918,-4.0918,-4.0894,-4.0894,-4.0894,-4.0894,-4.0894,-4.0894,-4.0894,-4.0894,-4.1343,-4.193,-4.117,-4.1478,-4.2418,0.0,0.0,0.0,0.0,0.0,0.0,0.0,-5.5288,-5.5738,-5.5632,-5.6184,-5.6046,-5.4667,-5.4563,-5.4322,-5.3563,-5.2183,-5.1011,-5.0252,-5.0149,-4.9493,-4.8051,-4.7879,-4.6769,-4.4552,-4.3724,-4.224,0.0,0.0,-3.979,0.0,0.0,0.0,0.0,0.0,0.0,0.0,-3.9043,-3.9629,-3.9767,-4.0446,-4.0791,-4.0894,-4.0825,-4.0825,-4.0894,-4.0894,-4.0422,-3.9802,-3.9733,-4.0146,-4.0584,-3.9905,-4.025,-4.0894,-4.0894,-4.0871,-4.0776,-4.0263,-4.0213,-4.0263,-4.0113,-4.0163,-4.0213,-4.0087,-3.9935,-3.9677,-3.9121,-3.8898,-3.8788,-3.8761,-3.8766,-3.8711,0.0,0.0,0.0,0.0,0.0,0.0,0.0,0.0,0.0,0.0,0.0,0.0,0.0,0.0,-3.7478,-3.7409,-3.8215,-3.8663,-3.8594,0.0,-4.124,-4.1895,-4.124,0.0,-4.1895,-4.1335,-4.1023,-4.0894,-4.1023,-4.1023,-4.0894,-4.0894,-4.0894,-4.0894,-4.0894,-4.0894,-4.0894,-4.0894,-4.1343,-4.193,-4.117,-4.1354,-4.194,0.0,0.0,0.0,0.0,0.0,0.0,0.0,-5.4894,-5.4818,-5.3701,-5.4667,-5.4839,-5.3322,-5.3149,-5.2839,-5.208,-5.1045,-5.0114,-4.9327,-4.9258,-4.881,-4.7769,-4.7286,-4.6182,-4.4345,-4.3586,-4.2275,0.0,0.0,0.0,0.0,0.0,0.0,0.0,0.0,-3.803,-3.8203,-3.8767,-3.9284,-3.9698,-3.9583,-4.0066,-4.086,-4.0377,-4.048,-4.0894,-4.0894,-4.0687,-4.0446,-4.0446,-4.0284,-4.0112,-3.9802,-4.025,-4.0894,-4.0894,-4.0894,-4.0823,-4.0461,-4.051,-4.0558,-4.0213,-4.0263,-4.0313,-3.9961,-3.9833,-3.9625,-3.9121,-3.8871,-3.8788,-3.8788,-3.8788,-3.8821,0.0,0.0,0.0,0.0,0.0,0.0,0.0,0.0,0.0,0.0,0.0,0.0,0.0,0.0,0.0,-3.6766,-3.7939,0.0,-3.8594,0.0,-4.1032,-4.1343,-4.1067,-4.1067,-4.1343,-4.1114,-4.0942,-4.0894,-4.0976,-4.0942,-4.0894,-4.0894,-4.0894,-4.0894,-4.0894,-4.0894,-4.0894,-4.0894,-4.1101,-4.1309,-4.0998,-4.1101,-4.1309,-5.1338,0.0,-5.2211,0.0,-5.3987,-5.3973,-5.4079,-5.424,-5.3753,-5.2196,-5.3042,-5.3425,-5.2291,-5.2011,-5.1671,-5.1149,-5.0424,-4.9597,-4.8534,-4.8672,-4.8258,-4.7086,-4.65,0.0,-4.4,-4.3241,-4.2102,-4.0549,-4.0791,0.0,0.0,0.0,0.0,0.0,-3.8065,-3.8444,-3.8905,-3.8905,-3.9353,-4.0008,-3.9491,-3.9928,-4.086,-4.0273,-4.0411,-4.0894,-4.0894,-4.0894,-4.0894,-4.0894,-4.0515,-4.0043,-4.0043,-4.0446,-4.0894,-4.0894,-4.0894,-4.0847,-4.0583,-4.0704,-4.0776,-4.0337,-4.0362,-4.0387,-3.9935,-3.9729,-3.952,-3.9061,-3.8985,-3.8958,-3.8958,-3.8958,-3.8958,-3.898,0.0,0.0,0.0,0.0,0.0,0.0,-3.7225,-3.6672,-3.631,0.0,0.0,0.0,0.0,0.0,0.0,0.0,0.0,0.0,0.0,0.0,0.0,-4.0894,-4.0894,-4.0894,-4.0894,-4.0894,-4.0894,-4.0894,-4.0894,-4.0894,-4.0894,-4.0894,-4.0894,-4.0894,-4.0894,-4.0894,-4.0894,-4.0894,-4.0894,-4.0894,-4.0894,-4.0894,-5.1828,-5.26,-5.3063,-5.3098,-5.373,-5.3975,-5.3239,-5.2904,-5.2422,-5.1622,-5.1949,-5.2222,-5.2188,-5.1533,-5.1114,-5.1114,-5.0424,-4.9355,-4.781,-4.8396,-4.7775,0.0,0.0,-4.4734,-4.3241,-4.2447,-4.125,-3.9698,0.0,0.0,-3.8629,0.0,-3.9284,-3.8594,-3.9353,-3.9664,-3.9698,-3.9698,-4.017,-4.0894,-4.0894,-4.0894,-4.0894,-4.0894,-4.0894,-4.0894,-4.0894,-4.0894,-4.0894,-4.0894,-4.0894,-4.0894,-4.0894,-4.0894,-4.0894,-4.0894,-4.0894,-4.0847,-4.0583,-4.0704,-4.0823,-4.0558,-4.051,-4.0436,-4.0163,-3.9747,-3.9329,-3.9034,-3.9148,-3.9282,-3.9282,-3.9282,-3.9228,-3.904,0.0,0.0,0.0,0.0,0.0,0.0,-3.7387,-3.6906,-3.6366,0.0,0.0,0.0,0.0,0.0,0.0,0.0,0.0,-3.9664,-4.048,0.0,-4.0894,-4.0894,-4.0894,-4.0894,-4.0894,-4.0894,-4.0894,-4.0894,-4.0894,-4.0894,-4.0894,-4.0894,-4.0894,-4.0894,-4.0894,-4.0894,-4.0894,-4.0894,-4.0894,-4.0894,-4.0894,-4.0894,-5.1989,-5.26,-5.3127,-5.3127,-5.3472,-5.3485,-5.2488,-5.2299,-5.1843,-5.0878,-5.0703,-5.07,-5.07,-5.0942,-5.0907,0.0,-5.0149,-4.9355,0.0,-4.7913,-4.7258,-4.5466,-4.4906,-4.4207,-4.3207,-4.2413,-4.1516,-4.0515,0.0,0.0,0.0,-3.9595,-3.9319,-3.8629,-3.9353,-3.9698,-3.9733,-4.0308,-4.0687,-4.0894,-4.0894,-4.0894,-4.0894,-4.0894,-4.0894,-4.0894,-4.0894,-4.0894,-4.0894,-4.0894,-4.0894,-4.0894,-4.0894,-4.0894,-4.0894,-4.0894,-4.0894,-4.0871,-4.0799,-4.0823,-4.0871,-4.0776,-4.0631,-4.0485,-4.0412,-3.9952,-3.9599,-3.9494,-3.9362,-3.9315,-3.9315,-3.9315,-3.9335,-3.9468,-3.952,0.0,0.0,0.0,0.0,0.0,-3.7398,-3.6763,0.0,-3.6801,0.0,0.0,0.0,0.0,0.0,0.0,0.0,0.0,-4.048,0.0,-4.0894,-4.0894,-4.0894,-4.0894,-4.0894,-4.0894,-4.0894,-4.0894,-4.0894,-4.0894,-4.0894,-4.0894,-4.0894,-4.0894,-4.0894,-4.0894,-4.0894,-4.0894,-4.0894,-4.0894,-4.0894,-4.0894,-5.1927,-5.2262,-5.258,-5.258,-5.2741,-5.2679,-5.1997,-5.1676,-5.131,-5.0662,-5.0235,-5.0011,-5.0011,-5.0424,0.0,-5.0045,-4.9735,-4.9016,-4.7775,-4.7431,-4.6596,-4.5044,-4.4276,-4.3517,-4.2758,0.0,0.0,-4.0894,-4.0894,-4.0653,-4.0146,-4.0146,-3.9905,-3.9479,-3.9963,-4.0146,-4.0181,-4.0687,-4.0894,-4.0894,-4.0894,-4.0894,-4.0894,-4.0894,-4.0894,-4.0894,-4.0894,-4.0894,-4.0894,-4.0894,-4.0894,-4.0894,-4.0894,-4.0894,-4.0894,-4.0894,-4.0894,-4.0894,-4.0894,-4.0894,-4.0871,-4.0776,-4.0558,-4.0337,-4.0238,-3.9935,-3.9703,-3.9703,-3.9651,-3.9573,-3.9468,-3.952,-3.9651,-3.9833,-3.9858,-3.9783,-3.9564,0.0,0.0,0.0,0.0,0.0,0.0,-3.7594,0.0,0.0,0.0,0.0,0.0,0.0,0.0,-4.0112,-4.0653,0.0,-4.0894,-4.0894,-4.0894,-4.0894,-4.0894,-4.0894,-4.0894,-4.0894,-4.0894,-4.0894,-4.0894,-4.0894,-4.0894,-4.0894,-4.0894,-4.0894,-4.0894,-4.0894,-4.0894,-4.0894,-4.0894,-4.0894,-5.1708,-5.1708,0.0,0.0,-5.1708,0.0,-5.1708,-5.1211,-5.083,-5.0803,-5.0341,-5.004,-5.0011,-5.0011,-4.9976,-4.9942,0.0,0.0,0.0,-4.6975,-4.5906,-4.438,-4.3586,-4.2827,-4.2033,-4.1274,-4.0894,-4.0894,-4.0894,-4.0894,-4.0894,-4.0894,-4.0894,-4.0894,-4.0894,-4.0894,-4.0894,-4.0894,-4.0894,-4.0894,-4.0894,-4.0894,-4.0894,-4.0894,-4.0894,-4.0894,-4.0894,-4.0894,-4.0894,-4.0894,-4.0894,-4.0894,-4.0894,-4.0894,-4.0894,-4.0894,-4.0894,-4.0894,-4.0894,-4.0871,-4.0799,-4.0558,-4.0313,-4.0028,-3.974,-3.9722,-3.9722,-3.9688,-3.9901,-4.0037,-3.9755,-3.9935,-4.0113,-4.0113,-4.0079,-3.9733,-3.8799,0.0,0.0,0.0,0.0,0.0,0.0,-3.8629,-3.8375,0.0,0.0,0.0,0.0,0.0,-3.9376,-4.086,-4.0894,-4.0894,-4.0894,-4.0894,-4.0894,-4.0894,-4.0894,-4.0894,-4.0894,-4.0894,-4.0894,-4.0894,-4.0894,-4.0894,-4.0894,-4.0894,-4.0894,-4.0894,-4.0894,-4.0894,-4.0894,-4.0894,-4.0894,-4.0894,0.0,0.0,-5.1708,-5.1708,-5.1708,-5.1708,-5.1708,-5.1393,-5.1079,-5.083,-5.0509,-5.0235,-5.004,-5.0011,-4.9769,-4.912,-4.8913,-4.8224,-4.6975,-4.67,-4.5906,-4.438,-4.3586,-4.2827,-4.2033,-4.1274,-4.0894,-4.0894,-4.0894,-4.0894,-4.0894,-4.0894,-4.0894,-4.0894,-4.0894,-4.0894,-4.0894,-4.0894,-4.0894,-4.0894,-4.0894,-4.0894,-4.0894,-4.0894,-4.0894,-4.0894,-4.0894,-4.0894,-4.0894,-4.0894,-4.0894,-4.0894,-4.0894,-4.0894,-4.0894,-4.0894,-4.0894,-4.0894,-4.0894,-4.0752,-4.0583,-4.0534,-4.0461,-4.0217,-3.9564,-3.987,-4.0143,-3.9506,-3.9747,-4.0037,-3.9755,-3.9935,-4.0113,-4.0113,-3.9639,-3.9297,-3.9429,-3.8376,-3.7783,0.0,-3.8478,-3.8581,-3.8606,-3.9112,-3.9112,0.0,0.0,0.0,0.0,-3.9422,-3.9871,-4.086,-4.0894,-4.0894,-4.0894,-4.0894,-4.0894,-4.0894,-4.0894,-4.0894,-4.0894,-4.0894,-4.0894,-4.0894,-4.0894,-4.0894,-4.0894,-4.0894,-4.0894,-4.0894,-4.0894,-4.0894,-4.0894,-4.0894,-4.0894,-4.0894,-5.1708,-5.1708,-5.1708,-5.1708,-5.1708,-5.1708,-5.1708,-5.1479,-5.1211,-5.1052,-5.0784,-5.0481,-5.0206,-5.0291,-4.9812,-4.8424,-4.8293,-4.781,-4.6665,-4.6259,-4.5389,-4.3862,-4.3414,-4.2654,-4.1516,-4.1101,-4.0894,-4.0894,-4.0894,-4.0894,-4.0894,-4.0894,-4.0894,-4.0894,-4.0894,-4.0894,-4.0894,-4.0894,-4.0894,-4.0894,-4.0894,-4.0894,-4.0894,-4.0894,-4.0894,-4.0894,-4.0894,-4.0894,-4.0894,-4.0894,-4.0894,-4.0894,-4.0894,-4.0894,-4.0894,-4.0894,-4.0894,-4.0894,-4.0894,-4.0776,-4.0655,-4.0534,-4.0041,-3.9544,-3.932,-3.9631,-3.9836,-3.9392,-3.9939,-4.0362,-3.9961,-4.0113,-4.0152,-3.9812,-3.934,-3.8831,-3.8424,-3.8088,-3.7984,-3.8253,-3.8879,-3.9395,-3.9606,-4.0008,-3.9905,-3.9146,0.0,0.0,-3.9698,-4.0043,-4.0446,-4.0894,-4.0894,-4.0894,-4.0894,-4.0894,-4.0894,-4.0894,-4.0894,-4.0894,-4.0894,-4.0894,-4.0894,-4.0894,-4.0894,-4.0894,-4.0894,-4.0894,-4.0894,-4.0894,-4.0894,-4.0894,-4.0894,-4.0894,-4.0894,-4.0894,-5.1708,-5.1708,-5.1708,-5.1708,-5.1708,-5.1708,-5.1708,-5.1531,-5.135,-5.1324,-5.1052,-5.0749,-5.0481,-5.064,-5.0018,-4.8003,-4.781,-4.7437,-4.6493,-4.5699,-4.463,-4.3241,-4.3069,-4.2344,-4.0929,-4.0894,-4.0894,-4.0894,-4.0894,-4.0894,-4.0894,-4.0894,-4.0894,-4.0894,-4.0894,-4.0894,-4.0894,-4.0894,-4.0894,-4.0894,-4.0894,-4.0894,-4.0894,-4.0894,-4.0894,-4.0894,-4.0894,-4.0894,-4.0894,-4.0894,-4.0894,-4.0894,-4.0894,-4.0894,-4.0894,-4.0894,-4.0894,-4.0894,-4.0894,-4.0871,-4.0776,-4.0558,-3.9655,-3.8899,-3.9276,-3.944,-3.9508,-3.9371,-4.0178,-4.0752,-4.0263,-4.0387,-4.0295,-3.9549,-3.9084,-3.843,-3.7303,0.0,-3.8159,-3.8119,-3.9121,-4.0123,-4.0825,-4.0894,-4.0618,-3.9939,-4.0515,-4.0618,0.0,-4.0549,-4.0894,-4.0894,-4.0894,-4.0894,-4.0894,-4.0894,-4.0894,-4.0894,-4.0894,-4.0894,-4.0894,-4.0894,-4.0894,-4.0894,-4.0894,-4.0894,-4.0894,-4.0894,-4.0894,-4.0894,-4.0894,-4.0894,-4.0894,-4.0894,-4.0894,-4.0894,-5.1708,-5.1708,-5.1708,-5.1708,-5.1708,-5.1708,-5.1708,-5.1647,-5.1582,-5.135,-5.1272,-5.1105,-5.0749,-5.0776,-5.0152,-4.8531,-4.8365,-4.7588,-4.5699,-4.4872,-4.4104,-4.3241,-4.2551,-4.1792,-4.0929,-4.0894,-4.0894,-4.0894,-4.0894,-4.0894,-4.0894,-4.0894,-4.0894,-4.0894,-4.0894,-4.0894,-4.0894,-4.0894,-4.0894,-4.0894,-4.0894,-4.0894,-4.0894,-4.0894,-4.0894,-4.0894,-4.0894,-4.0894,-4.0894,-4.0894,-4.0894,-4.0894,-4.0894,-4.0894,-4.0894,-4.0894,-4.0894,-4.0894,-4.0894,-4.0728,-4.0558,-4.051,-4.0334,-4.0085,-3.972,-4.0169,-4.0444,-3.979,-4.0295,-4.0799,-4.051,-4.0655,-4.0645,-4.0068,-3.8885,-3.8183,-3.8531,0.0,-3.7995,-3.899,-3.986,-4.0518,-4.0871,-4.0894,-4.086,-4.0722,-4.0825,-4.086,-4.0722,-4.0825,-4.0894,-4.0894,-4.0894,-4.0894,-4.0894,-4.0894,-4.0894,-4.0894,-4.0894,-4.0894,-4.0894,-4.0894,-4.0894,-4.0894,-4.0894,-4.0894,-4.0894,-4.0894,-4.0894,-4.0894,-4.0894,-4.0894,-4.0894,-4.0894,-4.0894,-4.0894,-5.1708,-5.1708,-5.1708,-5.1708,-5.1708,-5.1708,-5.1708,-5.1708,-5.1683,-5.1556,-5.1531,-5.1251,-5.0479,-5.0548,-4.9886,-4.7994,-4.8015,-4.7483,-4.5924,-4.5032,-4.4117,-4.3266,-4.2447,-4.1654,-4.0929,-4.0894,-4.0894,-4.0894,-4.0894,-4.0894,-4.0894,-4.0894,-4.0894,-4.0894,-4.0894,-4.0894,-4.0894,-4.0894,-4.0894,-4.0894,-4.0894,-4.0894,-4.0894,-4.0894,-4.0894,-4.0894,-4.0894,-4.0894,-4.0894,-4.0894,-4.0894,-4.0894,-4.0894,-4.0894,-4.0894,-4.0894,-4.0894,-4.0894,-4.0894,-4.0704,-4.0534,-4.068,-4.0299,-3.984,-3.9721,-3.9974,-4.017,-3.9767,-4.0342,-4.0823,-4.0558,-4.0607,-4.047,-3.9783,-3.8879,0.0,0.0,-3.8185,-3.8304,-3.8863,-3.9861,-4.0558,-4.068,-4.0799,-4.0894,-4.0894,-4.0894,-4.0894,-4.0894,-4.0894,-4.0894,-4.0894,-4.0894,-4.0894,-4.0894,-4.0894,-4.0894,-4.0894,-4.0894,-4.0965,-4.1047,-4.1047,-4.1047,-4.1047,-4.1047,-4.1012,-4.0894,-4.0894,-4.0894,-4.0894,-4.0894,-4.0894,-4.0894,-4.0894,-4.0894,-4.0894,-5.1708,-5.1708,-5.1708,-5.1708,-5.1708,-5.1708,-5.1708,-5.1708,-5.1637,-5.1458,-5.1422,-5.1027,-5.0019,-5.0122,-4.9468,-4.7692,-4.7734,-4.7439,-4.6361,-4.5218,-4.4206,-4.3306,-4.2299,-4.1481,-4.0929,-4.0894,-4.0894,-4.0894,-4.0894,-4.0894,-4.0894,-4.0894,-4.0894,-4.0894,-4.0894,-4.0894,-4.0894,-4.0894,-4.0894,-4.0894,-4.0894,-4.0894,-4.0894,-4.0894,-4.0894,-4.0894,-4.0894,-4.0894,-4.0894,-4.0894,-4.0894,-4.0894,-4.0894,-4.0894,-4.0894,-4.0894,-4.0894,-4.0894,-4.0894,-4.0889,-4.0861,-4.0881,-4.0418,-3.998,-4.0169,-4.0215,-4.0284,-4.0457,-4.0998,-4.1374,-4.1146,-4.0984,-4.0651,-3.9963,0.0,0.0,0.0,-3.8647,-3.8942,-3.8942,-4.0009,-4.0715,-4.0583,-4.0776,-4.0894,-4.0894,-4.0894,-4.0894,-4.0894,-4.0894,-4.0894,-4.0894,-4.0894,-4.0894,-4.0894,-4.0894,-4.0894,-4.0894,-4.0894,-4.1012,-4.1209,-4.1209,-4.1232,-4.13,-4.1232,-4.1117,-4.0965,-4.0918,-4.0894,-4.0894,-4.0894,-4.0894,-4.0894,-4.0894,-4.0894,-4.0894,-5.1708,-5.1708,-5.1708,-5.1708,-5.1708,-5.1708,-5.1708,-5.1708,-5.1422,-5.0709,-5.0602,-5.0256,-4.9447,-4.94,-4.9043,-4.82,-4.8152,-4.7701,-4.6625,-4.5151,-4.4073,-4.3495,-4.1877,-4.0963,-4.0894,-4.0894,-4.0894,-4.0894,-4.0894,-4.0894,-4.0894,-4.0894,-4.0894,-4.0894,-4.0894,-4.0894,-4.0894,-4.0894,-4.0894,-4.0894,-4.0894,-4.0894,-4.0894,-4.0894,-4.0894,-4.0894,-4.0894,-4.0894,-4.0894,-4.0894,-4.0894,-4.0894,-4.0894,-4.0894,-4.0894,-4.0894,-4.0894,-4.0894,-4.0894,-4.1388,-4.1733,-4.1067,-4.1354,-4.1802,-4.1836,-4.1826,-4.2068,-4.2792,-4.3,-4.3034,-4.3009,-4.2388,-4.1773,-4.1458,0.0,0.0,-3.9538,-3.98,-3.9986,-3.9986,-4.0891,-4.137,-4.0892,-4.0871,-4.0894,-4.0894,-4.0894,-4.0894,-4.0894,-4.0894,-4.0894,-4.0894,-4.0894,-4.0894,-4.0894,-4.0894,-4.0894,-4.0894,-4.0894,-4.1012,-4.1209,-4.1209,-4.1323,-4.156,-4.13,-4.1186,-4.1163,-4.0989,-4.0894,-4.0894,-4.0894,-4.0894,-4.0894,-4.0894,-4.0894,-4.0894,-5.1708,-5.1708,-5.1708,-5.1708,-5.1708,-5.1708,-5.1708,-5.128,-5.0852,-5.053,-5.0066,-4.9495,-4.871,-4.8744,-4.8491,-4.7725,-4.7787,-4.7441,-4.6431,-4.5169,-4.3748,-4.2161,-4.1324,-4.0894,-4.0894,-4.0894,-4.0894,-4.0894,-4.0894,-4.0894,-4.0894,-4.0894,-4.0894,-4.0894,-4.0894,-4.0894,-4.0894,-4.0894,-4.0894,-4.0894,-4.0894,-4.0894,-4.0894,-4.0894,-4.0894,-4.0894,-4.0894,-4.0894,-4.0894,-4.0894,-4.0894,-4.0894,-4.0894,-4.0894,-4.0894,-4.0894,-4.0894,-4.0894,-4.0894,-4.1101,-4.124,-4.0963,-4.1101,-4.1261,-4.1091,-4.1067,-4.1258,-4.1835,-4.198,-4.2168,-4.2766,-4.2654,-4.2474,-4.2574,0.0,-4.1409,-4.1328,-4.1257,-4.1069,-4.0572,-4.1035,-4.1154,-4.07,-4.0799,-4.0894,-4.0894,-4.1343,-4.1378,-4.0929,-4.0894,-4.0894,-4.0894,-4.0894,-4.0894,-4.0894,-4.1035,-4.1071,-4.1071,-4.1267,-4.1448,-4.1635,-4.1635,-4.1679,-4.1766,-4.1679,-4.1547,-4.1413,-4.138,-4.1335,-4.1335,-4.1335,-4.13,-4.1185,-4.1117,-4.1013,-4.092,-5.1833,-5.1833,-5.1858,-5.192,-5.1632,-5.1439,-5.1439,-5.076,-5.0152,-4.9901,-4.9447,-4.8849,-4.8119,-4.8169,-4.8019,-4.7399,-4.7472,-4.7183,-4.6198,-4.4821,-4.3209,-4.1267,-4.1012,-4.0894,-4.0894,-4.0894,-4.0894,-4.0894,-4.0894,-4.0894,-4.0894,-4.0894,-4.0894,-4.0894,-4.0894,-4.0756,-4.0549,-4.0791,-4.0756,-4.0549,-4.0791,-4.0894,-4.0894,-4.0894,-4.0894,-4.0894,-4.0894,-4.0894,-4.0894,-4.0894,-4.0894,-4.0894,-4.0894,-4.0894,-4.0894,-4.0894,-4.0894,-4.0894,-4.0894,-4.0894,-4.0894,-4.0894,-4.1067,-4.1168,-4.0901,-4.0852,-4.0982,-4.1451,-4.1542,-4.1782,-4.2552,-4.2706,-4.2809,-4.3156,-4.3021,-4.2757,-4.2471,-4.2382,-4.2045,-4.1148,-4.1557,-4.1537,-4.0686,-4.1006,-4.117,-4.0929,-4.1378,-4.1447,-4.0929,-4.0894,-4.0894,-4.0894,-4.0894,-4.0894,-4.0894,-4.1059,-4.114,-4.1209,-4.1368,-4.1613,-4.1895,-4.1895,-4.1938,-4.2002,-4.1917,-4.1809,-4.1692,-4.1626,-4.1604,-4.1604,-4.1604,-4.1547,-4.1455,-4.1368,-4.123,-4.1115,-5.2018,-5.2066,-5.2162,-5.2361,-5.1548,-5.0879,-5.0879,-5.0196,-4.9405,-4.8614,-4.8648,-4.8511,-4.7787,-4.7699,-4.7657,-4.7529,-4.7385,-4.6916,-4.6032,-4.397,-4.2321,-4.1244,-4.1012,-4.0894,-4.0894,-4.0894,-4.0894,-4.0894,-4.0894,-4.0894,-4.0894,-4.0894,-4.0894,-4.0894,-4.0894,-4.0422,-3.9767,-4.0549,-4.0446,-3.9767,-4.0584,-4.0894,-4.0894,-4.0894,-4.0894,-4.0894,-4.0894,-4.0894,-4.0894,-4.0894,-4.0894,-4.0894,-4.0894,-4.0894,-4.0894,-4.0894,-4.0894,-4.0894,-4.0894,-4.0894,-4.0894,-4.0894,-4.1447,-4.1926,-4.1654,-4.1604,-4.1733,-4.2189,-4.2306,-4.2385,-4.2646,-4.2698,-4.2834,-4.3156,-4.3207,-4.3072,-4.2783,-4.3117,-4.2969,-4.1758,-4.2649,-4.2736,-4.1064,-4.1585,-4.1688,-4.0963,-4.0894,-4.0894,-4.0929,-4.0894,-4.0894,-4.0894,-4.0894,-4.0894,-4.0894,-4.0894,-4.1012,-4.1209,-4.1209,-4.1458,-4.1895,-4.1895,-4.2044,-4.2287,-4.2002,-4.1895,-4.1874,-4.1692,-4.1604,-4.1604,-4.1604,-4.1604,-4.1604,-4.1604,-4.1604,-4.156,-5.1414,-5.146,-5.1483,-5.1552,-5.0855,-5.0281,-5.0281,-4.9595,-4.8981,-4.8728,-4.8323,-4.7932,-4.7735,-4.7845,-4.7891,-4.785,-4.732,-4.6091,-4.4106,-4.2772,-4.185,-4.1209,-4.1012,-4.0894,-4.0894,-4.1059,-4.1094,-4.1094,-4.1312,-4.1403,-4.1403,-4.1186,-4.1094,-4.1094,-4.0377,-4.0215,-4.048,-3.9629,-3.979,-4.0515,-4.0204,-4.0411,-4.0894,-4.0894,-4.0894,-4.0894,-4.0894,-4.0894,-4.0894,-4.0894,-4.0894,-4.0894,-4.0894,-4.0894,-4.0894,-4.0894,-4.0894,-4.0894,-4.0894,-4.0894,-4.0894,-4.0894,-4.1067,-4.1168,-4.0866,-4.0669,-4.0705,-4.1163,-4.1117,-4.1418,-4.2915,-4.2785,-4.2746,-4.3786,-4.3966,-4.3864,-4.3544,-4.4087,-4.4197,-4.3253,-4.3003,-4.2774,-4.2561,-4.1723,-4.1343,-4.1654,-4.1205,-4.1136,-4.1654,-4.117,-4.0894,-4.0894,-4.0894,-4.0894,-4.0894,-4.1059,-4.1232,-4.1458,-4.1613,-4.1852,-4.2184,-4.2184,-4.2225,-4.2287,-4.2225,-4.2184,-4.2184,-4.2121,-4.21,-4.21,-4.21,-4.21,-4.2079,-4.1852,-4.1788,-4.1709,-5.083,-5.0875,-5.0933,-5.1042,-5.0264,-4.9691,-4.9691,-4.9001,-4.8457,-4.8457,-4.8141,-4.7947,-4.7947,-4.8032,-4.8111,-4.8072,-4.6911,-4.5413,-4.3605,-4.2527,-4.1809,-4.16,-4.1368,-4.1186,-4.1175,-4.1323,-4.1391,-4.1346,-4.1538,-4.1604,-4.1604,-4.1413,-4.1346,-4.1346,-4.0608,-4.0239,-4.01,-3.933,-3.9388,-3.9963,-3.9767,-4.0181,-4.0894,-4.0894,-4.0894,-4.0894,-4.0894,-4.0894,-4.0894,-4.0894,-4.0894,-4.0894,-4.0894,-4.0894,-4.0894,-4.0894,-4.0894,-4.0894,-4.0894,-4.1101,-4.1343,-4.1343,-4.1136,-4.0868,-4.0812,-4.0442,-4.0189,-4.0568,-4.0519,-4.0933,-4.2645,-4.2855,-4.3076,-4.4105,-4.4311,-4.426,-4.4018,-4.405,-4.3852,-4.3169,-4.286,-4.2603,-4.2319,-4.1723,-4.1412,-4.155,-4.117,-4.1101,-4.155,-4.1136,-4.0894,-4.0894,-4.0894,-4.0894,-4.0894,-4.1035,-4.1186,-4.1436,-4.1569,-4.1809,-4.2163,-4.2163,-4.2205,-4.2308,-4.2308,-4.2308,-4.2308,-4.2308,-4.2308,-4.2308,-4.2308,-4.2308,-4.2287,-4.2142,-4.2044,-4.1966,-5.0305,-5.0347,-5.041,-5.0652,-4.9834,-4.9106,-4.9106,-4.8506,-4.8032,-4.8032,-4.819,-4.8306,-4.8306,-4.8306,-4.8267,-4.8097,-4.6303,-4.4795,-4.4019,-4.2844,-4.2169,-4.2216,-4.1945,-4.1766,-4.1692,-4.1723,-4.1701,-4.1626,-4.1648,-4.167,-4.167,-4.1648,-4.1626,-4.1626,-4.1253,-4.0374,-3.919,-3.9501,-3.9284,-3.8836,-3.9457,-4.0181,-4.0894,-4.0894,-4.0894,-4.0894,-4.0894,-4.0894,-4.0894,-4.0894,-4.0894,-4.0894,-4.0894,-4.0894,-4.0894,-4.0894,-4.0894,-4.0894,-4.0894,-4.1447,-4.2033,-4.2102,-4.1619,-4.1154,-4.1333,-4.0841,-4.0383,-4.0588,-4.0585,-4.0982,-4.2252,-4.2969,-4.3571,-4.4199,-4.4242,-4.4207,-4.4207,-4.3357,-4.2595,-4.2157,-4.2405,-4.2218,-4.1216,-4.1654,-4.1688,-4.0963,-4.0894,-4.0894,-4.0894,-4.0894,-4.0894,-4.0894,-4.0894,-4.0894,-4.0894,-4.0894,-4.1012,-4.1209,-4.1209,-4.1458,-4.1895,-4.1895,-4.2058,-4.2308,-4.2308,-4.2308,-4.2308,-4.2308,-4.2308,-4.2308,-4.2308,-4.2308,-4.2308,-4.2308,-4.2308,-4.2267,-4.9711,-4.9788,-4.9808,-4.9848,-4.9111,-4.8485,-4.8485,-4.8339,-4.8229,-4.8229,-4.8267,-4.8306,-4.8306,-4.8306,-4.803,-4.7387,-4.5642,-4.4101,-4.292,-4.2665,-4.2498,-4.2358,-4.2394,-4.2369,-4.2302,-4.2016,-4.1852,-4.1831,-4.2058,-4.2142,-4.2142,-4.1917,-4.1831,-4.1809,-4.0784,-4.0478,-4.0629,-3.9363,-3.9445,-4.0377,-3.9871,-4.0181,-4.0894,-4.0894,-4.0894,-4.0894,-4.0894,-4.0894,-4.0894,-4.0894,-4.0894,-4.0894,-4.0894,-4.0894,-4.0894,-4.0894,-4.0894,-4.0894,-4.0894,-4.1447,-4.2171,-4.2792,-4.2827,-4.2699,-4.2746,-4.2432,-4.2202,-4.2441,-4.2244,-4.243,-4.3786,-4.3503,-4.3383,-4.4309,-4.3869,-4.3448,-4.3448,-4.326,-4.3062,-4.2965,-4.2467,-4.2305,-4.2689,-4.2275,-4.1688,-4.0963,-4.0894,-4.0894,-4.0894,-4.0894,-4.0894,-4.0894,-4.0894,-4.0894,-4.0894,-4.0894,-4.1012,-4.1209,-4.1209,-4.1458,-4.1895,-4.1895,-4.2058,-4.2308,-4.2308,-4.2308,-4.2308,-4.2308,-4.2308,-4.2308,-4.2308,-4.2308,-4.2308,-4.2308,-4.2308,-4.2287,-4.8947,-4.8967,-4.8967,-4.8967,-4.86,-4.8306,-4.8306,-4.8306,-4.8306,-4.8306,-4.8306,-4.8306,-4.8306,-4.8306,-4.7976,-4.7186,-4.5808,-4.4563,-4.3594,-4.3099,-4.2768,-4.2616,-4.2593,-4.253,-4.2405,-4.2205,-4.21,-4.21,-4.2246,-4.2308,-4.2287,-4.2163,-4.21,-4.2044,-4.1227,-4.0831,-4.0809,-3.9616,-3.9595,-4.0284,-3.9871,-4.0181,-4.0894,-4.0894,-4.0894,-4.0894,-4.0894,-4.0894,-4.0894,-4.0894,-4.0894,-4.0894,-4.0894,-4.0894,-4.0894,-4.0894,-4.0894,-4.0894,-4.0894,-4.1723,-4.2689,-4.3103,-4.3724,-4.4096,-4.346,-4.3074,-4.298,-4.3194,-4.3288,-4.3623,-4.4733,-4.4483,-4.4328,-4.4846,-4.3982,-4.3207,-4.3207,-4.2551,-4.2102,-4.2102,-4.1723,-4.1654,-4.2068,-4.1723,-4.1343,-4.0929,-4.0894,-4.0894,-4.0894,-4.0894,-4.0894,-4.0894,-4.0894,-4.0894,-4.0894,-4.0894,-4.0942,-4.1082,-4.1082,-4.13,-4.178,-4.178,-4.1973,-4.2308,-4.2308,-4.2308,-4.2308,-4.2308,-4.2308,-4.2308,-4.2308,-4.2308,-4.2308,-4.2308,-4.2308,-4.2308,-4.8344,-4.8344,-4.8344,-4.8325,-4.8325,-4.8325,-4.8306,-4.8306,-4.8306,-4.8306,-4.8306,-4.8306,-4.8306,-4.8196,-4.7773,-4.6966,-4.6029,-4.5223,-4.471,-4.3615,-4.2957,-4.2956,-4.2746,-4.255,-4.2348,-4.2308,-4.2308,-4.2308,-4.2308,-4.2308,-4.2308,-4.2308,-4.2308,-4.2287,-4.1823,-4.1253,-4.0635,-4.0134,-3.9905,-3.9905,-3.9905,-4.0284,-4.0894,-4.0894,-4.0894,-4.0894,-4.0894,-4.0894,-4.0894,-4.0894,-4.0894,-4.0894,-4.0894,-4.0894,-4.0894,-4.0894,-4.0894,-4.0929,-4.1067,-4.2137,-4.3241,-4.3345,-4.4389,-4.5093,-4.3926,-4.3597,-4.363,-4.3807,-4.4259,-4.4801,-4.5607,-4.5615,-4.5528,-4.5622,-4.438,-4.3345,-4.3207,-4.2102,-4.1205,-4.0929,-4.0894,-4.0894,-4.0894,-4.0894,-4.0894,-4.0894,-4.0894,-4.0894,-4.0894,-4.0894,-4.0894,-4.0894,-4.0894,-4.0894,-4.0894,-4.0894,-4.0894,-4.0894,-4.0918,-4.1175,-4.1604,-4.1604,-4.1866,-4.2308,-4.2308,-4.2308,-4.2308,-4.2308,-4.2308,-4.2308,-4.2308,-4.2308,-4.2308,-4.2308,-4.2308,-4.2308,-4.8569,-4.8569,-4.855,-4.8476,-4.8476,-4.8438,-4.8306,-4.8306,-4.8306,-4.8306,-4.8306,-4.8306,-4.8306,-4.7663,-4.6929,-4.614,-4.5297,-4.4747,-4.462,-4.3815,-4.3269,-4.3086,-4.2898,-4.2688,-4.257,-4.2389,-4.2308,-4.2308,-4.2308,-4.2308,-4.2308,-4.2308,-4.2308,-4.2287,-4.1823,-4.1534,-4.1442,-4.0932,-4.0756,-4.0756,-4.0756,-4.0791,-4.0894,-4.0894,-4.0894,-4.0894,-4.0894,-4.0894,-4.0894,-4.0894,-4.0894,-4.0894,-4.0894,-4.0894,-4.0894,-4.0894,-4.0894,-4.1032,-4.1688,-4.2516,-4.3345,-4.4,-4.4768,-4.5283,-4.4885,-4.5121,-4.549,-4.577,-4.5979,-4.6312,-4.7061,-4.65,-4.6063,-4.6533,-4.5226,-4.3931,-4.3276,-4.3034,-4.2378,-4.1067,-4.0894,-4.0894,-4.0894,-4.0894,-4.0894,-4.0894,-4.0894,-4.0894,-4.0894,-4.0894,-4.0894,-4.0894,-4.0894,-4.0894,-4.0894,-4.0894,-4.0894,-4.0894,-4.1071,-4.13,-4.1604,-4.1604,-4.1866,-4.2308,-4.2308,-4.2308,-4.2308,-4.2308,-4.2308,-4.2308,-4.2308,-4.2308,-4.2308,-4.2308,-4.2308,-4.2308,-4.8624,-4.8624,-4.8605,-4.855,-4.855,-4.8532,-4.8476,-4.8476,-4.8458,-4.8438,-4.8033,-4.7702,-4.7645,-4.6911,-4.6287,-4.592,-4.5149,-4.4673,-4.4674,-4.3869,-4.3305,-4.3104,-4.2937,-4.2746,-4.2546,-4.2465,-4.2384,-4.2308,-4.2308,-4.2308,-4.2308,-4.2308,-4.2037,-4.1624,-4.159,-4.1424,-4.1124,-4.0978,-4.0965,-4.1082,-4.0942,-4.0894,-4.0894,-4.0894,-4.0965,-4.1071,-4.1244,-4.129,-4.129,-4.129,-4.129,-4.129,-4.129,-4.1198,-4.1151,-4.1602,-4.1611,-4.1712,-4.2583,-4.3331,-4.3922,-4.441,-4.4941,-4.5371,-4.5264,-4.5649,-4.5995,-4.597,-4.6277,-4.6577,-4.6748,-4.6675,-4.6569,-4.6661,-4.6071,-4.532,-4.4527,-4.3724,-4.262,-4.1101,-4.1274,-4.1343,-4.0929,-4.0894,-4.0894,-4.0894,-4.0894,-4.0894,-4.0894,-4.0894,-4.0894,-4.0894,-4.0894,-4.0894,-4.0894,-4.0894,-4.0965,-4.1047,-4.1163,-4.1346,-4.1604,-4.1736,-4.1973,-4.2308,-4.2308,-4.2308,-4.2308,-4.2308,-4.2308,-4.2308,-4.2308,-4.2308,-4.2308,-4.2308,-4.2308,-4.2308]},{"header":{"parameterUnit":"m.s-1","parameterCategory":1,"la1":30.6,"la2":28.766,"lo1":-90.7593,"lo2":-88.6598,"dy":0.0162,"dx":0.0183,"nx":116,"ny":114,"refTime":"2023-06-12T06:00:00:Z","depth":0,"parameterNumber":3,"parameterNumberName":"V-component_of_WINDS"},"data":[0.0,0.0,0.0,0.0,0.0,0.0,0.0,0.0,0.0,0.0,0.0,0.0,0.0,0.0,0.0,0.0,0.0,0.0,0.0,0.0,0.0,0.0,0.0,0.0,0.0,0.0,0.0,0.0,0.0,0.0,0.0,0.0,0.0,0.0,0.0,0.0,0.0,0.0,0.0,0.0,0.0,0.0,0.0,0.0,0.0,0.0,0.0,0.0,0.0,0.0,0.0,0.0,0.0,0.0,0.0,0.0,0.0,0.0,0.0,0.0,0.0,0.0,0.0,0.0,0.0,0.0,0.0,0.0,0.0,0.0,0.0,0.0,0.0,0.0,0.0,0.0,0.0,0.0,0.0,0.0,0.0,0.0,0.0,0.0,0.0,0.0,0.0,0.0,0.0,0.0,0.0,0.0,0.0,0.0,0.0,0.0,0.0,0.0,0.0,0.0,0.0,0.0,0.0,0.0,0.0,0.0,0.0,0.0,0.0,0.0,0.0,0.0,0.0,0.0,0.0,0.0,0.0,0.0,0.0,0.0,0.0,0.0,0.0,0.0,0.0,0.0,0.0,0.0,0.0,0.0,0.0,0.0,0.0,0.0,0.0,0.0,0.0,0.0,0.0,0.0,0.0,0.0,0.0,0.0,0.0,0.0,0.0,0.0,0.0,0.0,0.0,0.0,0.0,0.0,0.0,0.0,0.0,0.0,0.0,0.0,0.0,0.0,0.0,0.0,0.0,0.0,0.0,0.0,0.0,0.0,0.0,0.0,0.0,0.0,0.0,0.0,0.0,0.0,0.0,0.0,0.0,0.0,0.0,0.0,0.0,0.0,0.0,0.0,0.0,0.0,0.0,0.0,0.0,0.0,0.0,0.0,0.0,0.0,0.0,0.0,0.0,0.0,0.0,0.0,0.0,0.0,0.0,0.0,0.0,0.0,0.0,0.0,0.0,0.0,0.0,0.0,0.0,0.0,0.0,0.0,0.0,0.0,0.0,0.0,0.0,0.0,0.0,0.0,0.0,0.0,0.0,0.0,0.0,0.0,0.0,0.0,0.0,0.0,0.0,0.0,0.0,0.0,0.0,0.0,0.0,0.0,0.0,0.0,0.0,0.0,0.0,0.0,0.0,0.0,0.0,0.0,0.0,0.0,0.0,0.0,0.0,0.0,0.0,0.0,0.0,0.0,0.0,0.0,0.0,0.0,0.0,0.0,0.0,0.0,0.0,0.0,0.0,0.0,0.0,0.0,0.0,0.0,0.0,0.0,0.0,0.0,0.0,0.0,0.0,0.0,0.0,0.0,0.0,0.0,0.0,0.0,0.0,0.0,0.0,0.0,0.0,0.0,0.0,0.0,0.0,0.0,0.0,0.0,0.0,0.0,0.0,0.0,0.0,0.0,0.0,0.0,0.0,0.0,0.0,0.0,0.0,0.0,0.0,0.0,0.0,0.0,0.0,0.0,0.0,0.0,0.0,0.0,0.0,0.0,0.0,0.0,0.0,0.0,0.0,0.0,0.0,0.0,0.0,0.0,0.0,0.0,0.0,0.0,0.0,0.0,0.0,0.0,0.0,0.0,0.0,0.0,0.0,0.0,0.0,0.0,0.0,0.0,0.0,0.0,0.0,0.0,0.0,0.0,0.0,0.0,0.0,0.0,0.0,0.0,0.0,0.0,0.0,0.0,0.0,0.0,0.0,0.0,0.0,0.0,0.0,0.0,0.0,0.0,0.0,0.0,0.0,0.0,0.0,0.0,0.0,0.0,0.0,0.0,0.0,0.0,0.0,0.0,0.0,0.0,0.0,0.0,0.0,0.0,0.0,0.0,0.0,0.0,0.0,0.0,0.0,0.0,0.0,0.0,0.0,0.0,0.0,0.0,0.0,0.0,0.0,0.0,0.0,0.0,0.0,0.0,0.0,0.0,0.0,0.0,0.0,0.0,0.0,0.0,0.0,0.0,0.0,0.0,0.0,0.0,0.0,0.0,0.0,0.0,0.0,0.0,0.0,0.0,0.0,0.0,0.0,0.0,0.0,0.0,0.0,0.0,0.0,0.0,0.0,0.0,0.0,0.0,0.0,0.0,0.0,0.0,0.0,0.0,0.0,0.0,0.0,0.0,0.0,0.0,0.0,0.0,0.0,0.0,0.0,0.0,0.0,0.0,0.0,0.0,0.0,0.0,0.0,0.0,0.0,0.0,0.0,0.0,0.0,0.0,0.0,0.0,0.0,0.0,0.0,0.0,0.0,0.0,0.0,0.0,0.0,0.0,0.0,0.0,0.0,0.0,0.0,0.0,0.0,0.0,0.0,0.0,0.0,0.0,0.0,0.0,0.0,0.0,0.0,0.0,0.0,0.0,0.0,0.0,0.0,0.0,0.0,0.0,0.0,0.0,0.0,0.0,0.0,0.0,0.0,0.0,0.0,0.0,0.0,0.0,0.0,0.0,0.0,0.0,0.0,0.0,0.0,0.0,0.0,0.0,0.0,0.0,0.0,0.0,0.0,0.0,0.0,0.0,0.0,0.0,0.0,0.0,0.0,0.0,0.0,0.0,0.0,0.0,0.0,0.0,0.0,0.0,0.0,0.0,0.0,0.0,0.0,0.0,0.0,0.0,0.0,0.0,0.0,0.0,0.0,0.0,0.0,0.0,0.0,0.0,0.0,0.0,0.0,0.0,0.0,0.0,0.0,0.0,0.0,0.0,0.0,0.0,0.0,0.0,0.0,0.0,0.0,0.0,0.0,0.0,0.0,0.0,0.0,0.0,0.0,0.0,0.0,0.0,0.0,0.0,0.0,0.0,0.0,0.0,0.0,0.0,0.0,0.0,0.0,0.0,0.0,0.0,0.0,0.0,0.0,0.0,0.0,0.0,0.0,0.0,0.0,0.0,0.0,0.0,0.0,0.0,0.0,0.0,0.0,0.0,0.0,0.0,0.0,0.0,0.0,0.0,0.0,0.0,0.0,0.0,0.0,0.0,0.0,0.0,0.0,0.0,0.0,0.0,0.0,0.0,0.0,0.0,0.0,0.0,0.0,0.0,0.0,0.0,0.0,0.0,0.0,0.0,0.0,0.0,0.0,0.0,0.0,0.0,0.0,0.0,0.0,0.0,0.0,0.0,0.0,0.0,0.0,0.0,0.0,0.0,0.0,0.0,0.0,0.0,0.0,0.0,0.0,0.0,0.0,0.0,0.0,0.0,0.0,0.0,0.0,0.0,0.0,0.0,0.0,0.0,0.0,0.0,0.0,0.0,0.0,0.0,0.0,0.0,0.0,0.0,0.0,0.0,0.0,0.0,0.0,0.0,0.0,0.0,0.0,0.0,0.0,0.0,0.0,0.0,0.0,0.0,0.0,0.0,0.0,0.0,0.0,0.0,0.0,0.0,0.0,0.0,0.0,0.0,0.0,0.0,0.0,0.0,0.0,0.0,0.0,0.0,0.0,0.0,0.0,0.0,0.0,0.0,0.0,0.0,0.0,0.0,0.0,0.0,0.0,0.0,0.0,0.0,0.0,0.0,0.0,0.0,0.0,0.0,0.0,0.0,0.0,0.0,0.0,0.0,0.0,0.0,0.0,0.0,0.0,0.0,0.0,0.0,0.0,0.0,0.0,0.0,0.0,0.0,0.0,0.0,0.0,0.0,0.0,0.0,0.0,0.0,0.0,0.0,0.0,0.0,0.0,0.0,0.0,0.0,0.0,0.0,0.0,0.0,0.0,0.0,0.0,0.0,0.0,0.0,0.0,0.0,0.0,0.0,0.0,0.0,0.0,0.0,0.0,0.0,0.0,0.0,0.0,0.0,0.0,0.0,0.0,0.0,0.0,0.0,0.0,0.0,0.0,0.0,0.0,0.0,0.0,0.0,0.0,0.0,0.0,0.0,0.0,0.0,0.0,0.0,0.0,0.0,0.0,0.0,0.0,0.0,0.0,0.0,0.0,0.0,0.0,0.0,0.0,0.0,0.0,0.0,0.0,0.0,0.0,0.0,0.0,0.0,0.0,0.0,0.0,0.0,0.0,0.0,0.0,0.0,0.0,0.0,0.0,0.0,0.0,0.0,0.0,0.0,0.0,0.0,0.0,0.0,0.0,0.0,0.0,0.0,0.0,0.0,0.0,0.0,0.0,0.0,0.0,0.0,0.0,0.0,0.0,0.0,0.0,0.0,0.0,0.0,0.0,0.0,0.0,0.0,0.0,0.0,0.0,0.0,0.0,0.0,0.0,0.0,0.0,0.0,0.0,0.0,0.0,0.0,0.0,0.0,0.0,0.0,0.0,0.0,0.0,0.0,0.0,0.0,0.0,0.0,0.0,0.0,0.0,0.0,0.0,0.0,0.0,0.0,0.0,0.0,0.0,0.0,0.0,0.0,0.0,0.0,0.0,0.0,0.0,0.0,0.0,0.0,0.0,0.0,0.0,0.0,0.0,0.0,0.0,0.0,0.0,0.0,0.0,0.0,0.0,0.0,0.0,0.0,0.0,0.0,0.0,0.0,0.0,0.0,0.0,0.0,0.0,0.0,0.0,0.0,0.0,0.0,0.0,0.0,0.0,0.0,0.0,0.0,0.0,0.0,0.0,0.0,0.0,0.0,0.0,0.0,0.0,0.0,0.0,0.0,0.0,0.0,0.0,0.0,0.0,0.0,0.0,0.0,0.0,0.0,0.0,0.0,0.0,0.0,0.0,0.0,0.0,0.0,0.0,0.0,0.0,0.0,0.0,0.0,0.0,0.0,0.0,0.0,0.0,0.0,0.0,0.0,0.0,0.0,0.0,0.0,0.0,0.0,0.0,0.0,0.0,0.0,0.0,0.0,0.0,0.0,0.0,0.0,0.0,0.0,0.0,0.0,0.0,0.0,0.0,0.0,0.0,0.0,0.0,0.0,0.0,0.0,0.0,0.0,0.0,0.0,0.0,0.0,0.0,0.0,0.0,0.0,0.0,0.0,0.0,0.0,0.0,0.0,0.0,0.0,0.0,0.0,0.0,0.0,0.0,0.0,0.0,0.0,0.0,0.0,0.0,0.0,0.0,0.0,0.0,0.0,0.0,0.0,0.0,0.0,0.0,0.0,0.0,0.0,0.0,0.0,0.0,0.0,0.0,0.0,0.0,0.0,0.0,0.0,0.0,0.0,0.0,0.0,0.0,0.0,0.0,0.0,0.0,0.0,0.0,0.0,0.0,0.0,0.0,0.0,0.0,0.0,0.0,0.0,0.0,0.0,0.0,0.0,0.0,0.0,0.0,0.0,0.0,0.0,0.0,0.0,0.0,0.0,0.0,0.0,0.0,0.0,0.0,0.0,0.0,0.0,0.0,0.0,0.0,0.0,0.0,0.0,0.0,0.0,0.0,0.0,0.0,0.0,0.0,0.0,0.0,0.0,0.0,0.0,0.0,0.0,0.0,0.0,0.0,0.0,0.0,0.0,0.0,0.0,0.0,0.0,0.0,0.0,0.0,0.0,0.0,0.0,0.0,0.0,0.0,0.0,0.0,0.0,0.0,0.0,0.0,0.0,0.0,0.0,0.0,0.0,0.0,0.0,0.0,0.0,0.0,0.0,0.0,0.0,0.0,0.0,0.0,0.0,0.0,0.0,0.0,0.0,0.0,0.0,0.0,0.0,0.0,0.0,0.0,0.0,0.0,0.0,0.0,0.0,0.0,0.0,0.0,0.0,0.0,0.0,0.0,0.0,0.0,0.0,0.0,0.0,0.0,0.0,0.0,0.0,0.0,0.0,0.0,0.0,0.0,0.0,0.0,0.0,0.0,0.0,0.0,0.0,0.0,0.0,0.0,0.0,0.0,0.0,0.0,0.0,0.0,0.0,0.0,0.0,0.0,0.0,0.0,0.0,0.0,0.0,0.0,0.0,0.0,0.0,0.0,0.0,0.0,0.0,0.0,0.0,0.0,0.0,0.0,0.0,0.0,0.0,0.0,0.0,0.0,0.0,0.0,0.0,0.0,0.0,0.0,0.0,0.0,0.0,0.0,0.0,0.0,0.0,0.0,0.0,0.0,0.0,0.0,0.0,0.0,0.0,0.0,0.0,0.0,0.0,0.0,0.0,0.0,0.0,0.0,0.0,0.0,0.0,0.0,0.0,0.0,0.0,0.0,0.0,0.0,0.0,-2.1569,0.0,0.0,0.0,0.0,0.0,0.0,0.0,0.0,0.0,0.0,0.0,0.0,0.0,0.0,0.0,0.0,0.0,0.0,0.0,0.0,0.0,0.0,0.0,0.0,0.0,0.0,0.0,0.0,0.0,0.0,0.0,0.0,0.0,0.0,0.0,0.0,0.0,0.0,0.0,0.0,0.0,0.0,0.0,0.0,0.0,0.0,0.0,0.0,0.0,0.0,0.0,0.0,0.0,0.0,0.0,0.0,0.0,0.0,0.0,0.0,0.0,0.0,0.0,0.0,0.0,0.0,0.0,0.0,0.0,0.0,0.0,0.0,0.0,0.0,0.0,0.0,0.0,0.0,0.0,0.0,0.0,0.0,0.0,0.0,0.0,0.0,0.0,0.0,0.0,0.0,0.0,0.0,0.0,0.0,0.0,0.0,0.0,0.0,0.0,0.0,0.0,0.0,0.0,0.0,0.0,0.0,0.0,0.0,0.0,0.0,0.0,0.0,0.0,0.0,0.0,0.0,-2.2767,0.0,0.0,0.0,0.0,0.0,0.0,0.0,0.0,0.0,0.0,0.0,0.0,0.0,0.0,0.0,0.0,0.0,0.0,0.0,0.0,0.0,0.0,0.0,0.0,0.0,0.0,0.0,0.0,0.0,0.0,0.0,0.0,0.0,0.0,0.0,0.0,0.0,0.0,0.0,0.0,0.0,0.0,0.0,0.0,0.0,0.0,0.0,0.0,0.0,0.0,0.0,0.0,0.0,0.0,0.0,0.0,0.0,0.0,0.0,0.0,0.0,0.0,0.0,0.0,0.0,0.0,0.0,0.0,0.0,0.0,0.0,0.0,0.0,0.0,0.0,0.0,0.0,0.0,0.0,0.0,0.0,0.0,0.0,0.0,0.0,0.0,0.0,0.0,0.0,0.0,0.0,0.0,0.0,0.0,0.0,0.0,0.0,0.0,0.0,0.0,0.0,0.0,0.0,0.0,0.0,0.0,0.0,0.0,-2.4437,-2.5276,-2.6451,-2.6121,-2.6175,-2.6426,-2.5157,-2.4557,-2.4526,0.0,0.0,0.0,0.0,0.0,0.0,0.0,0.0,0.0,0.0,0.0,0.0,0.0,0.0,0.0,0.0,0.0,0.0,0.0,0.0,0.0,0.0,0.0,0.0,0.0,0.0,0.0,0.0,0.0,0.0,0.0,0.0,0.0,0.0,0.0,0.0,0.0,0.0,0.0,-1.8618,-1.7988,-1.7683,-1.7701,-1.7031,0.0,0.0,0.0,0.0,0.0,0.0,0.0,0.0,0.0,0.0,0.0,0.0,0.0,0.0,0.0,0.0,0.0,0.0,0.0,0.0,0.0,0.0,0.0,0.0,0.0,0.0,0.0,0.0,0.0,0.0,0.0,0.0,0.0,0.0,0.0,0.0,0.0,0.0,0.0,0.0,0.0,0.0,0.0,-1.4194,-1.5721,0.0,0.0,0.0,0.0,0.0,0.0,0.0,0.0,0.0,0.0,0.0,0.0,0.0,-2.3325,-2.3826,-2.5248,-2.61,-2.6352,-2.7298,-2.8102,-2.8598,-2.8558,-2.8545,-2.8604,-2.8163,0.0,-2.5371,-2.5168,0.0,0.0,0.0,0.0,0.0,0.0,0.0,0.0,0.0,0.0,0.0,0.0,0.0,0.0,0.0,0.0,0.0,0.0,0.0,0.0,0.0,0.0,0.0,0.0,0.0,0.0,0.0,0.0,0.0,0.0,0.0,0.0,0.0,0.0,0.0,0.0,-2.1364,-2.0401,-1.9754,-1.8713,-1.831,-1.8368,-1.7889,-1.7716,-1.7674,-1.7329,0.0,0.0,0.0,0.0,0.0,0.0,0.0,0.0,0.0,0.0,0.0,0.0,0.0,0.0,0.0,0.0,0.0,0.0,0.0,0.0,0.0,0.0,0.0,0.0,0.0,0.0,0.0,0.0,0.0,0.0,0.0,0.0,0.0,0.0,0.0,0.0,0.0,0.0,0.0,-1.3612,-1.4988,-1.5812,-1.699,-1.7822,0.0,0.0,0.0,0.0,0.0,0.0,0.0,0.0,0.0,-2.2831,-2.4109,-2.5083,-2.5765,-2.7053,-2.7995,-2.8396,-2.9063,-2.9741,-3.0515,-3.0341,-3.0274,-3.0247,-2.9793,-2.891,-2.7731,-2.6633,-2.6182,-2.619,0.0,0.0,0.0,0.0,-2.7703,-2.8918,0.0,0.0,0.0,0.0,0.0,0.0,0.0,0.0,0.0,0.0,0.0,0.0,0.0,0.0,0.0,-3.3451,0.0,0.0,0.0,0.0,0.0,0.0,0.0,0.0,0.0,0.0,0.0,0.0,-2.242,-2.1629,-2.0522,-1.9483,-1.8894,-1.875,-1.8823,-1.8587,-1.8152,-1.8,-1.7347,0.0,0.0,0.0,0.0,0.0,0.0,0.0,0.0,0.0,0.0,0.0,0.0,0.0,0.0,0.0,0.0,0.0,0.0,0.0,0.0,0.0,0.0,0.0,0.0,0.0,0.0,0.0,0.0,0.0,0.0,0.0,0.0,0.0,0.0,0.0,0.0,0.0,0.0,-1.5129,-1.6281,-1.6363,-1.7997,-1.8806,0.0,0.0,0.0,0.0,0.0,0.0,-2.1039,-2.1742,-2.3053,-2.4951,-2.6097,-2.7206,-2.8216,-2.9169,-2.982,-3.0333,-3.0623,-3.1101,-3.1664,-3.1517,-3.141,-3.1303,-3.0728,-3.0181,-2.9628,-2.788,-2.706,-2.6819,-2.6673,-2.7208,-2.8086,-2.7921,-2.8858,-3.0259,0.0,0.0,0.0,0.0,0.0,0.0,0.0,0.0,0.0,0.0,0.0,0.0,0.0,0.0,-3.3593,-3.7198,-3.5927,-3.4947,0.0,0.0,0.0,0.0,0.0,0.0,0.0,0.0,0.0,-2.3632,-2.2964,-2.1896,-2.0482,-2.0306,-1.9539,-1.8456,-1.9261,-1.9747,-1.9822,-1.848,-1.791,-1.7823,0.0,0.0,0.0,0.0,0.0,0.0,0.0,0.0,0.0,0.0,0.0,0.0,0.0,0.0,0.0,0.0,0.0,0.0,0.0,0.0,0.0,0.0,0.0,0.0,0.0,0.0,0.0,0.0,0.0,0.0,0.0,0.0,0.0,0.0,0.0,0.0,0.0,0.0,0.0,-1.8314,-2.1101,0.0,0.0,0.0,0.0,-2.0626,-2.1101,-2.2041,-2.3295,-2.4459,-2.6048,-2.8123,-2.935,-3.0529,-3.1594,-3.2107,-3.2278,-3.2011,-3.2318,-3.2185,-3.1677,-3.1944,-3.1904,-3.161,-3.1022,-3.0595,-3.0181,-2.8449,-2.7418,-2.6878,-2.6033,-2.6417,-2.7504,-2.7174,-2.8436,-3.0364,0.0,0.0,0.0,0.0,0.0,0.0,0.0,0.0,0.0,0.0,0.0,0.0,0.0,0.0,0.0,0.0,-3.9012,-3.8182,-3.5815,0.0,0.0,0.0,0.0,0.0,0.0,0.0,-2.4647,-2.5127,-2.3805,-2.2817,-2.2062,-2.0617,-1.9716,-1.9283,-1.9393,-1.9638,-1.9886,-1.9228,-1.8445,-1.7647,-1.7385,-1.7213,0.0,0.0,0.0,0.0,0.0,0.0,0.0,0.0,0.0,0.0,0.0,0.0,0.0,0.0,0.0,0.0,0.0,0.0,0.0,0.0,0.0,0.0,0.0,0.0,0.0,0.0,0.0,0.0,0.0,0.0,0.0,0.0,0.0,0.0,0.0,0.0,0.0,-2.0538,-2.2925,0.0,-2.1491,-2.2148,-2.2799,-2.32,-2.3696,-2.4642,-2.6094,-2.6496,-2.7611,-2.9453,-3.0095,-3.0932,-3.2038,-3.2629,-3.2585,-3.2104,-3.2211,-3.2051,-3.1677,-3.1784,-3.177,-3.1637,-3.1049,-3.0742,-3.0528,-2.9138,-2.8395,-2.8158,-2.7629,-2.8359,-2.9501,-2.9105,-3.0341,-3.2216,0.0,0.0,0.0,0.0,0.0,0.0,0.0,0.0,0.0,0.0,0.0,0.0,0.0,0.0,0.0,0.0,0.0,-3.9364,-3.6466,0.0,0.0,0.0,0.0,0.0,0.0,-2.5397,-2.5574,-2.5961,-2.4409,-2.317,-2.2305,-2.0611,-1.9622,-1.9208,-1.9252,-1.944,-1.9615,-1.9603,-1.9048,-1.8043,-1.8058,-1.8197,-1.8293,0.0,0.0,0.0,0.0,0.0,0.0,0.0,0.0,0.0,0.0,0.0,0.0,0.0,0.0,0.0,0.0,0.0,0.0,0.0,0.0,0.0,0.0,0.0,0.0,0.0,0.0,0.0,0.0,0.0,0.0,0.0,0.0,0.0,0.0,0.0,-2.3272,-2.236,-2.4642,-2.5535,-2.3591,-2.4339,-2.523,-2.5662,-2.6262,-2.7055,-2.831,-2.8338,-2.922,-3.0953,-3.12,-3.1768,-3.2794,-3.3081,-3.2933,-3.2251,-3.2345,-3.2144,-3.1677,-3.177,-3.165,-3.1356,-3.0955,-3.0621,-3.0287,-2.9513,-2.9001,-2.8648,-2.8235,-2.8914,-3.0038,-2.9821,-3.0914,-3.271,0.0,0.0,0.0,0.0,0.0,0.0,0.0,0.0,0.0,0.0,0.0,0.0,0.0,0.0,0.0,0.0,0.0,-3.8238,-3.7015,-3.3787,0.0,0.0,0.0,0.0,-2.5586,-2.5993,-2.6157,-2.605,-2.4733,-2.3047,-2.1132,-2.0283,-1.9249,-1.8121,-1.8944,-1.9238,-1.9132,-1.9664,-1.9642,-1.9237,-1.863,-1.909,-2.0041,0.0,0.0,0.0,0.0,0.0,0.0,0.0,0.0,0.0,0.0,0.0,0.0,0.0,0.0,0.0,0.0,0.0,0.0,0.0,0.0,0.0,0.0,0.0,0.0,0.0,0.0,0.0,0.0,0.0,0.0,0.0,0.0,0.0,-2.099,-2.3651,-2.5131,-2.3934,-2.649,-2.7579,-2.5718,-2.7053,-2.7977,-2.8077,-2.8665,-2.9296,-2.9812,-3.0151,-3.1022,-3.2671,-3.2749,-3.3123,-3.3895,-3.3881,-3.3427,-3.2643,-3.2826,-3.2505,-3.1677,-3.1957,-3.161,-3.0795,-3.0795,-3.0301,-2.9499,-2.9472,-2.8951,-2.8167,-2.7509,-2.7953,-2.89,-2.8886,-2.9897,-3.1561,0.0,0.0,0.0,0.0,0.0,0.0,0.0,0.0,0.0,0.0,0.0,0.0,0.0,0.0,0.0,0.0,0.0,0.0,-3.6599,0.0,0.0,0.0,0.0,0.0,-2.6512,-2.6408,-2.6179,-2.5764,-2.3911,-2.2763,-2.2139,-2.0493,-1.9675,-1.9532,-1.9294,-1.9369,-1.9742,-2.0086,-2.068,-2.1243,-2.0081,-2.006,-2.063,0.0,0.0,0.0,0.0,0.0,0.0,0.0,0.0,0.0,0.0,0.0,0.0,0.0,0.0,0.0,0.0,0.0,0.0,0.0,0.0,0.0,0.0,0.0,0.0,0.0,0.0,0.0,0.0,0.0,0.0,0.0,0.0,-2.3573,-2.3552,-2.518,-2.6558,-2.7122,-2.8662,-2.9379,-2.8632,-2.9139,-2.9753,-3.0153,-3.0222,-3.0505,-3.1521,-3.1656,-3.2096,-3.3151,-3.3085,-3.3235,-3.3881,-3.3654,-3.3213,-3.2643,-3.2625,-3.2318,-3.1677,-3.1757,-3.1423,-3.0795,-3.0795,-3.0408,-2.9766,-2.9339,-2.8764,-2.8194,-2.7722,-2.7866,-2.8259,-2.8032,-2.9416,-3.1606,0.0,0.0,0.0,0.0,0.0,0.0,0.0,0.0,0.0,0.0,0.0,0.0,0.0,0.0,0.0,0.0,0.0,0.0,0.0,0.0,0.0,0.0,0.0,-2.8047,-2.708,-2.6965,-2.6576,-2.6001,-2.4154,-2.293,-2.2134,-2.0784,-1.9953,-1.9628,-1.9499,-1.9732,-2.016,-2.0717,-2.1564,-2.2396,-2.1713,-2.1621,-2.181,-2.0342,-2.0042,-2.0316,-1.9203,-1.9257,-1.9706,-1.8738,0.0,0.0,0.0,0.0,0.0,0.0,0.0,0.0,0.0,0.0,0.0,0.0,0.0,0.0,0.0,0.0,0.0,0.0,0.0,0.0,0.0,0.0,0.0,0.0,-2.358,-2.5141,-2.5977,-2.7062,-2.8111,-2.9176,-3.0011,-3.0593,-3.0653,-3.0832,-3.1116,-3.165,-3.1486,-3.1821,-3.2676,-3.2706,-3.3079,-3.3983,-3.3823,-3.3978,-3.4255,-3.3948,-3.3494,-3.2906,-3.2666,-3.2305,-3.1837,-3.1597,-3.1169,0.0,-3.0608,-3.014,-2.9339,-2.9005,-2.843,0.0,0.0,0.0,0.0,0.0,-3.0485,-3.2489,0.0,0.0,0.0,0.0,0.0,0.0,0.0,0.0,0.0,0.0,0.0,0.0,0.0,0.0,0.0,0.0,0.0,0.0,0.0,0.0,0.0,-2.8387,-2.7776,-2.7377,-2.7305,-2.7344,-2.7029,-2.6496,-2.4849,-2.323,-2.1644,-2.1135,-2.0257,-1.9173,-1.9875,-2.0298,-2.0505,-2.1462,-2.2228,-2.2876,-2.3085,-2.3271,-2.314,-2.0975,-2.0896,-2.1658,-1.9843,-1.9499,-1.9802,-1.8613,0.0,0.0,0.0,0.0,0.0,0.0,0.0,0.0,0.0,0.0,0.0,0.0,0.0,0.0,0.0,0.0,0.0,0.0,0.0,0.0,0.0,0.0,0.0,0.0,-2.4806,-2.6327,-2.8089,-2.9004,-2.9689,-3.0189,-3.0769,-3.1288,-3.1807,-3.1879,-3.2097,-3.2592,-3.2628,-3.2871,-3.3443,0.0,0.0,0.0,0.0,-3.4794,-3.4776,-3.4429,-3.3988,-3.34,-3.2826,-3.2482,-3.2366,-3.1584,-3.0995,-3.0627,-3.0445,-2.9713,-2.8657,-2.8617,-2.8056,-2.7215,-2.7175,-2.7323,-2.779,-3.033,-3.2173,-3.3473,0.0,0.0,0.0,0.0,0.0,0.0,0.0,0.0,0.0,0.0,0.0,0.0,0.0,0.0,0.0,0.0,0.0,0.0,0.0,0.0,-2.9343,-2.8778,-2.868,-2.8134,-2.6938,-2.6429,-2.6084,-2.577,-2.4118,-2.2871,-2.1973,-2.1916,-2.1167,-1.9952,-2.1111,-2.1345,-2.0838,-2.1871,-2.2623,-2.3138,-2.2998,-2.323,-2.3581,-2.2632,-2.215,-2.184,-2.1025,-2.1052,-2.1333,-2.0134,-1.9811,-1.9717,-1.8551,0.0,0.0,0.0,0.0,0.0,0.0,0.0,0.0,0.0,0.0,0.0,0.0,0.0,0.0,0.0,0.0,0.0,0.0,0.0,0.0,-2.4446,-2.6206,-2.7775,-2.9006,-2.9879,-3.0472,-3.0793,-3.1324,-3.1771,-3.2097,-3.2314,-3.2555,-3.2881,-3.2917,-3.3101,-3.3418,-3.4133,0.0,-3.4369,-3.4885,-3.5005,-3.4763,-3.4242,-3.3788,-3.34,0.0,0.0,-3.3788,-3.2055,-3.1536,-3.2124,-3.0899,-2.982,-2.8938,-2.8711,-2.7936,-2.6881,-2.6653,-2.6573,-2.7004,-3.016,-3.1085,-3.13,0.0,0.0,0.0,0.0,0.0,0.0,0.0,0.0,0.0,0.0,0.0,0.0,0.0,0.0,0.0,0.0,0.0,0.0,0.0,-3.0519,-2.9949,-2.9166,-2.9092,-2.8384,-2.6907,-2.6563,-2.6109,-2.5555,-2.4759,-2.3931,-2.3103,-2.3328,-2.3039,-2.235,-2.2802,-2.2971,-2.2941,-2.3041,-2.3298,-2.3667,-2.359,-2.3808,-2.4128,-2.338,-2.2682,-2.211,-2.2018,-2.1886,-2.1554,-2.0786,-2.0102,-1.9465,-1.8994,-1.8137,-1.725,0.0,0.0,0.0,0.0,0.0,0.0,0.0,0.0,0.0,0.0,0.0,0.0,0.0,0.0,-2.1317,0.0,0.0,-2.4566,-2.5844,-2.7148,-2.8379,-2.9453,-3.0177,-3.0805,-3.1336,-3.1759,-3.2157,-3.2555,-3.2724,-3.2881,-3.3147,-3.3304,-3.37,-3.4259,-3.4817,-3.5131,-3.5219,-3.547,-3.5418,-3.4977,-3.4402,-3.4028,-3.3855,-3.3748,-3.4003,-3.4493,-3.3536,-3.3557,-3.4095,-3.2815,-3.1897,-3.1253,-3.0294,-2.9267,-2.8461,-2.8304,-2.8246,-2.8544,-3.1239,-3.2386,-3.2902,0.0,0.0,0.0,0.0,0.0,0.0,0.0,0.0,0.0,0.0,0.0,0.0,0.0,0.0,0.0,0.0,0.0,0.0,0.0,-3.0585,-3.0414,-2.9619,-2.9455,-2.8616,-2.7138,-2.69,-2.6534,-2.5913,-2.5839,-2.5292,-2.4393,-2.4936,-2.5001,-2.4723,-2.4718,-2.4908,-2.5256,-2.4776,-2.4699,-2.4919,-2.4919,-2.5025,-2.5203,-2.4263,-2.3354,-2.2618,-2.2773,-2.2277,-2.1389,-2.107,-2.0074,-1.9004,-1.9135,-1.841,-1.7532,-1.7371,-1.7777,0.0,0.0,0.0,0.0,0.0,0.0,0.0,0.0,0.0,-2.0955,-2.2283,-2.2561,-2.2983,-2.4371,-2.5059,-2.5832,-2.7063,-2.7968,-2.885,-2.9815,-3.0419,-3.1059,-3.1867,-3.2145,-3.2447,-3.2857,-3.2978,-3.3147,-3.3376,-3.3593,-3.4069,-3.4941,-3.5393,-3.5622,-3.5962,-3.6099,-3.5792,-3.5204,-3.4616,-3.4295,-3.4215,-3.4647,-3.4943,-3.5188,-3.5269,-3.553,-3.5926,-3.4476,-3.367,-3.3221,-3.1945,-3.0946,-3.0176,-3.0639,-3.0793,-3.0947,-3.2538,-3.3844,-3.4861,0.0,0.0,0.0,0.0,0.0,0.0,0.0,0.0,0.0,0.0,0.0,0.0,0.0,0.0,0.0,0.0,0.0,0.0,0.0,-3.194,-3.1625,-3.0328,-2.9972,-2.9203,-2.7937,-2.6925,-2.6789,-2.7416,-2.6819,-2.6147,-2.5546,-2.6503,-2.6279,-2.5282,-2.6656,-2.7065,-2.6626,-2.7095,-2.7296,-2.7327,-2.7327,-2.7451,-2.7578,-2.646,-2.5066,-2.3563,-2.2946,-2.2398,-2.1833,-2.1172,-2.0788,-2.0493,-1.999,-1.9999,-2.0087,-1.9112,0.0,-1.912,-1.836,-1.842,-1.9024,-2.0436,-2.0509,-2.0907,0.0,0.0,-2.3351,-2.477,-2.5035,-2.5228,-2.588,-2.6447,-2.7087,-2.7932,-2.8946,-2.9827,-3.0431,-3.0974,-3.1602,-3.241,-3.2531,-3.2555,-3.2628,-3.305,-3.334,-3.3376,-3.34,-3.3737,-3.4383,-3.4966,-3.5382,-3.5597,-3.5989,-3.5792,-3.5204,-3.4616,-3.4189,-3.3921,-3.4549,-3.5521,-3.6707,-3.5958,-3.6243,-3.7095,-3.4399,-3.2693,-3.189,-3.2523,-3.1732,-3.033,-3.2512,-3.3196,-3.2859,-3.3087,-3.3541,-3.4093,0.0,0.0,0.0,0.0,0.0,0.0,0.0,0.0,0.0,0.0,0.0,0.0,0.0,0.0,0.0,0.0,0.0,0.0,-3.064,-3.2442,-3.2743,-3.0984,-3.0726,-2.9872,-2.84,-2.7486,-2.7158,-2.7361,-2.7286,-2.7314,-2.7534,-2.7944,-2.8294,-2.8642,-2.8623,-2.8617,-2.8474,-2.7934,-2.7789,-2.7957,-2.7758,-2.788,-2.7955,-2.6575,-2.5313,-2.4122,-2.3169,-2.2185,0.0,0.0,-2.0088,-1.9603,-1.9654,-1.937,-1.9092,-1.9256,-1.9386,0.0,-1.9639,0.0,0.0,0.0,-2.2066,-2.2947,-2.4311,-2.4613,-2.4855,-2.6122,-2.6363,-2.652,-2.7051,-2.7461,-2.7965,0.0,-2.9396,-3.0185,-3.1448,-3.1341,-3.1441,-3.2258,-3.2106,-3.2193,-3.2978,-3.3243,-3.3376,-3.3376,-3.3871,-3.4345,-3.4842,-3.554,-3.5891,-3.5946,-3.6031,-3.5712,-3.495,-3.4523,-3.449,-3.4993,-3.5691,-3.6742,-3.804,-3.8138,-3.8135,-3.7866,-3.6201,-3.4883,-3.3836,-3.383,-3.3205,-3.2359,-3.3365,-3.3971,-3.4203,-3.3995,-3.4281,-3.4895,0.0,0.0,0.0,0.0,0.0,0.0,0.0,0.0,0.0,0.0,0.0,0.0,0.0,0.0,0.0,0.0,0.0,0.0,0.0,-3.2122,-3.2724,-3.1381,-3.0937,0.0,-2.8968,-2.8289,-2.8075,-2.8201,-2.8499,-2.8965,-2.9557,-2.959,-3.0171,-3.1303,-3.0433,-3.0305,-3.0546,-2.9497,-2.917,-2.9375,-2.9122,-2.8979,-2.8568,-2.6836,-2.5509,-2.4338,-2.2984,-2.1687,0.0,0.0,-1.9225,-1.8713,-1.912,-1.8772,-1.8425,-1.9256,-1.9536,-1.9693,-2.0364,0.0,0.0,-2.2235,-2.3381,-2.4504,-2.5144,-2.559,-2.6158,-2.7342,-2.7488,-2.7689,-2.8307,-2.8658,-2.8928,-2.9648,-3.0045,-3.0708,-3.1878,-3.1506,-3.1272,-3.1886,-3.1534,-3.1662,-3.2628,-3.2917,-3.3234,-3.3491,-3.4109,-3.4706,-3.5271,-3.5909,-3.6242,-3.6099,-3.5992,-3.5778,-3.5491,-3.4993,-3.5299,-3.6239,-3.7126,-3.7915,-3.8784,-3.9536,-3.9248,-3.8135,-3.7381,-3.6405,-3.5309,-3.4659,-3.4179,-3.3761,-3.3761,-3.4273,-3.4954,-3.4457,-3.4791,-3.5522,0.0,0.0,0.0,0.0,0.0,0.0,0.0,0.0,0.0,0.0,0.0,0.0,0.0,0.0,0.0,0.0,0.0,0.0,0.0,-3.0771,-3.108,-3.1376,-3.0373,-2.9772,-2.9658,-2.9421,-2.977,-3.0885,-3.087,-3.1105,-3.1513,-3.1544,-3.1722,-3.2088,-3.199,-3.2223,-3.2638,-3.2565,-3.2565,-3.2565,-3.2565,-3.1672,-3.0082,-2.8053,-2.6004,-2.3994,-2.2111,0.0,0.0,0.0,-1.8654,-1.8462,-1.869,-1.89,0.0,-1.9386,-1.9536,-1.9657,0.0,0.0,-2.151,-2.3333,-2.4202,-2.5023,-2.6592,-2.6966,-2.7299,-2.8674,-2.8731,-2.8812,-2.981,-3.0115,-3.0202,-3.0541,-3.1036,-3.1376,-3.1393,-3.1372,-3.1384,-3.1384,-3.1167,-3.1022,0.0,-3.1783,-3.2664,-3.3825,-3.3899,-3.4439,-3.554,-3.5649,-3.5738,-3.6086,-3.5792,-3.6078,-3.7002,-3.639,-3.6545,-3.7557,-3.8403,-3.8723,-3.8861,-3.9267,-3.8854,-3.7741,-3.697,-3.6011,-3.4967,-3.4556,-3.4179,-3.3761,-3.3761,-3.4273,-3.4918,-3.4082,-3.4558,-3.5449,0.0,0.0,0.0,0.0,0.0,0.0,0.0,0.0,0.0,0.0,0.0,0.0,0.0,0.0,0.0,0.0,0.0,0.0,0.0,-3.0127,-3.0487,-2.9607,-3.0117,-3.0219,-2.9744,-2.9899,-3.0354,-3.1007,-3.1283,-3.1808,-3.2744,-3.2157,-3.2421,-3.3267,-3.274,-3.257,-3.2689,-3.2689,-3.2689,-3.2582,-3.1599,-3.0759,-2.988,-2.7357,-2.5101,-2.3006,0.0,0.0,0.0,0.0,0.0,0.0,-1.7862,-1.7695,-1.7624,-1.8227,-1.9289,-2.0388,-2.0931,0.0,-2.3056,-2.4745,-2.5699,-2.6496,-2.757,-2.8226,-2.8667,-2.886,-2.9525,-2.9743,-2.9113,-2.9651,-3.0294,-3.0535,-3.0818,-3.1365,-3.2404,-3.2212,-3.1788,-3.1536,-3.1158,0.0,0.0,0.0,0.0,-3.2665,-3.328,-3.3994,-3.4929,-3.5571,-3.6302,-3.6955,-3.6949,-3.723,-3.8093,-3.7869,-3.8105,-3.8831,-3.9297,-3.958,-3.9547,-3.8967,-3.8357,-3.769,-3.6422,-3.5532,-3.4933,-3.4282,-3.3957,-3.3761,-3.3761,-3.4116,-3.4563,-3.3976,-3.4055,-3.433,0.0,0.0,0.0,0.0,0.0,0.0,0.0,0.0,0.0,0.0,0.0,0.0,0.0,0.0,0.0,0.0,0.0,0.0,0.0,0.0,-2.9056,-2.8465,-2.8848,-2.8917,-2.8607,-2.9069,-2.9681,-3.041,-3.1275,-3.2166,-3.2973,-3.2621,-3.2808,-3.3464,-3.2795,-3.2638,-3.2878,-3.2741,-3.2535,-3.2172,-3.0866,-2.9618,-2.8334,-2.6094,-2.389,0.0,0.0,0.0,0.0,0.0,0.0,0.0,-1.7558,-1.7551,-1.7551,-1.8239,-1.9495,-2.0871,-2.1788,-2.2935,-2.4263,-2.5856,-2.6887,-2.7867,-2.9118,-2.9817,-3.0333,-3.0584,-3.1031,-3.0931,-2.9411,-2.9758,-3.0131,-3.007,-3.0183,-3.0776,-3.2123,-3.1803,-3.1322,-3.1376,-3.0939,0.0,0.0,0.0,0.0,-3.2516,-3.377,-3.4584,-3.4781,-3.5803,-3.6739,-3.7145,-3.775,-3.851,-3.9454,-3.9205,-3.9323,-3.9879,-3.9977,-3.9967,-3.9796,-3.8785,-3.7964,-3.7279,-3.6046,-3.5224,-3.471,-3.4094,-3.3761,-3.382,-3.3683,-3.3926,-3.4351,-3.3622,-3.3552,-3.3725,0.0,0.0,0.0,0.0,0.0,0.0,0.0,0.0,0.0,0.0,0.0,0.0,0.0,0.0,0.0,0.0,0.0,0.0,0.0,0.0,0.0,-2.7862,-2.6659,-2.6212,-2.6585,-2.7122,-2.8068,-2.9294,-3.094,-3.1903,-3.2211,-3.2678,-3.277,-3.2525,-3.2118,-3.2381,-3.3049,-3.2672,-3.2018,-3.1282,-3.028,-2.8313,-2.5866,-2.4386,0.0,0.0,0.0,0.0,0.0,0.0,0.0,0.0,0.0,-1.8321,-1.8855,-1.941,-2.0158,-2.1148,-2.2794,-2.3937,-2.512,-2.6791,-2.8026,-2.928,-3.1288,-3.1839,-3.2265,-3.3411,-3.2998,-3.2057,0.0,0.0,-3.0153,-2.9343,-2.9299,-2.9817,-3.0989,-3.0423,-3.0254,0.0,0.0,0.0,0.0,0.0,0.0,-3.333,0.0,-3.5913,-3.5022,-3.6355,-3.7139,-3.6911,-3.8298,-3.9635,-4.0951,-4.0238,-4.0149,-4.0601,-4.0207,-3.9813,-3.9419,-3.8631,-3.7655,-3.6559,-3.5806,-3.507,-3.435,-3.3991,-3.3761,-3.3768,-3.3409,-3.3757,-3.4244,-3.3127,-3.3173,-3.3633,0.0,0.0,0.0,0.0,0.0,0.0,0.0,0.0,0.0,0.0,0.0,0.0,0.0,0.0,0.0,0.0,0.0,0.0,0.0,0.0,0.0,0.0,0.0,0.0,0.0,0.0,0.0,0.0,0.0,-3.0316,-3.1308,-3.0556,-3.0502,-3.0981,-3.0319,-2.9868,-2.963,-2.9529,-2.9108,-2.8421,0.0,-2.5896,-2.4925,0.0,0.0,0.0,0.0,0.0,0.0,0.0,0.0,0.0,0.0,-1.9164,-1.976,-2.069,-2.1812,-2.3007,-2.4214,-2.5458,-2.701,-2.9466,-3.0305,-3.1009,-3.2915,-3.3456,-3.3375,-3.2688,-3.2556,-3.1703,0.0,0.0,0.0,-3.0652,-3.1673,0.0,-3.4082,-3.3019,0.0,-3.161,0.0,-3.3408,-3.366,-3.622,0.0,0.0,-3.6805,-3.7236,-3.7602,-3.8141,-3.8811,-3.9402,-3.9877,-4.0465,-4.1464,-4.1102,-4.0933,-4.1012,-4.007,-3.9419,-3.9025,-3.7964,-3.7039,-3.6183,-3.5429,-3.483,-3.435,-3.3991,-3.3665,-3.3409,-3.3306,-3.3426,-3.3499,-3.2932,-3.2813,-3.2826,0.0,0.0,0.0,0.0,0.0,0.0,0.0,0.0,0.0,0.0,0.0,0.0,0.0,0.0,0.0,0.0,0.0,0.0,0.0,0.0,0.0,0.0,0.0,0.0,0.0,0.0,0.0,0.0,0.0,0.0,0.0,-2.8623,-2.8624,-2.9021,-2.8397,-2.7938,-2.7713,0.0,0.0,0.0,0.0,0.0,0.0,0.0,0.0,0.0,0.0,0.0,0.0,0.0,0.0,-2.1276,-2.1753,-2.2251,-2.2959,-2.404,0.0,-2.6339,-2.7859,-2.9083,-3.0438,-3.2467,-3.3131,-3.355,-3.4561,-3.4784,-3.438,-3.3066,-3.2789,0.0,-2.8481,0.0,0.0,0.0,0.0,0.0,-3.5514,-3.4556,-3.396,0.0,-3.5428,0.0,-3.7273,-3.8775,-3.9901,0.0,-3.9276,-3.8611,-3.8432,-3.921,-3.9858,-4.0174,-4.0848,-4.128,-4.1474,-4.1268,-4.0994,-4.0669,-3.9847,-3.9179,-3.8631,-3.7655,-3.6713,-3.5806,0.0,-3.4659,-3.4128,-3.3922,-3.3614,-3.3329,-3.3322,-3.3224,-3.295,-3.2521,-3.234,-3.2276,0.0,0.0,0.0,0.0,0.0,0.0,0.0,0.0,0.0,0.0,0.0,0.0,0.0,0.0,0.0,0.0,0.0,0.0,0.0,0.0,0.0,0.0,0.0,0.0,0.0,0.0,0.0,0.0,0.0,0.0,0.0,0.0,0.0,0.0,0.0,0.0,0.0,0.0,0.0,0.0,0.0,0.0,0.0,0.0,0.0,0.0,0.0,0.0,0.0,0.0,-2.3936,-2.4378,-2.5452,-2.6169,-2.6926,-2.8225,-2.9172,-3.0267,-3.2134,-3.334,-3.4225,-3.5474,-3.5971,-3.6234,-3.62,-3.5886,-3.5195,-3.3839,0.0,-3.1578,-2.8972,-2.9656,-3.0534,-3.0592,0.0,-3.2424,-3.6386,-3.5742,-3.5761,-3.8147,-3.8442,-3.929,-4.1391,-4.0837,-4.1261,-4.3636,-4.1827,-4.011,-3.8827,-4.0012,-4.0608,-4.0184,-4.143,-4.1748,-4.1097,-4.1046,-4.0686,-4.0036,-3.9539,-3.894,-3.822,-3.7467,-3.6508,-3.5412,0.0,0.0,-3.3761,-3.3761,-3.358,-3.3243,-3.321,-3.2946,-3.2542,-3.2137,-3.1951,-3.1946,0.0,0.0,0.0,0.0,0.0,0.0,0.0,0.0,0.0,0.0,-2.8601,-2.7629,0.0,0.0,0.0,0.0,0.0,0.0,0.0,0.0,0.0,0.0,0.0,0.0,0.0,0.0,0.0,0.0,0.0,0.0,0.0,0.0,0.0,0.0,0.0,0.0,0.0,0.0,0.0,0.0,0.0,0.0,0.0,0.0,0.0,0.0,0.0,0.0,0.0,0.0,-2.6411,-2.6393,-2.7258,-2.8033,-2.8896,-3.0677,-3.17,-3.2511,-3.3762,-3.4877,-3.6156,-3.7739,-3.7962,-3.7871,-3.7862,-3.6929,0.0,0.0,-3.1576,-3.0105,-2.7932,-2.9643,-3.175,-3.2761,0.0,0.0,0.0,0.0,-3.7528,0.0,0.0,0.0,0.0,0.0,0.0,0.0,0.0,0.0,-4.1946,-4.2268,-4.2042,-4.1442,-4.1108,-4.0823,-4.0686,-4.0378,-4.0155,-4.0018,-3.9008,-3.8289,-3.7827,-3.7073,-3.6114,-3.507,0.0,0.0,-3.3761,-3.3761,-3.3426,-3.2775,-3.278,-3.2539,-3.2152,-3.1758,-3.1751,-3.1946,0.0,0.0,0.0,0.0,0.0,0.0,0.0,-2.7589,-2.8053,-3.0221,-3.0109,-2.9475,-2.8484,-2.7964,0.0,0.0,0.0,0.0,0.0,0.0,0.0,0.0,0.0,0.0,0.0,0.0,0.0,0.0,0.0,0.0,0.0,0.0,0.0,0.0,0.0,0.0,0.0,0.0,0.0,0.0,0.0,0.0,0.0,0.0,0.0,0.0,0.0,0.0,0.0,0.0,-2.7586,-2.8742,-3.0701,-3.2015,-3.3197,-3.4719,-3.5732,-3.668,-3.8024,-3.8973,-3.9867,-4.0881,-4.0425,-3.9391,-3.7743,0.0,0.0,0.0,-3.0271,-2.933,-2.7942,0.0,0.0,0.0,0.0,0.0,0.0,0.0,0.0,0.0,0.0,0.0,0.0,0.0,0.0,0.0,0.0,0.0,-4.2244,-4.2073,-4.1816,-4.144,-4.0875,-4.0498,-4.0292,-4.0121,-3.9847,-3.9436,-3.8683,-3.8032,-3.745,-3.6885,-3.6029,-3.4984,-3.4984,0.0,-3.382,-3.3631,-3.3203,-3.2728,-3.2902,-3.2474,-3.1779,-3.2007,-3.1938,-3.1653,0.0,0.0,0.0,0.0,0.0,0.0,0.0,-2.8237,-2.9115,-3.1365,-3.1875,-3.1628,-3.0537,-2.9223,-2.7887,0.0,0.0,0.0,0.0,0.0,0.0,0.0,0.0,0.0,0.0,0.0,0.0,0.0,0.0,0.0,0.0,0.0,0.0,0.0,0.0,0.0,0.0,0.0,0.0,0.0,0.0,0.0,0.0,0.0,0.0,0.0,0.0,0.0,0.0,0.0,-2.8048,-3.026,-3.2978,-3.4979,-3.6602,-3.7699,-3.886,-4.0164,-4.1767,-4.2589,-4.3092,-4.3243,-4.2322,-4.0524,-3.7293,-3.5375,0.0,0.0,-2.9416,-2.8892,-2.8236,0.0,0.0,0.0,0.0,0.0,0.0,0.0,0.0,0.0,0.0,0.0,0.0,0.0,0.0,0.0,0.0,0.0,-4.1697,-4.1371,-4.1166,-4.1166,-4.0789,-4.0412,-4.0036,-3.995,-3.9539,-3.8785,-3.8323,-3.769,-3.6953,-3.6559,-3.5823,-3.4847,-3.4847,0.0,0.0,-3.3511,-3.3117,-3.2728,-3.3086,-3.2474,-3.157,-3.2155,-3.1931,-3.1377,0.0,0.0,0.0,0.0,0.0,0.0,0.0,-2.9041,-3.0464,-3.3715,-3.3806,-3.348,-3.341,-3.1142,-2.9089,0.0,0.0,0.0,0.0,0.0,0.0,0.0,0.0,0.0,0.0,0.0,0.0,0.0,0.0,0.0,0.0,0.0,0.0,0.0,0.0,0.0,0.0,0.0,0.0,0.0,0.0,0.0,0.0,0.0,0.0,0.0,0.0,0.0,0.0,0.0,0.0,-2.939,-3.1578,-3.3976,-3.6088,-3.7347,0.0,0.0,-4.1936,-4.3261,-4.4081,-4.3056,-4.2321,-4.0815,-3.7396,0.0,0.0,-3.0331,-2.9181,-2.8527,-2.8193,-2.847,-2.9505,0.0,0.0,-3.4504,0.0,0.0,0.0,0.0,0.0,0.0,0.0,0.0,0.0,0.0,0.0,0.0,0.0,-4.1371,-4.1166,-4.1166,-4.0789,-4.0412,-4.0036,-3.9693,-3.9145,-3.8375,-3.7655,-3.6919,-3.6183,-3.5789,-3.5172,-3.4436,0.0,0.0,0.0,-3.3802,-3.3357,-3.2672,-3.2711,-3.2221,-3.1529,-3.1587,-3.1532,-3.1432,0.0,0.0,0.0,0.0,0.0,0.0,-2.8508,-2.8647,-3.0008,-3.3977,-3.405,-3.406,-3.4731,-3.2954,-3.0691,-2.8143,0.0,0.0,0.0,0.0,0.0,0.0,0.0,0.0,0.0,0.0,0.0,-2.3261,-2.3353,0.0,0.0,0.0,0.0,0.0,0.0,0.0,0.0,0.0,0.0,0.0,0.0,0.0,0.0,0.0,0.0,0.0,0.0,0.0,0.0,0.0,0.0,0.0,-2.9104,-3.1158,0.0,0.0,-3.8729,-4.0515,-4.215,-4.3586,-4.4419,-4.3728,-4.2389,-4.0421,-3.7379,0.0,0.0,-3.0201,-2.9108,-2.851,-2.8389,-2.8149,-2.8505,0.0,0.0,0.0,0.0,0.0,0.0,0.0,0.0,0.0,0.0,0.0,0.0,0.0,0.0,0.0,0.0,-4.0892,-4.0823,-4.0823,-4.0446,-4.007,-3.9693,-3.9094,-3.8512,-3.7981,-3.7005,-3.6388,-3.608,-3.5463,-3.4898,-3.4385,0.0,0.0,0.0,-3.334,-3.2963,-3.2711,-3.2463,-3.1878,-3.1267,-3.1652,-3.1522,-3.1161,0.0,0.0,0.0,0.0,0.0,-2.654,-2.8508,-2.8724,-2.9986,-3.3814,-3.4086,-3.4168,-3.4911,-3.3311,-3.1179,-2.8661,-2.7149,0.0,0.0,0.0,0.0,0.0,0.0,0.0,0.0,0.0,-2.3414,-2.3601,-2.3806,-2.3303,0.0,0.0,0.0,0.0,0.0,0.0,0.0,0.0,0.0,0.0,0.0,0.0,0.0,0.0,0.0,0.0,0.0,0.0,0.0,0.0,0.0,0.0,0.0,0.0,0.0,0.0,-3.7705,-3.9957,-4.1849,-4.3557,-4.4657,-4.415,-4.252,-4.0286,0.0,0.0,-3.224,-3.023,-2.9179,-2.8636,-2.8517,-2.808,-2.8114,0.0,0.0,-2.992,0.0,0.0,0.0,0.0,0.0,0.0,0.0,0.0,0.0,0.0,0.0,0.0,0.0,-4.031,-4.031,-4.0412,-4.0173,-3.9744,-3.9128,-3.8597,-3.7964,-3.7261,-3.6474,-3.6006,-3.5725,-3.5114,-3.4745,-3.4596,0.0,0.0,0.0,-3.3403,-3.3042,-3.2694,-3.252,-3.1931,-3.1215,-3.1769,-3.1619,-3.1107,0.0,0.0,0.0,0.0,0.0,0.0,-2.8508,-2.9576,-3.1061,-3.3486,-3.3985,-3.399,-3.3749,-3.1698,-3.0012,-2.9268,-2.7542,0.0,0.0,0.0,0.0,0.0,0.0,0.0,0.0,0.0,-2.4085,-2.3872,-2.4315,-2.3816,-2.2521,-2.267,-2.2368,0.0,0.0,0.0,0.0,0.0,0.0,0.0,0.0,0.0,0.0,0.0,0.0,0.0,0.0,0.0,0.0,0.0,0.0,0.0,0.0,0.0,0.0,0.0,-3.5842,-3.8988,-4.0892,-4.3111,-4.4682,-4.398,-4.2675,-4.066,0.0,0.0,-3.2643,-3.0626,-2.9544,-2.8856,-2.8576,-2.8517,-2.8588,-2.9048,0.0,0.0,0.0,0.0,0.0,0.0,0.0,0.0,0.0,0.0,0.0,0.0,0.0,0.0,0.0,-3.9676,-3.9642,-4.0036,-4.0036,-3.9488,-3.8357,-3.834,-3.7587,-3.6114,-3.6097,-3.5736,-3.5016,-3.4632,-3.4637,0.0,0.0,0.0,0.0,-3.4365,-3.3747,-3.2762,-3.3145,-3.2576,-3.1564,-3.1858,-3.1733,-3.1402,0.0,0.0,0.0,0.0,0.0,0.0,0.0,-2.7566,-2.8746,-3.1455,-3.1365,-3.1602,-3.2955,-3.1314,-2.9833,-2.8986,-2.7279,0.0,0.0,0.0,0.0,0.0,0.0,0.0,0.0,0.0,-2.4494,-2.4297,-2.4992,-2.4488,-2.2839,-2.3362,-2.3045,-2.1994,0.0,0.0,0.0,0.0,0.0,0.0,0.0,0.0,0.0,0.0,0.0,0.0,0.0,0.0,0.0,0.0,0.0,0.0,0.0,0.0,0.0,-3.0491,0.0,0.0,-3.7731,-3.9476,-4.0726,-3.9921,-3.9176,-3.8092,-3.5686,0.0,-3.2294,-3.0552,-2.9544,-2.9067,-2.9221,-2.8817,-2.9069,-3.0876,-3.0686,0.0,0.0,0.0,0.0,0.0,0.0,0.0,0.0,0.0,0.0,0.0,0.0,0.0,0.0,-3.9299,-3.9265,-3.9642,-3.9402,-3.8974,-3.834,-3.7804,-3.721,-3.6483,-3.6001,-3.5674,-3.5381,-3.5023,0.0,0.0,0.0,0.0,0.0,-3.4236,-3.3883,-3.3456,-3.3073,-3.2315,-3.1555,-3.1904,-3.1571,-3.1107,0.0,0.0,0.0,0.0,0.0,0.0,0.0,-2.6498,-2.745,-2.9764,-2.9323,-2.9487,-3.1381,-3.0091,-2.8981,-2.8653,-2.7736,0.0,0.0,0.0,0.0,0.0,0.0,0.0,0.0,-2.4666,-2.4878,-2.4586,-2.5656,-2.54,-2.3831,-2.4923,-2.4946,-2.404,-2.5025,0.0,0.0,0.0,0.0,0.0,0.0,0.0,-2.8975,0.0,0.0,0.0,0.0,0.0,0.0,0.0,0.0,0.0,0.0,0.0,0.0,0.0,-3.1545,0.0,0.0,-3.7324,-3.8544,-3.7975,-3.7436,0.0,0.0,0.0,-3.1744,-3.0259,-2.9434,-2.9104,-2.9549,-2.907,-2.924,-3.0874,0.0,0.0,0.0,0.0,0.0,0.0,0.0,0.0,0.0,0.0,0.0,0.0,0.0,0.0,0.0,0.0,-3.8666,-3.908,-3.8718,-3.8185,-3.7735,-3.72,-3.6745,-3.6316,-3.581,-3.5615,-3.5606,-3.5188,0.0,0.0,0.0,0.0,0.0,-3.4286,-3.3928,-3.3588,-3.3091,-3.2429,-3.1715,-3.1889,-3.1527,-3.0901,0.0,0.0,0.0,0.0,0.0,0.0,0.0,-2.6232,-2.7019,-2.8376,-2.7716,-2.7742,-2.9254,-2.8205,-2.7603,-2.83,0.0,0.0,0.0,0.0,0.0,0.0,0.0,0.0,-2.4812,-2.5234,-2.5218,-2.4711,-2.6262,-2.6393,-2.525,-2.6987,-2.7571,-2.7116,-2.7386,-2.7427,0.0,0.0,0.0,0.0,0.0,0.0,0.0,0.0,0.0,0.0,0.0,0.0,0.0,0.0,0.0,0.0,0.0,0.0,0.0,0.0,0.0,0.0,0.0,-3.6067,0.0,0.0,0.0,0.0,0.0,-3.2423,0.0,-2.9819,-2.925,-2.9104,-2.9544,-2.9269,-2.9159,-2.969,0.0,0.0,0.0,0.0,0.0,0.0,0.0,0.0,0.0,0.0,0.0,0.0,0.0,0.0,0.0,0.0,-3.7925,-3.831,-3.7909,-3.7386,-3.6742,-3.6702,-3.6355,-3.561,-3.5668,-3.5664,-3.5605,-3.5196,0.0,0.0,0.0,0.0,0.0,-3.4379,-3.3929,-3.334,-3.3193,-3.2701,-3.1962,-3.2016,-3.1506,-3.0827,0.0,0.0,0.0,0.0,0.0,0.0,0.0,0.0,0.0,0.0,-2.6863,-2.6847,-2.7685,-2.7203,-2.7105,0.0,0.0,0.0,0.0,0.0,0.0,0.0,0.0,0.0,-2.5234,-2.5931,-2.5783,-2.4671,-2.6215,-2.6439,-2.5643,-2.7336,-2.7865,-2.7528,-2.8314,-2.8328,0.0,0.0,0.0,0.0,0.0,0.0,0.0,0.0,0.0,0.0,-2.8476,-2.8418,0.0,0.0,0.0,0.0,0.0,0.0,0.0,0.0,-2.9782,-3.0497,-3.1139,0.0,-3.279,-3.2184,-3.2276,-3.2258,0.0,0.0,-3.0681,-2.9764,0.0,-2.9195,-2.9929,-2.947,0.0,0.0,0.0,0.0,0.0,0.0,0.0,0.0,0.0,0.0,0.0,0.0,0.0,0.0,0.0,0.0,0.0,0.0,-3.7421,-3.7513,-3.7258,-3.708,-3.7188,-3.6927,-3.6569,-3.6066,-3.6062,-3.6069,-3.6052,-3.5668,0.0,0.0,0.0,0.0,-3.4828,-3.4207,-3.3827,-3.3611,-3.2952,-3.2436,-3.1997,-3.1972,-3.1689,-3.1194,0.0,0.0,0.0,0.0,0.0,0.0,0.0,0.0,0.0,0.0,0.0,0.0,0.0,0.0,0.0,0.0,0.0,0.0,0.0,0.0,0.0,0.0,0.0,0.0,-2.5913,-2.6245,-2.6204,-2.5961,-2.7114,-2.7586,-2.7458,-2.8857,-2.924,-2.8846,-2.8785,-2.8505,0.0,0.0,0.0,0.0,-2.8828,0.0,0.0,0.0,0.0,0.0,-2.8113,-2.8223,0.0,-2.8847,-2.9104,-2.925,0.0,0.0,0.0,0.0,-2.9434,-2.969,-2.9855,-3.0772,-3.1561,-3.1139,-3.1194,-3.1212,-3.0607,0.0,0.0,0.0,0.0,0.0,0.0,0.0,0.0,0.0,0.0,0.0,0.0,0.0,0.0,0.0,0.0,0.0,0.0,0.0,0.0,0.0,0.0,0.0,0.0,0.0,-3.7152,-3.7338,-3.6803,-3.6587,-3.6784,-3.6656,-3.6391,-3.6155,-3.5979,-3.5944,-3.5925,-3.5522,0.0,0.0,0.0,0.0,-3.4095,-3.3517,-3.3225,-3.292,-3.2168,-3.1679,-3.1447,-3.1265,-3.0938,-3.0516,0.0,0.0,0.0,0.0,0.0,0.0,0.0,0.0,0.0,0.0,0.0,0.0,0.0,0.0,0.0,0.0,0.0,0.0,0.0,0.0,0.0,0.0,0.0,-2.5968,-2.6664,-2.6391,-2.6597,-2.7439,-2.8209,-2.8946,-2.9489,-3.0686,-3.1035,-3.049,-2.9337,-2.8663,0.0,0.0,0.0,0.0,-2.8847,0.0,0.0,0.0,0.0,0.0,0.0,0.0,0.0,-2.8796,-2.9163,-2.9397,-2.947,0.0,0.0,0.0,0.0,0.0,-2.9617,-3.0901,-3.2001,-3.1634,-3.1322,-3.0992,-3.0607,0.0,0.0,0.0,0.0,0.0,0.0,0.0,0.0,0.0,0.0,0.0,0.0,0.0,0.0,0.0,0.0,0.0,0.0,0.0,0.0,0.0,0.0,0.0,0.0,0.0,0.0,-3.7324,-3.6656,-3.624,-3.6113,-3.6198,-3.6182,-3.6109,-3.5779,-3.5595,-3.5522,-3.5119,-3.4697,0.0,0.0,0.0,-3.3052,-3.2707,-3.23,-3.1853,-3.1109,-3.0716,-3.0599,-3.032,-2.9948,-2.9593,0.0,0.0,0.0,0.0,0.0,0.0,0.0,0.0,0.0,0.0,0.0,0.0,0.0,0.0,0.0,0.0,0.0,0.0,0.0,0.0,0.0,0.0,-2.7141,-2.6958,-2.7086,-2.679,-2.6739,-2.7003,-2.8077,-2.9043,-2.9917,-3.1677,-3.2193,-3.1676,-3.0801,-2.9855,-2.8902,-2.8902,-2.8902,-2.8902,-2.8957,0.0,0.0,0.0,0.0,0.0,0.0,0.0,0.0,-2.8551,-2.8732,-2.8627,-2.8975,0.0,0.0,0.0,0.0,0.0,-3.0314,-3.1524,-3.2019,-2.9965,-2.9654,-2.9745,0.0,0.0,0.0,0.0,0.0,0.0,0.0,0.0,0.0,0.0,0.0,0.0,0.0,0.0,0.0,0.0,0.0,0.0,0.0,0.0,0.0,0.0,0.0,0.0,0.0,0.0,0.0,-3.6892,-3.6746,-3.6362,-3.5668,-3.5998,-3.6036,-3.5705,-3.565,-3.5449,-3.51,-3.4697,-3.4275,0.0,0.0,-3.3138,-3.2661,-3.1981,-3.1468,-3.1024,-3.0288,-2.9768,-2.9493,-2.9735,-2.9751,-2.9668,0.0,0.0,0.0,0.0,0.0,0.0,0.0,0.0,0.0,0.0,0.0,0.0,0.0,0.0,0.0,0.0,0.0,0.0,0.0,0.0,0.0,-2.7822,-2.7801,-2.7728,-2.7546,-2.7395,-2.7937,-2.9073,-2.9837,-3.0737,-3.1774,-3.1913,-3.1894,-3.1634,-3.0369,-2.9507,-2.8975,-2.8975,-2.8975,-2.8975,0.0,0.0,0.0,0.0,0.0,0.0,0.0,0.0,0.0,0.0,-2.87,-2.8796,-2.9098,0.0,0.0,0.0,0.0,0.0,-2.9067,-3.0039,-3.0699,-2.958,-3.0424,-3.1322,0.0,0.0,0.0,0.0,0.0,0.0,0.0,0.0,0.0,0.0,0.0,0.0,0.0,0.0,0.0,0.0,0.0,0.0,0.0,0.0,0.0,0.0,0.0,0.0,0.0,0.0,0.0,0.0,-3.6441,-3.622,-3.5632,-3.5595,-3.5485,-3.5302,-3.5064,-3.4862,-3.466,-3.4055,-3.367,-3.3468,0.0,-3.2661,-3.2192,-3.1547,-3.0835,-3.0216,-2.9526,-2.8979,-2.8668,-2.8946,-2.9058,-2.9082,0.0,0.0,0.0,0.0,0.0,0.0,0.0,0.0,0.0,0.0,0.0,0.0,0.0,0.0,0.0,0.0,0.0,0.0,0.0,0.0,-2.7822,-2.7822,-2.8168,-2.8333,-2.8244,-2.8199,-2.9145,-3.115,-3.1747,-3.2667,-3.3928,-3.2705,-3.1926,-3.1634,-3.0094,-2.925,-2.8975,-2.8975,-2.8975,-2.8975,0.0,0.0,0.0,0.0,0.0,0.0,0.0,0.0,0.0,0.0,0.0,0.0,0.0,0.0,0.0,-2.8818,-2.8447,-2.8242,-2.8263,-2.8938,-2.969,-2.9599,0.0,0.0,0.0,0.0,0.0,0.0,0.0,0.0,0.0,0.0,0.0,0.0,0.0,0.0,0.0,0.0,0.0,0.0,0.0,0.0,0.0,0.0,0.0,0.0,0.0,0.0,0.0,0.0,0.0,0.0,-3.6072,-3.5776,-3.5192,-3.4899,-3.4752,-3.4733,-3.4422,-3.4165,-3.3963,-3.329,-3.296,-3.2918,-3.2454,-3.1986,-3.1531,-3.0877,-3.0136,-2.9365,-2.8749,-2.8334,-2.8123,-2.8324,-2.8457,-2.8636,0.0,0.0,0.0,0.0,0.0,0.0,0.0,0.0,0.0,0.0,0.0,0.0,0.0,0.0,0.0,0.0,0.0,0.0,0.0,0.0,-2.7822,-2.7822,-2.8168,-2.8718,-2.9434,-2.9143,-3.0014,-3.198,-3.284,-3.4196,-3.5944,-3.4775,-3.3615,-3.2459,-3.1212,-3.0039,-2.8975,-2.8975,-2.8975,-2.8975,-2.8975,0.0,0.0,0.0,0.0,0.0,0.0,0.0,0.0,0.0,0.0,0.0,0.0,0.0,-2.9071,-2.9372,-2.8679,-2.8116,-2.914,-2.98,-3.0057,-2.9672,-2.9709,0.0,-3.2093,-3.1598,0.0,-3.3175,0.0,0.0,0.0,0.0,0.0,0.0,0.0,0.0,0.0,0.0,0.0,0.0,0.0,0.0,0.0,0.0,0.0,0.0,0.0,0.0,0.0,0.0,0.0,0.0,0.0,-3.5082,-3.3963,-3.3908,-3.3908,-3.3908,-3.3872,-3.345,-3.2716,-3.2344,-3.2126,-3.2027,-3.1396,-3.0817,-3.0374,-2.9672,-2.8961,-2.8201,-2.7813,-2.7817,-2.7995,-2.8037,-2.8439,-2.8993,0.0,0.0,0.0,0.0,0.0,0.0,0.0,0.0,0.0,0.0,0.0,0.0,0.0,0.0,0.0,0.0,0.0,0.0,0.0,0.0,-2.7361,-2.8113,-2.8315,-2.8883,-2.9947,-3.0067,-3.136,-3.39,-3.4703,-3.523,-3.5449,-3.3729,-3.2276,-3.1066,-3.0094,-2.9415,-2.8975,-2.8975,-2.9122,-2.9324,-2.9085,-2.8498,0.0,0.0,0.0,0.0,0.0,0.0,0.0,0.0,-2.8033,-2.8238,0.0,-2.8834,-2.8943,-2.8719,-2.8066,-2.7546,-2.7967,-2.8913,-2.9758,-2.9591,-3.0069,0.0,0.0,-3.2456,-3.3063,-3.4274,-3.5163,0.0,0.0,0.0,0.0,0.0,0.0,0.0,0.0,0.0,0.0,0.0,0.0,0.0,0.0,0.0,0.0,0.0,0.0,0.0,0.0,0.0,0.0,0.0,0.0,-3.5492,-3.4533,-3.4052,-3.3397,-3.2698,-3.2936,-3.29,-3.2588,-3.2217,-3.187,-3.1598,-3.0843,-3.0301,-2.9843,-2.9214,-2.8584,-2.8035,-2.7486,-2.7375,-2.7496,-2.784,-2.814,-2.8439,0.0,0.0,0.0,0.0,0.0,0.0,0.0,0.0,0.0,0.0,0.0,0.0,0.0,0.0,0.0,0.0,0.0,0.0,0.0,-2.6206,-2.6958,-2.7783,-2.8187,-2.8957,-3.0167,-3.072,-3.2247,-3.4825,-3.576,-3.5742,-3.4788,-3.3028,-3.1689,-3.0736,-2.9782,-2.9434,-2.9544,-2.9269,-2.9324,-2.9544,-2.914,-2.863,0.0,0.0,0.0,0.0,0.0,0.0,0.0,0.0,0.0,0.0,0.0,0.0,0.0,0.0,-2.7864,-2.7381,-2.7419,-2.8256,-2.9154,-2.9402,0.0,0.0,-3.2636,-3.3752,-3.4909,-3.645,-3.7074,0.0,0.0,0.0,0.0,0.0,0.0,0.0,0.0,0.0,0.0,0.0,0.0,0.0,0.0,0.0,0.0,0.0,0.0,0.0,0.0,0.0,0.0,0.0,0.0,0.0,-3.4458,-3.3587,-3.2644,-3.1616,-3.1763,-3.1836,-3.1836,-3.1431,-3.1139,-3.0801,-3.0085,-2.9556,-2.9101,-2.8499,-2.7973,-2.7548,-2.7245,-2.7133,-2.7297,-2.7779,-2.808,-2.8259,0.0,0.0,0.0,0.0,0.0,0.0,0.0,0.0,0.0,0.0,0.0,0.0,0.0,0.0,0.0,0.0,0.0,0.0,-2.4794,-2.5913,-2.6573,-2.6591,-2.7746,-2.8938,-3.0167,-3.0974,-3.2368,-3.4385,-3.5595,-3.5559,-3.4348,-3.3138,-3.2368,-3.1928,-3.0736,-3.0424,-3.0717,-2.991,-2.9562,-2.9604,-2.914,-2.8913,-2.8779,0.0,0.0,0.0,0.0,0.0,0.0,0.0,-2.8287,0.0,0.0,0.0,0.0,0.0,-2.8219,-2.7843,-2.7975,-2.8127,-2.8388,0.0,0.0,0.0,-3.4345,0.0,-3.6617,-3.9888,0.0,0.0,0.0,0.0,0.0,0.0,0.0,0.0,0.0,0.0,0.0,0.0,0.0,0.0,0.0,0.0,0.0,0.0,0.0,0.0,0.0,0.0,0.0,0.0,0.0,0.0,-3.3207,-3.232,-3.1514,-3.0772,-3.0369,-3.0185,-3.0204,-2.9875,-2.9671,-2.9671,-2.9002,-2.848,-2.8018,-2.7392,-2.6833,-2.6525,-2.6919,-2.7237,-2.7521,-2.7882,-2.8199,-2.8517,0.0,0.0,0.0,0.0,0.0,0.0,0.0,0.0,0.0,0.0,0.0,0.0,0.0,0.0,0.0,0.0,0.0,0.0,0.0,-2.5271,-2.5693,-2.6554,-2.7196,-2.7985,-2.8902,-3.0277,-3.1818,-3.3578,-3.4495,-3.3872,-3.1854,-3.1781,-3.0919,-2.9507,-3.0277,-3.0204,-2.9525,-2.9562,-2.9762,-2.9925,-2.9498,-2.913,-2.8816,0.0,0.0,0.0,0.0,0.0,0.0,0.0,0.0,0.0,0.0,0.0,0.0,-2.7861,-2.7527,-2.7326,-2.788,-2.8406,0.0,0.0,0.0,0.0,0.0,0.0,0.0,0.0,0.0,0.0,0.0,0.0,0.0,0.0,0.0,0.0,0.0,0.0,0.0,0.0,0.0,0.0,0.0,0.0,0.0,0.0,0.0,0.0,0.0,0.0,0.0,0.0,0.0,0.0,-3.3413,-3.2384,-3.1315,-3.0315,-2.9665,-2.9635,-3.0204,-3.008,-2.9792,-2.9256,-2.8559,-2.792,-2.7295,-2.654,-2.6199,-2.6114,-2.6234,-2.6481,-2.6823,-2.7197,-2.7491,-2.7847,0.0,0.0,0.0,0.0,0.0,0.0,0.0,0.0,0.0,0.0,-2.637,0.0,0.0,0.0,0.0,0.0,0.0,0.0,0.0,0.0,-2.5179,-2.6059,-2.6793,-2.771,-2.8847,-3.013,-3.1121,-3.1781,-3.29,-3.2459,-3.0571,-3.1286,-3.0901,-2.9635,-3.1102,-3.1176,-3.0185,-3.0217,-3.0119,-2.9865,-2.9558,-2.9359,-2.9252,0.0,0.0,0.0,0.0,0.0,0.0,0.0,0.0,0.0,0.0,0.0,0.0,-2.7533,-2.7255,-2.7131,-2.8306,0.0,0.0,0.0,0.0,0.0,0.0,0.0,0.0,0.0,0.0,0.0,0.0,0.0,0.0,0.0,0.0,0.0,0.0,0.0,0.0,0.0,0.0,0.0,0.0,0.0,0.0,0.0,0.0,0.0,0.0,0.0,0.0,0.0,0.0,0.0,-3.2836,-3.1675,-3.0611,-2.9642,-2.8891,-2.8755,-2.9232,-2.9112,-2.8745,-2.8212,-2.7487,-2.6876,-2.6336,-2.6035,-2.584,-2.572,-2.5816,-2.608,-2.6327,-2.662,-2.6876,-2.7092,0.0,0.0,0.0,0.0,0.0,0.0,0.0,0.0,0.0,0.0,-2.6059,-2.6188,0.0,0.0,0.0,0.0,0.0,0.0,0.0,0.0,-2.4977,-2.547,-2.6664,-2.8097,-2.9604,-3.0296,-3.0296,-2.9586,-3.1121,-3.1267,-3.0112,-3.1359,-3.1708,-3.1322,-3.257,-3.2625,-3.1791,-3.1209,-3.0396,-2.9499,-2.9424,-2.9571,-2.9806,-2.963,0.0,0.0,0.0,0.0,0.0,0.0,0.0,0.0,0.0,0.0,-2.6795,-2.7434,-2.7184,-2.7112,-2.8936,0.0,0.0,0.0,0.0,0.0,0.0,0.0,0.0,0.0,0.0,0.0,0.0,0.0,0.0,0.0,0.0,0.0,0.0,0.0,0.0,0.0,0.0,0.0,0.0,0.0,0.0,0.0,0.0,0.0,0.0,0.0,0.0,0.0,0.0,0.0,-3.1669,-3.0493,-2.9514,0.0,-2.8116,-2.7767,-2.771,-2.7422,-2.7136,-2.6756,-2.6123,-2.5669,-2.5343,-2.5686,-2.5634,-2.536,-2.5703,-2.5799,-2.5891,-2.6221,-2.6353,-2.6446,0.0,0.0,0.0,0.0,0.0,0.0,0.0,0.0,0.0,0.0,0.0,0.0,0.0,0.0,0.0,0.0,0.0,0.0,0.0,0.0,-2.5106,-2.5855,-2.76,0.0,-2.9623,-2.9745,-2.9599,-2.9104,-3.0406,-3.0424,-2.9287,-3.0809,-3.1139,-3.0497,-3.1726,-3.1598,-3.0384,-2.9762,-2.9257,-2.8917,-2.9219,-2.9353,-2.9468,-2.9661,-2.9413,0.0,0.0,0.0,0.0,0.0,0.0,0.0,-2.7128,-2.7081,-2.6902,-2.6199,-2.6269,-2.6858,0.0,-2.9008,0.0,0.0,0.0,0.0,0.0,0.0,0.0,0.0,0.0,0.0,0.0,0.0,0.0,0.0,0.0,0.0,0.0,0.0,0.0,0.0,0.0,0.0,0.0,0.0,0.0,0.0,0.0,0.0,0.0,0.0,0.0,0.0,0.0,-3.1111,-3.0736,-2.9584,-2.8597,0.0,-2.7492,-2.7306,-2.7306,-2.7296,-2.6861,-2.6066,-2.5668,-2.5275,-2.4949,-2.5018,-2.5018,-2.4949,-2.5035,-2.5241,-2.5554,-2.5594,-2.5783,-2.6065,0.0,0.0,0.0,0.0,0.0,0.0,0.0,0.0,0.0,0.0,0.0,0.0,0.0,0.0,0.0,0.0,0.0,0.0,0.0,0.0,0.0,0.0,0.0,0.0,0.0,0.0,0.0,-2.8975,-2.9617,-2.9599,-2.9012,-3.0241,-3.0699,-3.0534,-3.1543,-3.1276,-3.01,-2.9814,-2.9322,-2.8747,-2.9145,-2.9278,-2.9278,-2.9297,-2.8899,-2.8229,-2.7666,0.0,0.0,0.0,0.0,0.0,0.0,0.0,-2.6756,-2.6333,-2.6461,-2.7072,0.0,0.0,0.0,0.0,0.0,0.0,0.0,0.0,0.0,0.0,0.0,0.0,0.0,0.0,0.0,0.0,0.0,0.0,0.0,0.0,0.0,0.0,0.0,0.0,0.0,0.0,0.0,0.0,0.0,0.0,0.0,0.0,0.0,0.0,-3.0449,-3.0219,-2.9604,-2.8804,-2.8051,-2.7382,-2.7087,-2.6774,-2.6498,-2.6727,-2.6402,-2.5644,-2.5245,-2.5001,-2.4812,-2.4812,-2.4812,-2.4812,-2.4812,-2.4932,-2.5104,-2.5104,-2.528,-2.5587,0.0,0.0,0.0,0.0,0.0,0.0,0.0,0.0,0.0,0.0,0.0,0.0,0.0,0.0,0.0,0.0,0.0,0.0,0.0,0.0,0.0,0.0,0.0,0.0,0.0,0.0,0.0,0.0,0.0,0.0,-2.9104,-2.9855,-3.0369,-3.0717,-3.1322,-3.0956,-2.9978,-2.9826,-2.9233,-2.8313,-2.8672,-2.8804,-2.8861,-2.8577,-2.8162,-2.768,-2.6959,-2.6806,-2.6968,-2.7116,0.0,0.0,0.0,0.0,-2.6445,-2.6668,-2.6746,-2.7153,0.0,0.0,0.0,0.0,0.0,0.0,0.0,0.0,0.0,0.0,0.0,0.0,0.0,0.0,0.0,0.0,0.0,0.0,0.0,0.0,0.0,0.0,0.0,0.0,0.0,0.0,0.0,0.0,0.0,0.0,0.0,0.0,-3.0254,-2.959,-2.9824,-2.9523,-2.8671,-2.8216,-2.7732,-2.7179,-2.6811,-2.6299,-2.5803,-2.6066,-2.5909,-2.5258,-2.4949,-2.4812,-2.4812,-2.4812,-2.4778,-2.4727,-2.4782,-2.4727,-2.4727,-2.4837,-2.502,-2.5221,0.0,0.0,0.0,0.0,0.0,0.0,0.0,0.0,0.0,0.0,0.0,0.0,0.0,0.0,0.0,0.0,0.0,0.0,0.0,0.0,0.0,0.0,-2.8242,0.0,0.0,0.0,0.0,0.0,0.0,0.0,0.0,0.0,-3.0222,-3.0277,-3.0002,-2.9596,-2.8944,-2.7865,-2.6987,-2.6225,-2.6846,-2.7157,-2.7157,-2.7103,-2.7131,-2.7185,-2.647,-2.6384,-2.6711,-2.7083,-2.7104,0.0,0.0,0.0,-2.6278,-2.5701,-2.5702,-2.6192,0.0,0.0,0.0,0.0,0.0,0.0,0.0,0.0,0.0,0.0,0.0,0.0,0.0,0.0,0.0,0.0,0.0,0.0,0.0,0.0,0.0,0.0,0.0,0.0,0.0,0.0,0.0,0.0,0.0,0.0,0.0,-2.9316,-2.9297,-2.957,-2.9258,-2.8898,-2.8528,-2.7834,-2.7354,-2.7028,-2.681,-2.6527,-2.6211,-2.6053,-2.5557,-2.4898,-2.4847,-2.4812,-2.4812,-2.4812,-2.4569,-2.4316,-2.4533,-2.4479,-2.437,-2.4858,-2.5123,-2.5276,0.0,0.0,0.0,0.0,0.0,0.0,0.0,0.0,0.0,0.0,0.0,0.0,0.0,0.0,0.0,0.0,0.0,0.0,0.0,0.0,0.0,-2.6793,-2.7361,-2.7673,-2.771,0.0,0.0,0.0,0.0,0.0,0.0,-2.9675,-3.0439,0.0,-3.0438,-2.9781,-2.9412,-2.7958,-2.7008,-2.6502,-2.6729,-2.6967,-2.7119,-2.6593,-2.6612,-2.6775,-2.592,-2.5841,-2.6168,-2.6594,-2.6715,-2.666,-2.6509,0.0,0.0,0.0,-2.58,0.0,0.0,0.0,0.0,0.0,0.0,0.0,0.0,0.0,0.0,0.0,0.0,0.0,0.0,0.0,0.0,0.0,0.0,0.0,0.0,0.0,0.0,0.0,0.0,0.0,0.0,0.0,0.0,0.0,0.0,0.0,-2.9199,-2.9258,-2.9258,-2.9199,-2.9023,-2.8474,-2.7527,-2.7248,-2.6648,-2.5894,-2.5992,-2.5808,-2.5423,-2.5485,-2.5384,-2.5121,-2.4915,-2.4693,-2.4504,-2.4727,-2.447,-2.3939,-2.4253,-2.4201,-2.3993,-2.4647,-2.5002,-2.5232,0.0,0.0,0.0,0.0,0.0,0.0,0.0,0.0,0.0,0.0,0.0,0.0,0.0,0.0,0.0,0.0,0.0,0.0,0.0,0.0,0.0,-2.5913,-2.6371,-2.6628,-2.6719,0.0,0.0,0.0,0.0,0.0,-2.9122,-2.9368,-3.0779,0.0,-3.1135,-3.0161,-2.9695,-2.8108,-2.7342,-2.7077,-2.6522,-2.6584,-2.6864,-2.628,-2.6219,-2.6299,-2.5797,-2.5576,-2.5703,-2.623,-2.6259,-2.6131,-2.6348,-2.6309,0.0,0.0,0.0,0.0,0.0,0.0,0.0,0.0,0.0,0.0,0.0,0.0,0.0,0.0,0.0,0.0,0.0,0.0,0.0,0.0,0.0,0.0,0.0,0.0,0.0,0.0,0.0,0.0,0.0,0.0,0.0,0.0,0.0,0.0,-2.9253,-2.9451,-2.947,-2.9253,-2.8982,-2.8174,-2.6921,-2.6669,-2.6042,-2.4997,-2.5289,-2.5147,-2.4698,-2.4954,-2.5172,-2.5206,-2.4932,-2.4658,-2.4401,-2.4693,-2.4473,-2.3996,-2.4289,-2.422,-2.4049,-2.4667,-2.4969,-2.5201,0.0,0.0,0.0,0.0,0.0,0.0,0.0,0.0,0.0,0.0,0.0,0.0,-2.5488,-2.5362,-2.4867,-2.3663,-2.3535,0.0,0.0,0.0,0.0,-2.433,-2.5819,0.0,-2.5543,0.0,0.0,0.0,0.0,0.0,-2.9586,-2.9498,-3.1246,-3.4184,-3.1761,-3.0027,-2.8892,-2.7548,-2.7225,-2.7324,-2.568,-2.5153,-2.5457,-2.5871,-2.5905,-2.581,-2.623,-2.5877,-2.5459,-2.6131,-2.5965,-2.5497,-2.6151,-2.6094,-2.5713,0.0,0.0,0.0,0.0,0.0,0.0,0.0,0.0,0.0,0.0,0.0,0.0,0.0,0.0,0.0,0.0,0.0,0.0,0.0,0.0,0.0,0.0,0.0,0.0,0.0,0.0,0.0,0.0,0.0,0.0,0.0,0.0,0.0,-3.0079,-2.9713,-2.9672,-3.0133,-2.9056,-2.8145,-2.729,-2.6333,-2.5555,-2.4997,-2.5058,-2.4987,-2.4698,-2.4751,-2.483,-2.4847,-2.483,-2.4812,-2.4795,-2.4812,-2.4755,-2.4645,-2.495,-2.4878,-2.4718,-2.516,-2.5269,-2.5112,0.0,0.0,0.0,0.0,0.0,0.0,0.0,0.0,0.0,0.0,0.0,0.0,0.0,-2.4955,-2.4459,-2.3969,-2.3455,0.0,0.0,0.0,0.0,-2.4537,-2.5362,-2.5546,-2.5014,-2.5286,0.0,0.0,0.0,-2.5267,-2.7326,-2.8293,-2.9372,-3.0581,-3.0859,-3.0771,-3.0312,-2.792,-2.6962,0.0,-2.5419,-2.5331,-2.6064,-2.5586,-2.5703,-2.6133,0.0,0.0,0.0,-2.5869,-2.5762,-2.5616,-2.5869,-2.5664,-2.5243,-2.502,-2.5797,0.0,0.0,0.0,0.0,0.0,0.0,0.0,0.0,0.0,0.0,0.0,0.0,0.0,0.0,0.0,0.0,0.0,0.0,0.0,0.0,0.0,0.0,0.0,0.0,0.0,0.0,0.0,0.0,0.0,0.0,0.0,-3.0078,-3.0255,-3.0203,-2.987,-2.9487,-2.8442,-2.6695,-2.5383,-2.4491,-2.3985,-2.4239,-2.4211,-2.4065,-2.4078,-2.435,-2.4812,-2.4556,-2.4381,-2.447,-2.4858,-2.4763,-2.4385,-2.4898,-2.4898,-2.4704,-2.5341,-2.5305,-2.5127,0.0,0.0,0.0,0.0,0.0,0.0,0.0,0.0,0.0,-2.3767,0.0,0.0,0.0,0.0,-2.4293,-2.3969,-2.3297,-2.3133,-2.3712,-2.362,-2.3736,-2.4335,-2.4886,-2.4977,-2.4624,0.0,0.0,0.0,0.0,0.0,0.0,-2.7158,-2.7939,-2.8465,-2.9308,-3.014,0.0,0.0,0.0,-2.7771,0.0,0.0,-2.691,0.0,0.0,0.0,0.0,0.0,0.0,0.0,0.0,-2.5344,-2.5304,-2.5098,-2.4847,-2.4771,-2.5628,0.0,-2.6148,0.0,0.0,0.0,0.0,0.0,0.0,0.0,0.0,0.0,0.0,0.0,0.0,0.0,0.0,0.0,0.0,0.0,0.0,0.0,0.0,0.0,0.0,0.0,0.0,0.0,0.0,0.0,0.0,0.0,-3.0398,-3.0701,-3.0306,-2.9187,-2.8764,-2.7593,-2.5637,-2.4678,-2.3954,-2.3406,-2.3746,-2.3739,-2.351,-2.3631,-2.3958,-2.4405,-2.4275,-2.4292,-2.4453,-2.4951,-2.4979,-2.472,-2.52,-2.5308,-2.5147,-2.5593,-2.5376,-2.5016,0.0,0.0,0.0,0.0,0.0,0.0,0.0,0.0,-2.3694,-2.4146,0.0,0.0,0.0,0.0,0.0,-2.3627,-2.3187,-2.2968,-2.2968,-2.3316,-2.3517,-2.3517,0.0,0.0,0.0,0.0,0.0,0.0,0.0,0.0,0.0,0.0,-2.7066,-2.8263,-2.7319,-2.805,-2.9957,0.0,-2.9573,-2.956,0.0,-2.6182,-2.7707,0.0,0.0,0.0,-2.835,-2.7607,0.0,-2.5956,0.0,0.0,0.0,-2.4434,-2.452,-2.5026,-2.5834,-2.656,0.0,0.0,0.0,0.0,0.0,0.0,0.0,0.0,0.0,0.0,0.0,0.0,0.0,0.0,0.0,0.0,0.0,0.0,0.0,0.0,0.0,0.0,0.0,0.0,0.0,0.0,0.0,0.0,0.0,-3.0414,-3.116,-3.1016,-2.9974,-2.807,-2.6903,-2.5618,-2.4251,-2.4202,-2.3954,-2.3388,-2.3728,-2.3599,-2.3081,-2.3441,-2.3633,-2.3687,-2.401,-2.4378,-2.4795,-2.5055,-2.5404,-2.5734,-2.6008,-2.6136,-2.6136,-2.6007,-2.5552,-2.4891,0.0,0.0,0.0,0.0,0.0,0.0,-2.3804,-2.3859,-2.4073,0.0,0.0,0.0,-2.4812,-2.4776,-2.4812,-2.4867,-2.45,-2.428,-2.428,-2.4097,-2.3987,-2.3987,-2.45,-2.4643,0.0,0.0,0.0,0.0,0.0,0.0,0.0,0.0,0.0,0.0,-2.6558,-2.6931,-2.6698,-2.6364,0.0,-2.8033,-2.5834,-2.5988,0.0,0.0,0.0,0.0,0.0,-2.7458,-2.7299,0.0,-2.6746,-2.6668,0.0,-2.4668,-2.4369,-2.4243,-2.4866,-2.5573,-2.5594,0.0,0.0,0.0,0.0,0.0,0.0,0.0,0.0,0.0,0.0,0.0,0.0,0.0,0.0,0.0,0.0,0.0,0.0,0.0,0.0,0.0,0.0,0.0,0.0,0.0,0.0,0.0,-3.1391,-3.153,-3.1553,-3.0499,-2.9384,-2.8313,-2.6506,-2.541,-2.5001,-2.448,-2.3857,-2.3175,-2.3135,-2.2909,-2.2529,-2.2178,-2.2502,-2.3238,-2.31,-2.3561,-2.4419,-2.4951,-2.5404,-2.5734,-2.6008,-2.6245,-2.6464,-2.6463,-2.6097,-2.566,0.0,0.0,0.0,0.0,0.0,-2.5106,-2.4629,-2.4904,-2.5212,0.0,0.0,0.0,-2.5069,-2.5326,-2.5491,-2.5433,-2.5212,-2.4959,-2.4794,-2.444,-2.4202,-2.4202,-2.444,-2.4459,-2.4202,0.0,0.0,0.0,0.0,0.0,0.0,0.0,0.0,0.0,0.0,0.0,0.0,0.0,0.0,0.0,-2.561,0.0,0.0,-2.6368,-2.671,0.0,0.0,0.0,-2.816,-2.7189,-2.6715,0.0,0.0,0.0,0.0,0.0,0.0,-2.516,-2.4975,-2.5851,0.0,0.0,0.0,0.0,0.0,-2.6851,0.0,0.0,0.0,0.0,0.0,0.0,0.0,0.0,0.0,0.0,0.0,0.0,0.0,0.0,0.0,0.0,0.0,0.0,0.0,0.0,-3.1836,-3.1675,-3.0966,-2.9551,-2.8279,-2.7217,-2.5785,-2.4899,-2.456,-2.4307,-2.3943,-2.3363,-2.3183,-2.2797,-2.232,-2.2036,-2.216,-2.2667,-2.274,-2.3135,-2.3772,-2.4326,-2.4909,-2.5503,-2.5883,-2.6154,-2.6353,-2.6518,-2.637,-2.6021,0.0,0.0,-2.5874,-2.5598,-2.58,-2.6021,-2.6076,-2.6353,-2.6609,0.0,-2.6388,-2.6058,-2.5803,-2.6298,-2.6371,-2.5745,-2.5561,-2.5323,-2.4867,-2.4422,-2.4146,-2.4202,-2.4165,-2.4165,-2.4202,-2.4569,0.0,0.0,0.0,0.0,0.0,0.0,0.0,0.0,0.0,0.0,0.0,0.0,0.0,-2.5598,-2.5378,-2.6146,0.0,0.0,-2.7586,-2.8975,-2.837,-2.8502,-2.8778,-2.7314,-2.6079,0.0,0.0,0.0,0.0,0.0,-2.446,-2.5022,-2.4625,-2.4881,-2.5467,0.0,0.0,0.0,-2.648,-2.5574,-2.4644,0.0,0.0,0.0,0.0,0.0,0.0,0.0,0.0,0.0,0.0,0.0,0.0,0.0,0.0,0.0,0.0,0.0,-3.1089,-3.1577,-3.1529,-3.0893,-2.9676,-2.8298,-2.6816,-2.5376,-2.4785,-2.4164,-2.3499,-2.3895,-2.3998,-2.3768,-2.3481,-2.2991,-2.2309,-2.2418,-2.2267,-2.1961,-2.2654,-2.3014,-2.3146,-2.3514,-2.4227,-2.5094,-2.5628,-2.5913,-2.6058,-2.6371,-2.637,-2.6076,0.0,0.0,-2.5727,-2.6243,-2.6186,-2.6131,-2.6408,-2.6536,-2.6701,-2.7013,-2.6995,-2.7288,-2.8187,-2.7545,-2.7123,-2.7344,-2.6462,-2.5727,-2.5341,-2.4262,-2.3804,-2.4183,-2.384,-2.3822,-2.4202,-2.4275,-2.3877,0.0,0.0,0.0,0.0,0.0,0.0,0.0,0.0,0.0,0.0,0.0,0.0,-2.3107,-2.4073,0.0,-2.6755,-2.6296,-2.6697,-2.7491,-2.7623,-2.7939,-2.8308,-2.8202,-2.7064,-2.5778,0.0,0.0,0.0,-2.4408,0.0,0.0,0.0,0.0,0.0,0.0,0.0,0.0,-2.5279,-2.4811,-2.4644,0.0,0.0,0.0,0.0,0.0,0.0,0.0,0.0,0.0,0.0,0.0,0.0,0.0,0.0,0.0,0.0,0.0,-3.0937,-3.1023,-3.0338,-2.9256,-2.7855,-2.6813,-2.5574,-2.409,-2.3533,-2.3312,-2.3499,-2.3572,-2.3608,-2.356,-2.3136,-2.25,-2.176,-2.1689,-2.1567,-2.1521,-2.1995,-2.2537,-2.3117,-2.3353,-2.3943,-2.4632,-2.472,-2.5305,-2.6021,-2.6113,-2.6296,-2.6463,-2.5635,-2.5708,-2.5966,-2.6738,-2.6701,-2.6774,-2.7398,-2.7655,-2.7856,-2.8058,-2.8077,-2.815,-2.8352,-2.8022,-2.771,-2.749,-2.6738,-2.6023,-2.547,-2.4611,-2.406,-2.3859,-2.3657,-2.359,-2.384,-2.3657,-2.3363,0.0,0.0,0.0,0.0,0.0,0.0,0.0,0.0,0.0,0.0,0.0,-2.2474,-2.2447,-2.3895,0.0,-2.5693,-2.5727,-2.6148,-2.6754,-2.655,-2.6821,-2.7295,-2.7462,-2.7122,0.0,0.0,-2.5723,-2.5508,0.0,-2.4283,-2.4366,0.0,0.0,0.0,-2.4381,0.0,0.0,0.0,-2.4191,-2.4492,0.0,0.0,0.0,0.0,0.0,0.0,0.0,0.0,0.0,0.0,0.0,0.0,0.0,0.0,0.0,0.0,0.0,-3.0524,-3.0494,-2.9806,-2.8757,-2.7237,-2.6101,-2.4865,-2.3293,-2.2815,-2.2693,-2.2895,-2.3092,-2.3208,-2.3208,-2.2715,-2.2189,-2.1588,-2.1479,-2.1397,-2.1439,-2.1839,-2.2299,-2.286,-2.3075,-2.3485,-2.401,-2.4463,-2.499,-2.547,-2.5874,-2.6149,-2.6298,-2.5252,-2.5635,-2.6131,-2.6866,-2.7123,-2.7435,-2.8168,-2.8608,-2.8865,-2.8865,-2.8938,-2.8737,-2.8077,-2.8168,-2.8095,-2.7673,-2.6774,-2.6096,-2.58,-2.4904,-2.417,-2.3517,-2.3425,-2.3389,-2.3389,-2.3078,-2.2858,-2.2785,0.0,0.0,0.0,0.0,0.0,0.0,0.0,0.0,0.0,0.0,0.0,-2.24,0.0,-2.4519,-2.4702,-2.5157,-2.5711,-2.6261,-2.5601,-2.574,-2.6225,-2.6441,-2.6653,-2.6666,-2.5664,-2.5752,0.0,0.0,0.0,0.0,0.0,0.0,0.0,0.0,0.0,-2.357,0.0,0.0,0.0,0.0,0.0,0.0,0.0,0.0,0.0,0.0,0.0,0.0,0.0,0.0,0.0,0.0,0.0,0.0,0.0,0.0,-3.0134,-2.9965,-2.9235,-2.8133,-2.6708,-2.5418,-2.4075,-2.2637,-2.2314,-2.2199,-2.2272,-2.2626,-2.2792,-2.2853,-2.2409,-2.1967,-2.1544,-2.145,-2.1363,-2.1336,-2.183,-2.2191,-2.25,-2.292,-2.3206,-2.3473,-2.4267,-2.4721,-2.4867,-2.5543,-2.5892,-2.6058,-2.4849,-2.5161,-2.5635,-2.6076,-2.6756,-2.7325,-2.7822,-2.8187,-2.8462,-2.8462,-2.8773,-2.8938,-2.8847,-2.8242,-2.8223,-2.9214,-2.6664,0.0,-2.6885,0.0,-2.3224,-2.348,-2.3151,-2.2968,-2.2968,-2.2931,-2.273,-2.2346,0.0,0.0,0.0,0.0,0.0,0.0,-2.1365,0.0,0.0,0.0,-2.1925,0.0,-2.2895,-2.3584,0.0,-2.4684,-2.5124,-2.5491,-2.5451,-2.5451,-2.5592,0.0,-2.6015,-2.5762,0.0,-2.5762,-2.5302,0.0,0.0,0.0,0.0,0.0,0.0,0.0,-2.4774,0.0,0.0,0.0,0.0,0.0,0.0,0.0,0.0,0.0,0.0,0.0,0.0,0.0,0.0,0.0,0.0,0.0,0.0,0.0,0.0,0.0,0.0,-2.9436,-2.764,-2.6181,-2.5338,-2.3881,-2.2719,-2.1865,-2.1786,-2.1925,-2.2318,-2.2346,-2.2452,-2.2607,-2.2337,-2.1917,-2.1346,-2.1394,-2.1246,-2.1024,-2.169,-2.2034,-2.2139,-2.3015,-2.3356,-2.3456,-2.3809,-2.4295,-2.4794,-2.4886,-2.5414,-2.6021,-2.4739,-2.4922,-2.5234,-2.5911,0.0,0.0,0.0,-2.8168,0.0,0.0,0.0,0.0,0.0,0.0,0.0,0.0,0.0,-2.6371,0.0,0.0,-2.4574,-2.428,-2.3877,-2.3547,-2.3261,-2.2785,-2.2455,-2.2272,-2.2053,0.0,0.0,0.0,0.0,0.0,-2.1701,0.0,-2.2019,0.0,0.0,0.0,0.0,0.0,0.0,-2.3565,-2.3969,-2.4317,-2.4317,-2.4611,-2.501,0.0,-2.5151,0.0,0.0,0.0,0.0,0.0,0.0,0.0,0.0,0.0,0.0,0.0,0.0,0.0,-2.4895,0.0,-2.6061,0.0,0.0,0.0,0.0,0.0,0.0,0.0,0.0,0.0,0.0,0.0,0.0,0.0,0.0,0.0,0.0,0.0,0.0,0.0,0.0,-2.6027,-2.4808,-2.3757,-2.2687,-2.1731,-2.1687,-2.1778,-2.1943,-2.1943,-2.2007,-2.2061,-2.1697,-2.1362,-2.1116,-2.0856,-2.0828,-2.0911,-2.1221,-2.1466,-2.1734,-2.2659,-2.3068,-2.3135,-2.3764,-2.4212,-2.4496,-2.4684,-2.4996,-2.5396,-2.4606,-2.4519,-2.4629,-2.5197,0.0,0.0,0.0,0.0,0.0,0.0,0.0,0.0,-2.9562,-2.9067,0.0,0.0,-2.8223,-2.727,0.0,0.0,-2.5396,0.0,0.0,0.0,0.0,-2.2638,-2.2346,-2.2126,0.0,0.0,0.0,0.0,0.0,0.0,0.0,-2.2503,-2.2312,0.0,0.0,-2.2542,-2.2396,-2.2244,-2.2181,-2.2712,-2.3078,-2.3334,-2.3334,-2.3718,-2.4238,-2.3873,-2.4302,0.0,-2.4622,0.0,0.0,0.0,0.0,0.0,-2.3491,0.0,0.0,0.0,0.0,0.0,0.0,0.0,0.0,0.0,0.0,0.0,0.0,0.0,0.0,0.0,0.0,0.0,0.0,0.0,0.0,0.0,0.0,0.0,0.0,0.0,0.0,0.0,-2.6739,0.0,-2.4111,-2.3212,-2.2465,-2.1731,-2.1687,-2.1687,-2.1687,-2.1687,-2.1687,-2.1624,-2.1221,-2.0952,-2.0907,-2.0518,-2.0462,-2.0759,-2.0876,-2.1083,-2.1444,-2.2408,-2.2819,-2.2952,-2.373,-2.411,-2.4238,-2.4551,-2.4735,-2.4867,-2.422,-2.3859,-2.3535,0.0,0.0,0.0,0.0,0.0,0.0,0.0,0.0,0.0,0.0,0.0,0.0,0.0,0.0,-2.7911,-2.8315,0.0,-2.4684,0.0,0.0,-2.3822,0.0,0.0,-2.2492,-2.1705,0.0,0.0,0.0,0.0,0.0,0.0,0.0,-2.334,-2.3602,-2.3301,-2.3094,-2.2945,-2.2567,-2.2106,-2.1797,0.0,-2.2913,-2.2931,-2.2931,0.0,0.0,-2.3242,-2.3523,0.0,0.0,0.0,0.0,0.0,0.0,0.0,0.0,0.0,0.0,-2.3932,0.0,0.0,0.0,0.0,-2.6088,0.0,0.0,0.0,0.0,0.0,-2.5926,-2.597,0.0,0.0,0.0,0.0,0.0,0.0,0.0,0.0,0.0,0.0,0.0,0.0,-2.5483,0.0,-2.2906,-2.1797,-2.1353,-2.1668,-2.1687,-2.1687,-2.1687,-2.1687,-2.1579,-2.1409,-2.1114,-2.0907,-2.0699,-2.0428,-2.0292,-2.0354,-2.0703,-2.1014,-2.1299,-2.2355,-2.2917,-2.3111,-2.342,-2.3804,-2.4202,-2.422,-2.4477,-2.4794,-2.3804,-2.359,-2.3572,0.0,0.0,0.0,0.0,-2.771,0.0,0.0,0.0,0.0,0.0,-3.1084,-3.0937,0.0,0.0,-2.892,-2.8792,-2.7636,0.0,0.0,0.0,-2.5674,0.0,0.0,0.0,0.0,0.0,0.0,0.0,0.0,0.0,0.0,0.0,-2.366,0.0,0.0,0.0,0.0,0.0,-2.1986,-2.2144,0.0,0.0,-2.2492,-2.2492,-2.2675,0.0,-2.2723,-2.2815,-2.3045,-2.3137,-2.3171,-2.3177,-2.3312,-2.3343,0.0,0.0,0.0,-2.4087,-2.4425,0.0,0.0,0.0,0.0,0.0,0.0,0.0,0.0,0.0,0.0,-2.5906,-2.5906,-2.6135,-2.6292,0.0,0.0,0.0,0.0,0.0,0.0,0.0,0.0,0.0,-2.5709,-2.4375,-2.3207,0.0,-2.1564,-2.1291,-2.1668,-2.1687,-2.1687,-2.1687,-2.1687,-2.1687,-2.1579,-2.1177,-2.0952,-2.0862,-2.0473,-2.0292,-2.0292,-2.0611,-2.0818,-2.0926,-2.187,-2.2481,-2.2828,-2.3292,-2.3785,-2.4165,-2.384,-2.4005,-2.4422,-2.3859,-2.359,0.0,0.0,0.0,0.0,0.0,0.0,0.0,0.0,-3.0516,0.0,-3.2056,0.0,-3.1543,0.0,-3.0662,-2.9855,-2.903,-2.8498,0.0,-2.6848,-2.7031,0.0,0.0,0.0,0.0,0.0,0.0,-2.2764,0.0,0.0,0.0,0.0,0.0,0.0,-2.3568,0.0,-2.3334,0.0,0.0,-2.1851,0.0,0.0,-2.24,-2.2254,0.0,-2.2236,-2.2437,-2.2163,-2.2252,-2.2479,-2.2479,-2.2579,-2.2662,-2.2662,-2.2838,-2.3057,-2.3256,-2.3472,0.0,-2.4463,-2.4866,0.0,-2.5317,0.0,0.0,0.0,0.0,0.0,0.0,0.0,-2.5906,-2.5906,-2.6105,-2.6183,0.0,-2.6287,0.0,0.0,0.0,0.0,0.0,0.0,-2.6345,-2.4218,-2.34,-2.2514,0.0,0.0,-2.1089,-2.1449,-2.1614,-2.1687,-2.1687,-2.1687,-2.1642,-2.1616,-2.1177,-2.0952,-2.0862,-2.0473,-2.0292,-2.0292,-2.0564,-2.0744,-2.0852,-2.167,-2.2206,-2.2506,-2.2902,-2.3363,-2.373,-2.3749,-2.384,-2.3932,-2.4367,0.0,0.0,0.0,-2.4904,0.0,0.0,0.0,-2.9604,0.0,-3.0644,-3.1396,-3.1469,-3.1799,-3.1873,-3.1451,-3.1377,-3.0699,-2.914,-2.9012,0.0,0.0,-2.6885,-2.637,-2.4385,0.0,0.0,0.0,0.0,0.0,0.0,0.0,0.0,0.0,-2.4058,0.0,-2.3247,-2.4028,-2.3632,-2.2407,-2.1894,-2.1705,-2.1723,-2.1705,0.0,-2.2217,-2.1815,-2.1668,-2.1687,-2.1668,-2.1847,-2.2106,-2.2106,-2.222,-2.2397,-2.2397,-2.2574,-2.2925,-2.3584,-2.343,-2.3276,-2.4036,0.0,0.0,0.0,0.0,-2.5764,0.0,0.0,0.0,0.0,0.0,0.0,-2.5904,-2.5817,-2.5865,-2.6262,0.0,0.0,0.0,0.0,0.0,0.0,-2.7175,-2.5929,-2.2736,-2.2592,-2.1847,0.0,0.0,0.0,-2.1089,-2.1467,-2.1687,-2.1687,-2.1687,-2.1597,-2.1392,-2.1132,-2.0907,-2.0699,-2.0428,-2.0292,-2.0337,-2.0609,-2.0835,-2.1077,-2.1743,-2.2089,-2.2272,-2.2272,-2.2547,-2.3023,-2.384,-2.3895,-2.3517,-2.4194,-2.4556,-2.4904,0.0,-2.5252,-2.5874,0.0,0.0,0.0,0.0,-3.1011,-3.1726,-3.2643,-3.257,-3.2276,-3.1873,-3.1286,0.0,0.0,0.0,0.0,-2.7801,-2.7967,-2.7545,-2.6426,-2.6058,0.0,-2.4152,0.0,0.0,-2.337,0.0,0.0,0.0,0.0,0.0,-2.3133,-2.2989,-2.2523,-2.1894,-2.1739,-2.187,0.0,0.0,-2.1943,-2.2181,-2.153,-2.1475,-2.165,-2.1321,-2.1519,-2.1776,-2.1776,-2.1954,-2.2176,-2.2176,-2.2485,-2.2838,-2.3013,-2.3101,-2.3299,-2.4188,-2.4122,-2.397,0.0,0.0,0.0,0.0,0.0,0.0,0.0,0.0,0.0,-2.5876,-2.5177,-2.5072,0.0,0.0,0.0,-2.7531,0.0,0.0,0.0,-2.5973,-2.4385,-2.2895,-2.1609,-2.0564,0.0,0.0,0.0,-2.1089,-2.1467,-2.1687,-2.1687,-2.1687,-2.1642,-2.1597,-2.1177,-2.0952,-2.0907,-2.0518,-2.0428,-2.0609,-2.0817,-2.106,-2.1302,-2.1617,-2.1971,-2.2272,-2.2272,-2.2712,-2.337,-2.362,-2.359,-2.3461,-2.4436,0.0,0.0,-2.6059,0.0,0.0,-2.705,0.0,0.0,-3.0112,-3.0901,0.0,-3.2111,-3.2276,-3.2111,-3.1524,-3.1047,0.0,-2.9965,0.0,0.0,-2.8407,-2.8058,-2.7471,-2.6719,-2.6076,0.0,-2.4244,0.0,0.0,-2.3121,0.0,0.0,0.0,0.0,-2.2422,0.0,-2.2198,-2.1963,-2.1687,-2.1687,0.0,0.0,-2.1778,-2.1833,-2.1943,-2.1346,-2.1255,-2.1412,-2.1401,-2.142,-2.1449,-2.1632,-2.1776,-2.1928,-2.1928,-2.2264,-2.2706,-2.3013,-2.3081,-2.3299,-2.4166,-2.4251,-2.4166,-2.4509,-2.5103,-2.553,0.0,0.0,0.0,0.0,0.0,0.0,0.0,0.0,0.0,0.0,0.0,0.0,0.0,-2.6566,0.0,0.0,-2.4878,-2.3203,-2.1989,-2.1115,0.0,0.0,0.0,0.0,-2.0851,-2.1376,-2.1687,-2.1687,-2.1687,-2.1642,-2.1571,-2.1284,-2.1087,-2.0997,-2.0727,-2.0682,-2.0817,-2.106,-2.1239,-2.1437,-2.1616,-2.1815,-2.2016,-2.2016,-2.2529,-2.3224,-2.3023,-2.3099,-2.3214,-2.5057,0.0,0.0,0.0,0.0,0.0,0.0,-2.8407,0.0,-2.9525,0.0,-3.1267,-3.0772,-3.1396,-3.1543,-3.0772,0.0,-3.0259,-2.9604,-2.9067,-2.8663,-2.8333,-2.7526,-2.6793,-2.6021,-2.5525,-2.4666,0.0,0.0,-2.2668,-2.2378,0.0,0.0,0.0,0.0,0.0,0.0,-2.1594,-2.1733,0.0,-2.1668,-2.1687,-2.1687,-2.1687,-2.1687,-2.165,-2.1328,-2.12,-2.1236,-2.1449,-2.1357,-2.1236,-2.1522,-2.165,-2.1687,-2.1687,-2.1998,-2.253,-2.3212,-2.3256,-2.3319,-2.3993,-2.4251,-2.4294,-2.3884,-2.4423,-2.502,-2.5147,-2.5211,-2.538,0.0,0.0,0.0,0.0,0.0,0.0,0.0,0.0,0.0,0.0,0.0,0.0,0.0,0.0,0.0,-2.0918,-2.0896,0.0,0.0,0.0,0.0,0.0,-2.1266,0.0,-2.176,0.0,-2.1634,-2.1509,-2.141,-2.1239,-2.1042,-2.0997,-2.0997,-2.1087,-2.1302,-2.1392,-2.1437,-2.1616,-2.1687,-2.1687,-2.1687,-2.2181,-2.2858,-2.2455,-2.2545,-2.2906,0.0,0.0,0.0,0.0,0.0,-2.8205,-2.8608,-2.9415,-2.9892,-2.9599,-3.0919,-3.1488,-3.0424,-3.0717,-3.0809,-3.0351,-2.969,0.0,0.0,0.0,0.0,-2.7932,-2.7123,-2.6463,-2.6021,-2.4973,-2.4097,0.0,-2.2748,-2.2417,-2.2378,0.0,0.0,0.0,0.0,0.0,-2.0676,-2.1422,0.0,-2.1255,-2.1559,-2.1687,-2.1687,-2.1687,-2.1687,-2.1687,-2.1614,-2.1577,-2.1485,-2.0882,-2.1083,-2.154,-2.131,-2.1412,-2.1687,-2.1687,-2.1909,-2.2264,-2.2794,-2.3188,-2.3493,-2.3797,-2.3754,-2.3711,-2.3797,-2.3927,-2.4229,-2.4807,-2.5253,-2.5612,-2.5864,0.0,0.0,0.0,0.0,0.0,0.0,0.0,0.0,0.0,0.0,0.0,0.0,0.0,0.0,0.0,0.0,0.0,0.0,0.0,0.0,0.0,0.0,0.0,0.0,0.0,0.0,-2.2135,-2.1428,-2.115,-2.1302,-2.0925,-2.097,-2.1347,-2.1392,-2.1482,-2.1642,-2.1687,-2.1687,-2.1687,-2.1687,-2.2181,-2.2876,-2.2454,-2.2529,-2.2843,0.0,0.0,0.0,0.0,0.0,0.0,0.0,-2.9984,0.0,-2.9654,-3.0075,-3.0222,-2.9635,-2.9929,-3.0002,-2.9599,-2.903,-2.859,-2.837,-2.784,-2.7509,-2.7509,-2.6738,0.0,-2.5414,-2.4354,-2.3639,-2.3187,-2.2364,-2.1894,-2.1708,0.0,0.0,0.0,0.0,-2.0448,0.0,0.0,0.0,-2.1108,-2.1065,-2.1321,-2.1668,-2.1449,-2.1504,-2.1687,-2.1687,-2.1687,-2.1595,-2.1034,-2.0943,-2.1065,-2.1108,-2.1401,-2.1687,-2.1687,-2.1883,-2.2176,-2.2662,-2.2838,-2.3057,-2.3667,-2.3711,-2.3667,-2.3797,-2.397,-2.4315,-2.4786,-2.5084,-2.538,-2.5822,-2.6019,0.0,0.0,0.0,0.0,0.0,0.0,0.0,0.0,0.0,0.0,0.0,0.0,0.0,0.0,0.0,0.0,0.0,0.0,0.0,0.0,0.0,0.0,0.0,0.0,0.0,-2.198,-2.1554,-2.1419,-2.1571,-2.1329,-2.1329,-2.1571,-2.1571,-2.1616,-2.1687,-2.1687,-2.1687,-2.1687,-2.1687,-2.2053,-2.2547,-2.2135,-2.2364,-2.2815,0.0,-2.6848,0.0,0.0,-2.848,0.0,-2.936,-3.0057,-3.0296,-2.9654,-2.9379,-2.9177,-2.9012,-2.9269,-2.9287,-2.8902,-2.8425,-2.7967,-2.7601,-2.7233,-2.6976,-2.6793,-2.6223,-2.547,-2.4537,-2.3755,-2.3096,0.0,-2.1961,-2.1394,0.0,0.0,0.0,0.0,0.0,0.0,0.0,0.0,-2.0814,-2.1089,-2.0869,-2.1119,-2.165,-2.1365,-2.1394,-2.1687,-2.1687,-2.1632,-2.1504,-2.1218,-2.0961,-2.0814,-2.1034,-2.1401,-2.1687,-2.1687,-2.1839,-2.2132,-2.2706,-2.2662,-2.2662,-2.345,-2.3624,-2.358,-2.3624,-2.397,-2.4401,-2.4828,-2.4956,-2.5126,-2.5633,-2.601,0.0,0.0,0.0,0.0,0.0,0.0,0.0,0.0,0.0,0.0,0.0,0.0,0.0,0.0,0.0,-1.9747,-1.9457,-2.0411,0.0,0.0,0.0,-2.1742,-2.1815,0.0,-2.1742,0.0,-2.1697,-2.1642,-2.1687,-2.1642,-2.1642,-2.1687,-2.1687,-2.1687,-2.1687,-2.1687,-2.1687,-2.1687,-2.1687,-2.1925,-2.2236,-2.1833,-2.217,-2.2732,0.0,0.0,0.0,0.0,0.0,0.0,0.0,-2.9397,-2.9714,-2.958,-2.9874,-2.98,-2.9067,-2.9012,-2.8883,-2.848,-2.7746,-2.7123,-2.6719,-2.6664,-2.6316,-2.5617,-2.5525,-2.4867,-2.3627,-2.3187,-2.24,0.0,0.0,-2.1101,0.0,0.0,0.0,0.0,0.0,0.0,0.0,-2.0759,-2.1071,-2.1145,-2.1449,-2.1632,-2.1687,-2.165,-2.165,-2.1687,-2.1687,-2.1493,-2.1163,-2.1126,-2.1346,-2.1522,-2.1218,-2.1401,-2.1687,-2.1687,-2.1731,-2.1909,-2.2838,-2.2925,-2.2838,-2.3101,-2.3013,-2.2925,-2.3144,-2.3406,-2.3841,-2.4743,-2.502,-2.5189,-2.5232,-2.5295,-2.538,0.0,0.0,0.0,0.0,0.0,0.0,0.0,0.0,0.0,0.0,0.0,0.0,0.0,0.0,-1.9875,-1.9838,-2.0319,-2.0558,-2.0521,0.0,-2.187,-2.2217,-2.187,0.0,-2.2217,-2.169,-2.1526,-2.1687,-2.1526,-2.1526,-2.1687,-2.1687,-2.1687,-2.1687,-2.1687,-2.1687,-2.1687,-2.1687,-2.1925,-2.2236,-2.1833,-2.1988,-2.23,0.0,0.0,0.0,0.0,0.0,0.0,0.0,-2.8805,-2.8612,-2.8553,-2.9067,-2.9159,-2.8352,-2.826,-2.8095,-2.7691,-2.7141,-2.6646,-2.6296,-2.626,-2.6021,-2.5399,-2.5142,-2.4556,-2.3517,-2.3114,-2.2419,0.0,0.0,0.0,0.0,0.0,0.0,0.0,0.0,-2.0168,-2.0259,-2.0613,-2.0888,-2.1108,-2.0991,-2.1248,-2.1668,-2.1412,-2.1467,-2.1687,-2.1687,-2.1577,-2.1449,-2.1449,-2.142,-2.1328,-2.1163,-2.1401,-2.1687,-2.1687,-2.1687,-2.182,-2.2485,-2.2397,-2.2309,-2.2925,-2.2838,-2.275,-2.3363,-2.358,-2.3927,-2.4743,-2.5062,-2.5189,-2.5189,-2.5189,-2.5211,0.0,0.0,0.0,0.0,0.0,0.0,0.0,0.0,0.0,0.0,0.0,0.0,0.0,0.0,0.0,-1.9549,-2.0173,0.0,-2.0521,0.0,-2.176,-2.1925,-2.1778,-2.1778,-2.1925,-2.1689,-2.1597,-2.1687,-2.1616,-2.1597,-2.1687,-2.1687,-2.1687,-2.1687,-2.1687,-2.1687,-2.1687,-2.1687,-2.1797,-2.1906,-2.1742,-2.1797,-2.1906,-2.6583,0.0,-2.7107,0.0,-2.7582,-2.7352,-2.8002,-2.786,-2.761,-2.7389,-2.8129,-2.8407,-2.7877,-2.7655,-2.7546,-2.7196,-2.6811,-2.6371,-2.5874,-2.5947,-2.5727,-2.5102,-2.479,0.0,-2.3334,-2.2931,-2.2327,-2.1504,-2.1632,0.0,0.0,0.0,0.0,0.0,-2.0186,-2.0387,-2.0686,-2.0686,-2.0924,-2.1273,-2.0998,-2.1174,-2.1668,-2.1357,-2.1431,-2.1687,-2.1687,-2.1687,-2.1687,-2.1687,-2.1485,-2.1291,-2.1291,-2.1449,-2.1687,-2.1687,-2.1687,-2.1776,-2.2264,-2.2043,-2.1909,-2.2706,-2.2662,-2.2618,-2.3406,-2.3754,-2.41,-2.4765,-2.4956,-2.4999,-2.4999,-2.4999,-2.4999,-2.4893,0.0,0.0,0.0,0.0,0.0,0.0,-2.1384,-2.0537,-1.9408,0.0,0.0,0.0,0.0,0.0,0.0,0.0,0.0,0.0,0.0,0.0,0.0,-2.1687,-2.1687,-2.1687,-2.1687,-2.1687,-2.1687,-2.1687,-2.1687,-2.1687,-2.1687,-2.1687,-2.1687,-2.1687,-2.1687,-2.1687,-2.1687,-2.1687,-2.1687,-2.1687,-2.1687,-2.1687,-2.5348,-2.5726,-2.6024,-2.6041,-2.6351,-2.6471,-2.611,-2.6521,-2.6782,-2.6374,-2.7187,-2.784,-2.7822,-2.7473,-2.7178,-2.7178,-2.6811,-2.6243,-2.5488,-2.58,-2.547,0.0,0.0,-2.3785,-2.2931,-2.251,-2.1933,-2.1108,0.0,0.0,-2.0539,0.0,-2.0888,-2.0521,-2.0924,-2.1089,-2.1108,-2.1108,-2.1302,-2.1687,-2.1687,-2.1687,-2.1687,-2.1687,-2.1687,-2.1687,-2.1687,-2.1687,-2.1687,-2.1687,-2.1687,-2.1687,-2.1687,-2.1687,-2.1687,-2.1687,-2.1687,-2.1776,-2.2264,-2.2043,-2.182,-2.2309,-2.2397,-2.253,-2.3013,-2.3647,-2.4337,-2.4807,-2.47,-2.4487,-2.4487,-2.4487,-2.4572,-2.4871,0.0,0.0,0.0,0.0,0.0,0.0,-2.1099,-2.0195,-1.9387,0.0,0.0,0.0,0.0,0.0,0.0,0.0,0.0,-2.1089,-2.1467,0.0,-2.1687,-2.1687,-2.1687,-2.1687,-2.1687,-2.1687,-2.1687,-2.1687,-2.1687,-2.1687,-2.1687,-2.1687,-2.1687,-2.1687,-2.1687,-2.1687,-2.1687,-2.1687,-2.1687,-2.1687,-2.1687,-2.1687,-2.5287,-2.5726,-2.5983,-2.5983,-2.572,-2.5511,-2.56,-2.572,-2.5848,-2.5854,-2.6535,-2.6958,-2.6958,-2.7086,-2.7068,0.0,-2.6664,-2.6243,0.0,-2.5543,-2.5194,-2.4238,-2.3877,-2.3444,-2.2913,-2.2492,-2.2016,-2.1485,0.0,0.0,0.0,-2.1053,-2.0906,-2.0539,-2.0924,-2.1108,-2.1126,-2.1376,-2.1577,-2.1687,-2.1687,-2.1687,-2.1687,-2.1687,-2.1687,-2.1687,-2.1687,-2.1687,-2.1687,-2.1687,-2.1687,-2.1687,-2.1687,-2.1687,-2.1687,-2.1687,-2.1687,-2.1731,-2.1865,-2.182,-2.1731,-2.1909,-2.2176,-2.2441,-2.2574,-2.3299,-2.397,-2.4143,-2.4358,-2.4507,-2.4507,-2.4507,-2.4401,-2.4186,-2.41,0.0,0.0,0.0,0.0,0.0,-2.1159,-2.0535,0.0,-1.9567,0.0,0.0,0.0,0.0,0.0,0.0,0.0,0.0,-2.1467,0.0,-2.1687,-2.1687,-2.1687,-2.1687,-2.1687,-2.1687,-2.1687,-2.1687,-2.1687,-2.1687,-2.1687,-2.1687,-2.1687,-2.1687,-2.1687,-2.1687,-2.1687,-2.1687,-2.1687,-2.1687,-2.1687,-2.1687,-2.4421,-2.4718,-2.4868,-2.4868,-2.4524,-2.4285,-2.4454,-2.4856,-2.5164,-2.5328,-2.6081,-2.6591,-2.6591,-2.6811,0.0,-2.6609,-2.6444,-2.6131,-2.547,-2.5286,-2.4776,-2.395,-2.348,-2.3078,-2.2675,0.0,0.0,-2.1687,-2.1687,-2.1559,-2.1346,-2.1346,-2.1218,-2.0936,-2.1193,-2.1346,-2.1365,-2.1577,-2.1687,-2.1687,-2.1687,-2.1687,-2.1687,-2.1687,-2.1687,-2.1687,-2.1687,-2.1687,-2.1687,-2.1687,-2.1687,-2.1687,-2.1687,-2.1687,-2.1687,-2.1687,-2.1687,-2.1687,-2.1687,-2.1687,-2.1731,-2.1909,-2.2309,-2.2706,-2.2882,-2.3406,-2.3797,-2.3797,-2.3884,-2.4013,-2.4186,-2.41,-2.3884,-2.358,-2.3537,-2.3434,-2.3189,0.0,0.0,0.0,0.0,0.0,0.0,-1.9989,0.0,0.0,0.0,0.0,0.0,0.0,0.0,-2.1328,-2.1559,0.0,-2.1687,-2.1687,-2.1687,-2.1687,-2.1687,-2.1687,-2.1687,-2.1687,-2.1687,-2.1687,-2.1687,-2.1687,-2.1687,-2.1687,-2.1687,-2.1687,-2.1687,-2.1687,-2.1687,-2.1687,-2.1687,-2.1687,-2.3022,-2.3022,0.0,0.0,-2.3022,0.0,-2.3022,-2.4016,-2.4723,-2.4778,-2.5789,-2.6537,-2.6591,-2.6591,-2.6573,-2.6554,0.0,0.0,0.0,-2.4977,-2.4409,-2.3535,-2.3114,-2.2712,-2.2291,-2.1888,-2.1687,-2.1687,-2.1687,-2.1687,-2.1687,-2.1687,-2.1687,-2.1687,-2.1687,-2.1687,-2.1687,-2.1687,-2.1687,-2.1687,-2.1687,-2.1687,-2.1687,-2.1687,-2.1687,-2.1687,-2.1687,-2.1687,-2.1687,-2.1687,-2.1687,-2.1687,-2.1687,-2.1687,-2.1687,-2.1687,-2.1687,-2.1687,-2.1687,-2.1731,-2.1865,-2.2309,-2.275,-2.3169,-2.3584,-2.3691,-2.3691,-2.3671,-2.3387,-2.3232,-2.3711,-2.3406,-2.3101,-2.3101,-2.3081,-2.3055,-2.3026,0.0,0.0,0.0,0.0,0.0,0.0,-2.0539,-2.0351,0.0,0.0,0.0,0.0,0.0,-2.0882,-2.1668,-2.1687,-2.1687,-2.1687,-2.1687,-2.1687,-2.1687,-2.1687,-2.1687,-2.1687,-2.1687,-2.1687,-2.1687,-2.1687,-2.1687,-2.1687,-2.1687,-2.1687,-2.1687,-2.1687,-2.1687,-2.1687,-2.1687,-2.1687,-2.1687,0.0,0.0,-2.3022,-2.3022,-2.3022,-2.3022,-2.3022,-2.3624,-2.4295,-2.4723,-2.5459,-2.6081,-2.6537,-2.6591,-2.6463,-2.6186,-2.6076,-2.5708,-2.4977,-2.4831,-2.4409,-2.3535,-2.3114,-2.2712,-2.2291,-2.1888,-2.1687,-2.1687,-2.1687,-2.1687,-2.1687,-2.1687,-2.1687,-2.1687,-2.1687,-2.1687,-2.1687,-2.1687,-2.1687,-2.1687,-2.1687,-2.1687,-2.1687,-2.1687,-2.1687,-2.1687,-2.1687,-2.1687,-2.1687,-2.1687,-2.1687,-2.1687,-2.1687,-2.1687,-2.1687,-2.1687,-2.1687,-2.1687,-2.1687,-2.1954,-2.2264,-2.2353,-2.2485,-2.2522,-2.2327,-2.25,-2.2654,-2.2351,-2.2717,-2.3232,-2.3711,-2.3406,-2.3101,-2.3101,-2.2828,-2.2403,-2.1687,-2.2045,-2.1979,0.0,-2.1549,-2.1606,-2.0581,-2.0796,-2.0796,0.0,0.0,0.0,0.0,-2.0961,-2.12,-2.1668,-2.1687,-2.1687,-2.1687,-2.1687,-2.1687,-2.1687,-2.1687,-2.1687,-2.1687,-2.1687,-2.1687,-2.1687,-2.1687,-2.1687,-2.1687,-2.1687,-2.1687,-2.1687,-2.1687,-2.1687,-2.1687,-2.1687,-2.1687,-2.1687,-2.3022,-2.3022,-2.3022,-2.3022,-2.3022,-2.3022,-2.3022,-2.3528,-2.4016,-2.4351,-2.4906,-2.5514,-2.6136,-2.5971,-2.5793,-2.5748,-2.5745,-2.5488,-2.4812,-2.4661,-2.4134,-2.3261,-2.3023,-2.262,-2.2016,-2.1797,-2.1687,-2.1687,-2.1687,-2.1687,-2.1687,-2.1687,-2.1687,-2.1687,-2.1687,-2.1687,-2.1687,-2.1687,-2.1687,-2.1687,-2.1687,-2.1687,-2.1687,-2.1687,-2.1687,-2.1687,-2.1687,-2.1687,-2.1687,-2.1687,-2.1687,-2.1687,-2.1687,-2.1687,-2.1687,-2.1687,-2.1687,-2.1687,-2.1687,-2.1909,-2.2132,-2.2353,-2.2596,-2.2601,-2.1964,-2.1968,-2.2082,-2.1835,-2.2138,-2.2662,-2.3363,-2.3101,-2.2717,-2.2524,-2.2485,-2.2194,-2.1244,-2.1604,-2.1709,-2.115,-2.1551,-2.1669,-2.1114,-2.1273,-2.1218,-2.0814,0.0,0.0,-2.1108,-2.1291,-2.1449,-2.1687,-2.1687,-2.1687,-2.1687,-2.1687,-2.1687,-2.1687,-2.1687,-2.1687,-2.1687,-2.1687,-2.1687,-2.1687,-2.1687,-2.1687,-2.1687,-2.1687,-2.1687,-2.1687,-2.1687,-2.1687,-2.1687,-2.1687,-2.1687,-2.1687,-2.3022,-2.3022,-2.3022,-2.3022,-2.3022,-2.3022,-2.3022,-2.3416,-2.3809,-2.3865,-2.4351,-2.4889,-2.5514,-2.511,-2.487,-2.5122,-2.5154,-2.5024,-2.4721,-2.4299,-2.373,-2.2931,-2.284,-2.2455,-2.1705,-2.1687,-2.1687,-2.1687,-2.1687,-2.1687,-2.1687,-2.1687,-2.1687,-2.1687,-2.1687,-2.1687,-2.1687,-2.1687,-2.1687,-2.1687,-2.1687,-2.1687,-2.1687,-2.1687,-2.1687,-2.1687,-2.1687,-2.1687,-2.1687,-2.1687,-2.1687,-2.1687,-2.1687,-2.1687,-2.1687,-2.1687,-2.1687,-2.1687,-2.1687,-2.1731,-2.1909,-2.2309,-2.2722,-2.2856,-2.1883,-2.1749,-2.1787,-2.1712,-2.1701,-2.1954,-2.2838,-2.2618,-2.2221,-2.2035,-2.2225,-2.2187,-2.1483,0.0,-2.148,-2.1787,-2.1518,-2.139,-2.165,-2.1687,-2.154,-2.1236,-2.1485,-2.154,0.0,-2.1504,-2.1687,-2.1687,-2.1687,-2.1687,-2.1687,-2.1687,-2.1687,-2.1687,-2.1687,-2.1687,-2.1687,-2.1687,-2.1687,-2.1687,-2.1687,-2.1687,-2.1687,-2.1687,-2.1687,-2.1687,-2.1687,-2.1687,-2.1687,-2.1687,-2.1687,-2.1687,-2.3022,-2.3022,-2.3022,-2.3022,-2.3022,-2.3022,-2.3022,-2.3062,-2.3304,-2.3809,-2.3977,-2.4239,-2.4889,-2.4834,-2.4597,-2.3999,-2.3982,-2.4051,-2.4299,-2.3859,-2.3389,-2.2931,-2.2565,-2.2163,-2.1705,-2.1687,-2.1687,-2.1687,-2.1687,-2.1687,-2.1687,-2.1687,-2.1687,-2.1687,-2.1687,-2.1687,-2.1687,-2.1687,-2.1687,-2.1687,-2.1687,-2.1687,-2.1687,-2.1687,-2.1687,-2.1687,-2.1687,-2.1687,-2.1687,-2.1687,-2.1687,-2.1687,-2.1687,-2.1687,-2.1687,-2.1687,-2.1687,-2.1687,-2.1687,-2.1998,-2.2309,-2.2397,-2.2473,-2.2277,-2.1398,-2.1471,-2.1618,-2.1268,-2.1482,-2.1865,-2.2397,-2.2132,-2.2069,-2.2785,-2.2337,-2.199,-2.2246,0.0,-2.2158,-2.1835,-2.2038,-2.2057,-2.1731,-2.1687,-2.1668,-2.1595,-2.165,-2.1668,-2.1595,-2.165,-2.1687,-2.1687,-2.1687,-2.1687,-2.1687,-2.1687,-2.1687,-2.1687,-2.1687,-2.1687,-2.1687,-2.1687,-2.1687,-2.1687,-2.1687,-2.1687,-2.1687,-2.1687,-2.1687,-2.1687,-2.1687,-2.1687,-2.1687,-2.1687,-2.1687,-2.1687,-2.3022,-2.3022,-2.3022,-2.3022,-2.3022,-2.3022,-2.3022,-2.3022,-2.3078,-2.336,-2.3416,-2.3559,-2.401,-2.3773,-2.3528,-2.3408,-2.3095,-2.3031,-2.3273,-2.3131,-2.3027,-2.2884,-2.251,-2.2089,-2.1705,-2.1687,-2.1687,-2.1687,-2.1687,-2.1687,-2.1687,-2.1687,-2.1687,-2.1687,-2.1687,-2.1687,-2.1687,-2.1687,-2.1687,-2.1687,-2.1687,-2.1687,-2.1687,-2.1687,-2.1687,-2.1687,-2.1687,-2.1687,-2.1687,-2.1687,-2.1687,-2.1687,-2.1687,-2.1687,-2.1687,-2.1687,-2.1687,-2.1687,-2.1687,-2.2043,-2.2353,-2.2087,-2.2051,-2.1913,-2.1231,-2.1255,-2.1302,-2.1145,-2.1394,-2.182,-2.2309,-2.222,-2.2145,-2.2337,-2.2503,0.0,0.0,-2.2605,-2.2788,-2.2608,-2.2438,-2.2309,-2.2087,-2.1865,-2.1687,-2.1687,-2.1687,-2.1687,-2.1687,-2.1687,-2.1687,-2.1687,-2.1687,-2.1687,-2.1687,-2.1687,-2.1687,-2.1687,-2.1687,-2.1553,-2.1311,-2.1311,-2.1311,-2.1311,-2.1311,-2.1463,-2.1687,-2.1687,-2.1687,-2.1687,-2.1687,-2.1687,-2.1687,-2.1687,-2.1687,-2.1687,-2.3022,-2.3022,-2.3022,-2.3022,-2.3022,-2.3022,-2.3022,-2.3022,-2.299,-2.2911,-2.2895,-2.2919,-2.3059,-2.2644,-2.2479,-2.2684,-2.2322,-2.2121,-2.23,-2.2238,-2.2342,-2.2724,-2.2373,-2.1998,-2.1705,-2.1687,-2.1687,-2.1687,-2.1687,-2.1687,-2.1687,-2.1687,-2.1687,-2.1687,-2.1687,-2.1687,-2.1687,-2.1687,-2.1687,-2.1687,-2.1687,-2.1687,-2.1687,-2.1687,-2.1687,-2.1687,-2.1687,-2.1687,-2.1687,-2.1687,-2.1687,-2.1687,-2.1687,-2.1687,-2.1687,-2.1687,-2.1687,-2.1687,-2.1687,-2.2028,-2.2244,-2.1794,-2.1831,-2.182,-2.1471,-2.1383,-2.142,-2.1511,-2.1742,-2.2115,-2.2457,-2.2426,-2.2302,-2.2095,0.0,0.0,0.0,-2.2822,-2.3168,-2.3168,-2.2809,-2.2511,-2.2264,-2.1909,-2.1687,-2.1687,-2.1687,-2.1687,-2.1687,-2.1687,-2.1687,-2.1687,-2.1687,-2.1687,-2.1687,-2.1687,-2.1687,-2.1687,-2.1687,-2.1463,-2.0997,-2.0997,-2.0952,-2.0817,-2.0952,-2.1177,-2.1553,-2.1642,-2.1687,-2.1687,-2.1687,-2.1687,-2.1687,-2.1687,-2.1687,-2.1687,-2.3022,-2.3022,-2.3022,-2.3022,-2.3022,-2.3022,-2.3022,-2.3022,-2.2895,-2.2577,-2.2529,-2.2441,-2.2145,-2.2059,-2.19,-2.1586,-2.1501,-2.1551,-2.1742,-2.1114,-2.1199,-2.2102,-2.1916,-2.1723,-2.1687,-2.1687,-2.1687,-2.1687,-2.1687,-2.1687,-2.1687,-2.1687,-2.1687,-2.1687,-2.1687,-2.1687,-2.1687,-2.1687,-2.1687,-2.1687,-2.1687,-2.1687,-2.1687,-2.1687,-2.1687,-2.1687,-2.1687,-2.1687,-2.1687,-2.1687,-2.1687,-2.1687,-2.1687,-2.1687,-2.1687,-2.1687,-2.1687,-2.1687,-2.1687,-2.2006,-2.219,-2.1778,-2.1988,-2.2226,-2.2245,-2.2181,-2.2309,-2.2693,-2.2803,-2.2821,-2.2868,-2.2538,-2.2446,-2.2862,0.0,0.0,-2.3464,-2.3327,-2.3086,-2.3086,-2.3076,-2.2697,-2.1857,-2.1731,-2.1687,-2.1687,-2.1687,-2.1687,-2.1687,-2.1687,-2.1687,-2.1687,-2.1687,-2.1687,-2.1687,-2.1687,-2.1687,-2.1687,-2.1687,-2.1463,-2.0997,-2.0997,-2.0772,-2.0382,-2.0817,-2.1042,-2.1087,-2.1508,-2.1687,-2.1687,-2.1687,-2.1687,-2.1687,-2.1687,-2.1687,-2.1687,-2.3022,-2.3022,-2.3022,-2.3022,-2.3022,-2.3022,-2.3022,-2.2831,-2.2641,-2.2498,-2.2291,-2.2037,-2.1687,-2.1321,-2.1022,-2.0628,-2.0284,-2.0199,-2.037,-2.0229,-2.0516,-2.1366,-2.1626,-2.1687,-2.1687,-2.1687,-2.1687,-2.1687,-2.1687,-2.1687,-2.1687,-2.1687,-2.1687,-2.1687,-2.1687,-2.1687,-2.1687,-2.1687,-2.1687,-2.1687,-2.1687,-2.1687,-2.1687,-2.1687,-2.1687,-2.1687,-2.1687,-2.1687,-2.1687,-2.1687,-2.1687,-2.1687,-2.1687,-2.1687,-2.1687,-2.1687,-2.1687,-2.1687,-2.1687,-2.1797,-2.187,-2.1723,-2.1797,-2.1996,-2.2311,-2.2356,-2.2576,-2.3309,-2.345,-2.3434,-2.3402,-2.328,-2.3121,-2.2936,0.0,-2.319,-2.4042,-2.4241,-2.4252,-2.4018,-2.3691,-2.3166,-2.2213,-2.1865,-2.1687,-2.1687,-2.1925,-2.1943,-2.1705,-2.1687,-2.1687,-2.1687,-2.1687,-2.1687,-2.1687,-2.1419,-2.1266,-2.1266,-2.097,-2.0609,-2.0138,-2.0138,-2.0048,-1.9866,-2.0048,-2.032,-2.0591,-2.0744,-2.0835,-2.0835,-2.0835,-2.0817,-2.0872,-2.1177,-2.1293,-2.1302,-2.274,-2.274,-2.2683,-2.2441,-2.2517,-2.2567,-2.2567,-2.2269,-2.2002,-2.1892,-2.1565,-2.1177,-2.0798,-2.0384,-2.0136,-1.9998,-1.9724,-1.9604,-1.9729,-1.9955,-2.0379,-2.097,-2.1463,-2.1687,-2.1687,-2.1687,-2.1687,-2.1687,-2.1687,-2.1687,-2.1687,-2.1687,-2.1687,-2.1687,-2.1687,-2.1614,-2.1504,-2.1632,-2.1614,-2.1504,-2.1632,-2.1687,-2.1687,-2.1687,-2.1687,-2.1687,-2.1687,-2.1687,-2.1687,-2.1687,-2.1687,-2.1687,-2.1687,-2.1687,-2.1687,-2.1687,-2.1687,-2.1687,-2.1687,-2.1687,-2.1687,-2.1687,-2.1778,-2.2005,-2.2497,-2.2586,-2.2834,-2.3751,-2.3984,-2.388,-2.3708,-2.3672,-2.3486,-2.3007,-2.3177,-2.3579,-2.409,-2.4716,-2.4828,-2.4117,-2.4114,-2.368,-2.2321,-2.1976,-2.1833,-2.1705,-2.1943,-2.198,-2.1705,-2.1687,-2.1687,-2.1687,-2.1687,-2.1687,-2.1687,-2.1374,-2.1132,-2.0997,-2.0682,-2.0184,-1.9592,-1.9592,-1.95,-1.9363,-1.9546,-1.9774,-2.011,-2.0246,-2.0292,-2.0292,-2.0292,-2.032,-2.0331,-2.0682,-2.0782,-2.0836,-2.2214,-2.2101,-2.1873,-2.1288,-2.1418,-2.1597,-2.1597,-2.1307,-2.0971,-2.0635,-2.0151,-1.9661,-1.9368,-1.9272,-1.9376,-1.9687,-1.9931,-2.0036,-2.0015,-2.0504,-2.087,-2.1015,-2.1463,-2.1687,-2.1687,-2.1687,-2.1687,-2.1687,-2.1687,-2.1687,-2.1687,-2.1687,-2.1687,-2.1687,-2.1687,-2.1493,-2.1145,-2.1504,-2.1449,-2.1145,-2.1522,-2.1687,-2.1687,-2.1687,-2.1687,-2.1687,-2.1687,-2.1687,-2.1687,-2.1687,-2.1687,-2.1687,-2.1687,-2.1687,-2.1687,-2.1687,-2.1687,-2.1687,-2.1687,-2.1687,-2.1687,-2.1687,-2.198,-2.241,-2.2911,-2.3002,-2.3252,-2.4113,-2.4302,-2.4164,-2.37,-2.3607,-2.3439,-2.3007,-2.2913,-2.3083,-2.3532,-2.4457,-2.4559,-2.3207,-2.4253,-2.4179,-2.1949,-2.2053,-2.2108,-2.1723,-2.1687,-2.1687,-2.1705,-2.1687,-2.1687,-2.1687,-2.1687,-2.1687,-2.1687,-2.1687,-2.1463,-2.0997,-2.0997,-2.0501,-1.9592,-1.9592,-1.9271,-1.8827,-1.9363,-1.9592,-1.9637,-2.011,-2.0292,-2.0292,-2.0292,-2.0292,-2.0292,-2.0292,-2.0292,-2.0382,-2.1231,-2.1118,-2.1062,-2.0894,-2.0741,-2.0699,-2.0699,-2.0416,-2.0163,-2.0059,-1.9708,-1.9426,-1.9286,-1.8907,-1.8684,-1.8788,-1.864,-1.8974,-1.9926,-2.0115,-2.0412,-2.0997,-2.1463,-2.1687,-2.1687,-2.1374,-2.1221,-2.1221,-2.088,-2.0699,-2.0699,-2.1042,-2.1221,-2.1221,-2.1244,-2.1383,-2.1467,-2.1071,-2.1101,-2.1485,-2.1321,-2.1431,-2.1687,-2.1687,-2.1687,-2.1687,-2.1687,-2.1687,-2.1687,-2.1687,-2.1687,-2.1687,-2.1687,-2.1687,-2.1687,-2.1687,-2.1687,-2.1687,-2.1687,-2.1687,-2.1687,-2.1687,-2.1778,-2.2005,-2.2478,-2.2834,-2.3324,-2.4247,-2.4706,-2.4887,-2.4652,-2.433,-2.4,-2.3404,-2.3316,-2.3507,-2.4013,-2.4564,-2.4688,-2.3975,-2.4021,-2.371,-2.263,-2.2126,-2.1925,-2.2089,-2.1851,-2.1815,-2.2089,-2.1833,-2.1687,-2.1687,-2.1687,-2.1687,-2.1687,-2.1374,-2.0952,-2.0501,-2.0184,-1.9683,-1.9058,-1.9058,-1.8966,-1.8827,-1.8966,-1.9058,-1.9058,-1.9196,-1.9242,-1.9242,-1.9242,-1.9242,-1.9288,-1.9683,-1.982,-1.9894,-2.0279,-2.0168,-2.0127,-1.9849,-1.98,-1.9762,-1.9762,-1.9488,-1.9271,-1.9271,-1.8902,-1.8646,-1.8646,-1.8318,-1.8108,-1.8213,-1.8184,-1.8464,-1.913,-1.9437,-1.9774,-2.0121,-2.0682,-2.1042,-2.115,-2.0772,-2.0637,-2.0727,-2.0428,-2.0292,-2.0292,-2.0591,-2.0727,-2.0727,-2.0971,-2.1003,-2.0931,-2.0802,-2.0943,-2.1193,-2.1145,-2.1365,-2.1687,-2.1687,-2.1687,-2.1687,-2.1687,-2.1687,-2.1687,-2.1687,-2.1687,-2.1687,-2.1687,-2.1687,-2.1687,-2.1687,-2.1687,-2.1687,-2.1687,-2.1797,-2.1925,-2.1925,-2.1815,-2.1902,-2.2739,-2.2997,-2.3437,-2.4557,-2.5013,-2.5084,-2.4808,-2.468,-2.4371,-2.3636,-2.3499,-2.3595,-2.3962,-2.4229,-2.4183,-2.3561,-2.3636,-2.3373,-2.2502,-2.2126,-2.1961,-2.2034,-2.1833,-2.1797,-2.2034,-2.1815,-2.1687,-2.1687,-2.1687,-2.1687,-2.1687,-2.1419,-2.1042,-2.0546,-2.0275,-1.9774,-1.9104,-1.9104,-1.9012,-1.8781,-1.8781,-1.8781,-1.8781,-1.8781,-1.8781,-1.8781,-1.8781,-1.8781,-1.8827,-1.915,-1.9271,-1.9347,-1.9373,-1.9263,-1.9098,-1.8561,-1.8632,-1.8789,-1.8789,-1.8499,-1.8318,-1.8318,-1.7898,-1.7582,-1.7582,-1.7582,-1.7687,-1.7923,-1.8239,-1.8326,-1.7953,-1.8629,-1.8996,-1.8796,-1.9392,-1.9866,-2.011,-1.9957,-2.0002,-2.0246,-2.0201,-2.0155,-2.0155,-2.0201,-2.0246,-2.0246,-2.0737,-2.0571,-1.9968,-2.0728,-2.0888,-2.0649,-2.0979,-2.1365,-2.1687,-2.1687,-2.1687,-2.1687,-2.1687,-2.1687,-2.1687,-2.1687,-2.1687,-2.1687,-2.1687,-2.1687,-2.1687,-2.1687,-2.1687,-2.1687,-2.1687,-2.198,-2.2291,-2.2327,-2.2071,-2.2113,-2.3326,-2.3402,-2.3492,-2.4751,-2.5054,-2.493,-2.4394,-2.4559,-2.4526,-2.3625,-2.3462,-2.3444,-2.3444,-2.3541,-2.3308,-2.2474,-2.3084,-2.3101,-2.1915,-2.2089,-2.2108,-2.1723,-2.1687,-2.1687,-2.1687,-2.1687,-2.1687,-2.1687,-2.1687,-2.1687,-2.1687,-2.1687,-2.1463,-2.0997,-2.0997,-2.0501,-1.9592,-1.9592,-1.9333,-1.8781,-1.8781,-1.8781,-1.8781,-1.8781,-1.8781,-1.8781,-1.8781,-1.8781,-1.8781,-1.8781,-1.8781,-1.8874,-1.8401,-1.8306,-1.8252,-1.8143,-1.7996,-1.7887,-1.7887,-1.7833,-1.7793,-1.7793,-1.7687,-1.7582,-1.7582,-1.7582,-1.7541,-1.7365,-1.7349,-1.7539,-1.8053,-1.8055,-1.8149,-1.8473,-1.8488,-1.8643,-1.8889,-1.9425,-1.9683,-1.9729,-1.9333,-1.915,-1.915,-1.9546,-1.9729,-1.9774,-2.0278,-2.0625,-2.0758,-2.0655,-2.0918,-2.1412,-2.12,-2.1365,-2.1687,-2.1687,-2.1687,-2.1687,-2.1687,-2.1687,-2.1687,-2.1687,-2.1687,-2.1687,-2.1687,-2.1687,-2.1687,-2.1687,-2.1687,-2.1687,-2.1687,-2.198,-2.2364,-2.2693,-2.2712,-2.2703,-2.3028,-2.3279,-2.3453,-2.3344,-2.3779,-2.4006,-2.3404,-2.3436,-2.3494,-2.3251,-2.3081,-2.3041,-2.3041,-2.3062,-2.3017,-2.2785,-2.264,-2.2612,-2.2638,-2.2419,-2.2108,-2.1723,-2.1687,-2.1687,-2.1687,-2.1687,-2.1687,-2.1687,-2.1687,-2.1687,-2.1687,-2.1687,-2.1463,-2.0997,-2.0997,-2.0501,-1.9592,-1.9592,-1.9333,-1.8781,-1.8781,-1.8781,-1.8781,-1.8781,-1.8781,-1.8781,-1.8781,-1.8781,-1.8781,-1.8781,-1.8781,-1.8827,-1.7876,-1.7822,-1.7822,-1.7822,-1.7689,-1.7582,-1.7582,-1.7582,-1.7582,-1.7582,-1.7582,-1.7582,-1.7582,-1.7582,-1.7462,-1.7233,-1.7241,-1.7218,-1.7227,-1.7413,-1.7606,-1.787,-1.8025,-1.8272,-1.8658,-1.9012,-1.9242,-1.9242,-1.892,-1.8781,-1.8827,-1.9104,-1.9242,-1.9271,-1.9996,-2.0358,-2.0402,-2.0678,-2.1053,-2.142,-2.12,-2.1365,-2.1687,-2.1687,-2.1687,-2.1687,-2.1687,-2.1687,-2.1687,-2.1687,-2.1687,-2.1687,-2.1687,-2.1687,-2.1687,-2.1687,-2.1687,-2.1687,-2.1687,-2.2126,-2.2638,-2.2858,-2.3187,-2.357,-2.3843,-2.357,-2.3336,-2.3758,-2.3749,-2.3624,-2.3535,-2.359,-2.3632,-2.3657,-2.3201,-2.2913,-2.2913,-2.2565,-2.2327,-2.2327,-2.2126,-2.2089,-2.2309,-2.2126,-2.1925,-2.1705,-2.1687,-2.1687,-2.1687,-2.1687,-2.1687,-2.1687,-2.1687,-2.1687,-2.1687,-2.1687,-2.1597,-2.1329,-2.1329,-2.0817,-1.9928,-1.9928,-1.9517,-1.8781,-1.8781,-1.8781,-1.8781,-1.8781,-1.8781,-1.8781,-1.8781,-1.8781,-1.8781,-1.8781,-1.8781,-1.8781,-1.7477,-1.7477,-1.7477,-1.7529,-1.7529,-1.7529,-1.7582,-1.7582,-1.7582,-1.7582,-1.7582,-1.7582,-1.7582,-1.7542,-1.7447,-1.7152,-1.7209,-1.7021,-1.6384,-1.6852,-1.7138,-1.7246,-1.7761,-1.8226,-1.8689,-1.8781,-1.8781,-1.8781,-1.8781,-1.8781,-1.8781,-1.8781,-1.8781,-1.8827,-1.9837,-2.0121,-1.9874,-2.0781,-2.1218,-2.1218,-2.1218,-2.142,-2.1687,-2.1687,-2.1687,-2.1687,-2.1687,-2.1687,-2.1687,-2.1687,-2.1687,-2.1687,-2.1687,-2.1687,-2.1687,-2.1687,-2.1687,-2.1705,-2.1778,-2.2346,-2.2931,-2.2986,-2.3602,-2.4356,-2.4852,-2.3918,-2.3198,-2.4345,-2.3844,-2.3322,-2.3805,-2.3872,-2.3954,-2.4194,-2.3535,-2.2986,-2.2913,-2.2327,-2.1851,-2.1705,-2.1687,-2.1687,-2.1687,-2.1687,-2.1687,-2.1687,-2.1687,-2.1687,-2.1687,-2.1687,-2.1687,-2.1687,-2.1687,-2.1687,-2.1687,-2.1687,-2.1687,-2.1687,-2.1642,-2.115,-2.0292,-2.0292,-1.9745,-1.8781,-1.8781,-1.8781,-1.8781,-1.8781,-1.8781,-1.8781,-1.8781,-1.8781,-1.8781,-1.8781,-1.8781,-1.8781,-1.6842,-1.6842,-1.6895,-1.7226,-1.7226,-1.7331,-1.7582,-1.7582,-1.7582,-1.7582,-1.7582,-1.7582,-1.7582,-1.7407,-1.7139,-1.6794,-1.6599,-1.6508,-1.6627,-1.6436,-1.6555,-1.7026,-1.7495,-1.79,-1.8179,-1.8596,-1.8781,-1.8781,-1.8781,-1.8781,-1.8781,-1.8781,-1.8781,-1.8827,-1.9837,-2.0257,-2.0268,-2.1194,-2.1614,-2.1614,-2.1614,-2.1632,-2.1687,-2.1687,-2.1687,-2.1687,-2.1687,-2.1687,-2.1687,-2.1687,-2.1687,-2.1687,-2.1687,-2.1687,-2.1687,-2.1687,-2.1687,-2.176,-2.2108,-2.2547,-2.2986,-2.3334,-2.3804,-2.4332,-2.4816,-2.4055,-2.3178,-2.2883,-2.255,-2.2401,-2.2826,-2.2994,-2.3344,-2.4224,-2.3857,-2.3297,-2.295,-2.2821,-2.2474,-2.1778,-2.1687,-2.1687,-2.1687,-2.1687,-2.1687,-2.1687,-2.1687,-2.1687,-2.1687,-2.1687,-2.1687,-2.1687,-2.1687,-2.1687,-2.1687,-2.1687,-2.1687,-2.1687,-2.1266,-2.0817,-2.0292,-2.0292,-1.9745,-1.8781,-1.8781,-1.8781,-1.8781,-1.8781,-1.8781,-1.8781,-1.8781,-1.8781,-1.8781,-1.8781,-1.8781,-1.8781,-1.6683,-1.6683,-1.6736,-1.6895,-1.6895,-1.6948,-1.7107,-1.7107,-1.716,-1.7331,-1.7187,-1.7185,-1.7341,-1.7074,-1.6847,-1.6714,-1.6433,-1.637,-1.6481,-1.6293,-1.6461,-1.6979,-1.7293,-1.7761,-1.8334,-1.852,-1.8705,-1.8781,-1.8781,-1.8781,-1.8781,-1.8781,-1.8716,-1.8587,-1.9782,-2.0036,-1.967,-2.1105,-2.1553,-2.1329,-2.1597,-2.1687,-2.1687,-2.1687,-2.1553,-2.1266,-2.1015,-2.0925,-2.0925,-2.0925,-2.0925,-2.0925,-2.0925,-2.1105,-2.1365,-2.1599,-2.1835,-2.2062,-2.2167,-2.2677,-2.3231,-2.3057,-2.3644,-2.4251,-2.4449,-2.3637,-2.287,-2.292,-2.2384,-2.2029,-2.2486,-2.3081,-2.3728,-2.4485,-2.4432,-2.4097,-2.3675,-2.3187,-2.2602,-2.1797,-2.1888,-2.1925,-2.1705,-2.1687,-2.1687,-2.1687,-2.1687,-2.1687,-2.1687,-2.1687,-2.1687,-2.1687,-2.1687,-2.1687,-2.1687,-2.1687,-2.1553,-2.1311,-2.1087,-2.0727,-2.0292,-2.0019,-1.9517,-1.8781,-1.8781,-1.8781,-1.8781,-1.8781,-1.8781,-1.8781,-1.8781,-1.8781,-1.8781,-1.8781,-1.8781,-1.8781]}]]